Wetterdaten: Freitag, 01.12.2017
Datum Zeit Temp. A. Pool Temp. Feuchte A. Luftdruck Regen Wind Richtung Richtung Sonnenschein ET UV Solar Taupunkt Windchill Windben Empfang
01.12.2017 00:00 0,2 C 4,4 C 93 % 1008,7 hPa 0,0 l/m 6,9 km/h (2 Bft) SW 232 0 min 0,000 mm 0,0 UV-I 0 W/m -0,8 C -0,3 C 11,3 km/h (2 Bft) 97,87 %
01.12.2017 00:02 0,2 C 4,4 C 93 % 1008,7 hPa 0,0 l/m 7,3 km/h (2 Bft) W-SW 238 0 min 0,000 mm 0,0 UV-I 0 W/m -0,8 C -0,7 C 11,3 km/h (2 Bft) 92,86 %
01.12.2017 00:04 0,2 C 4,4 C 93 % 1008,7 hPa 0,0 l/m 8,8 km/h (2 Bft) SW 217 0 min 0,000 mm 0,0 UV-I 0 W/m -0,8 C -2,2 C 12,9 km/h (3 Bft) 98,00 %
01.12.2017 00:06 0,2 C 4,4 C 93 % 1008,7 hPa 0,0 l/m 8,4 km/h (2 Bft) W-SW 238 0 min 0,000 mm 0,0 UV-I 0 W/m -0,8 C -1,8 C 14,5 km/h (3 Bft) 93,62 %
01.12.2017 00:08 0,1 C 4,4 C 93 % 1008,7 hPa 0,0 l/m 6,7 km/h (2 Bft) S-SW 213 0 min 0,000 mm 0,0 UV-I 0 W/m -0,9 C -0,2 C 9,7 km/h (2 Bft) 95,83 %
01.12.2017 00:10 0,0 C 4,4 C 93 % 1008,6 hPa 0,0 l/m 6,3 km/h (2 Bft) SW 225 0 min 0,000 mm 0,0 UV-I 0 W/m -1,0 C 0,0 C 9,7 km/h (2 Bft) 97,87 %
01.12.2017 00:12 0,0 C 4,4 C 93 % 1008,6 hPa 0,0 l/m 8,6 km/h (2 Bft) W-SW 238 0 min 0,000 mm 0,0 UV-I 0 W/m -1,0 C -2,2 C 14,5 km/h (3 Bft) 97,14 %
01.12.2017 00:14 0,0 C 4,4 C 94 % 1008,7 hPa 0,0 l/m 8,3 km/h (2 Bft) W-SW 240 0 min 0,000 mm 0,0 UV-I 0 W/m -0,8 C -1,9 C 14,5 km/h (3 Bft) 97,87 %
01.12.2017 00:16 -0,1 C 4,4 C 94 % 1008,7 hPa 0,0 l/m 8,9 km/h (2 Bft) SW 232 0 min 0,000 mm 0,0 UV-I 0 W/m -0,9 C -2,6 C 12,9 km/h (3 Bft) 97,87 %
01.12.2017 00:18 -0,1 C 4,4 C 94 % 1008,7 hPa 0,0 l/m 10,8 km/h (2 Bft) SW 229 0 min 0,000 mm 0,0 UV-I 0 W/m -0,9 C -4,2 C 16,1 km/h (3 Bft) 96,00 %
01.12.2017 00:20 -0,1 C 4,4 C 94 % 1008,7 hPa 0,0 l/m 8,5 km/h (2 Bft) W-SW 239 0 min 0,000 mm 0,0 UV-I 0 W/m -0,9 C -2,2 C 11,3 km/h (2 Bft) 97,87 %
01.12.2017 00:22 -0,1 C 4,4 C 94 % 1008,7 hPa 0,0 l/m 9,2 km/h (2 Bft) SW 233 0 min 0,000 mm 0,0 UV-I 0 W/m -0,9 C -2,9 C 12,9 km/h (3 Bft) 95,74 %
01.12.2017 00:24 -0,1 C 4,4 C 94 % 1008,8 hPa 0,0 l/m 7,5 km/h (2 Bft) SW 221 0 min 0,000 mm 0,0 UV-I 0 W/m -0,9 C -1,2 C 9,7 km/h (2 Bft) 93,62 %
01.12.2017 00:26 -0,1 C 4,4 C 94 % 1008,8 hPa 0,0 l/m 7,8 km/h (2 Bft) W 264 0 min 0,000 mm 0,0 UV-I 0 W/m -0,9 C -1,6 C 11,3 km/h (2 Bft) 97,92 %
01.12.2017 00:28 -0,2 C 4,4 C 94 % 1008,8 hPa 0,0 l/m 8,6 km/h (2 Bft) W-SW 244 0 min 0,000 mm 0,0 UV-I 0 W/m -1,0 C -2,4 C 11,3 km/h (2 Bft) 97,87 %
01.12.2017 00:30 -0,2 C 4,4 C 94 % 1008,8 hPa 0,0 l/m 7,3 km/h (2 Bft) W-SW 245 0 min 0,000 mm 0,0 UV-I 0 W/m -1,0 C -1,1 C 11,3 km/h (2 Bft) 98,00 %
01.12.2017 00:32 -0,3 C 4,4 C 94 % 1008,8 hPa 0,0 l/m 6,2 km/h (2 Bft) W-SW 248 0 min 0,000 mm 0,0 UV-I 0 W/m -1,1 C -0,3 C 11,3 km/h (2 Bft) 95,12 %
01.12.2017 00:34 -0,3 C 4,4 C 94 % 1008,8 hPa 0,0 l/m 5,9 km/h (2 Bft) W-SW 250 0 min 0,000 mm 0,0 UV-I 0 W/m -1,1 C -0,3 C 8,0 km/h (2 Bft) 100,00 %
01.12.2017 00:36 -0,3 C 4,4 C 94 % 1008,8 hPa 0,0 l/m 5,0 km/h (1 Bft) W-SW 250 0 min 0,000 mm 0,0 UV-I 0 W/m -1,1 C -0,3 C 6,4 km/h (2 Bft) 98,00 %
01.12.2017 00:38 -0,3 C 4,4 C 94 % 1008,9 hPa 0,0 l/m 4,5 km/h (1 Bft) W-SW 255 0 min 0,000 mm 0,0 UV-I 0 W/m -1,1 C -0,3 C 6,4 km/h (2 Bft) 100,00 %
01.12.2017 00:40 -0,3 C 4,4 C 95 % 1008,9 hPa 0,0 l/m 4,3 km/h (1 Bft) W-SW 248 0 min 0,000 mm 0,0 UV-I 0 W/m -1,0 C -0,3 C 6,4 km/h (2 Bft) 97,87 %
01.12.2017 00:42 -0,4 C 4,4 C 95 % 1008,9 hPa 0,0 l/m 3,5 km/h (1 Bft) W-SW 238 0 min 0,000 mm 0,0 UV-I 0 W/m -1,1 C -0,4 C 6,4 km/h (2 Bft) 95,74 %
01.12.2017 00:44 -0,5 C 4,4 C 94 % 1008,9 hPa 0,0 l/m 3,2 km/h (1 Bft) W-SW 238 0 min 0,000 mm 0,0 UV-I 0 W/m -1,3 C -0,5 C 6,4 km/h (2 Bft) 97,87 %
01.12.2017 00:46 -0,6 C 4,4 C 94 % 1008,9 hPa 0,0 l/m 3,0 km/h (1 Bft) S-SW 210 0 min 0,000 mm 0,0 UV-I 0 W/m -1,4 C -0,6 C 6,4 km/h (2 Bft) 97,87 %
01.12.2017 00:48 -0,7 C 4,4 C 94 % 1008,8 hPa 0,0 l/m 0,2 km/h (0 Bft) S-SW 210 0 min 0,000 mm 0,0 UV-I 0 W/m -1,5 C -0,7 C 1,6 km/h (1 Bft) 93,62 %
01.12.2017 00:50 -0,8 C 4,4 C 94 % 1008,9 hPa 0,0 l/m 1,0 km/h (0 Bft) S-SW 210 0 min 0,000 mm 0,0 UV-I 0 W/m -1,6 C -0,8 C 3,2 km/h (1 Bft) 97,37 %
01.12.2017 00:52 -0,9 C 4,4 C 95 % 1008,8 hPa 0,0 l/m 1,5 km/h (1 Bft) S-SW 210 0 min 0,000 mm 0,0 UV-I 0 W/m -1,6 C -0,9 C 3,2 km/h (1 Bft) 95,74 %
01.12.2017 00:54 -0,9 C 4,4 C 95 % 1008,9 hPa 0,0 l/m 1,4 km/h (1 Bft) S-SW 210 0 min 0,000 mm 0,0 UV-I 0 W/m -1,6 C -0,9 C 3,2 km/h (1 Bft) 97,87 %
01.12.2017 00:56 -0,9 C 4,4 C 95 % 1008,8 hPa 0,0 l/m 0,8 km/h (0 Bft) S-SW 210 0 min 0,000 mm 0,0 UV-I 0 W/m -1,6 C -0,9 C 3,2 km/h (1 Bft) 98,00 %
01.12.2017 00:58 -0,9 C 4,4 C 95 % 1008,8 hPa 0,0 l/m 1,4 km/h (1 Bft) S-SW 210 0 min 0,000 mm 0,0 UV-I 0 W/m -1,6 C -0,9 C 3,2 km/h (1 Bft) 98,00 %
01.12.2017 01:00 -0,9 C 4,4 C 95 % 1008,9 hPa 0,0 l/m 2,1 km/h (1 Bft) S-SW 199 0 min 0,000 mm 0,0 UV-I 0 W/m -1,6 C -0,9 C 4,8 km/h (1 Bft) 97,87 %
01.12.2017 01:02 -1,0 C 4,4 C 95 % 1008,9 hPa 0,0 l/m 4,7 km/h (1 Bft) S-SO 159 0 min 0,000 mm 0,0 UV-I 0 W/m -1,7 C -1,0 C 8,0 km/h (2 Bft) 95,74 %
01.12.2017 01:04 -1,1 C 4,4 C 95 % 1008,9 hPa 0,0 l/m 4,7 km/h (1 Bft) S-SO 158 0 min 0,000 mm 0,0 UV-I 0 W/m -1,8 C -1,1 C 8,0 km/h (2 Bft) 95,74 %
01.12.2017 01:06 -1,0 C 4,4 C 96 % 1008,9 hPa 0,0 l/m 3,2 km/h (1 Bft) S-SO 158 0 min 0,000 mm 0,0 UV-I 0 W/m -1,6 C -1,0 C 8,0 km/h (2 Bft) 96,00 %
01.12.2017 01:08 -0,8 C 4,4 C 96 % 1009,0 hPa 0,0 l/m 2,5 km/h (1 Bft) S-SO 158 0 min 0,000 mm 0,0 UV-I 0 W/m -1,4 C -0,8 C 4,8 km/h (1 Bft) 94,74 %
01.12.2017 01:10 -0,8 C 4,4 C 96 % 1009,0 hPa 0,0 l/m 2,5 km/h (1 Bft) S-SO 158 0 min 0,000 mm 0,0 UV-I 0 W/m -1,4 C -0,8 C 4,8 km/h (1 Bft) 96,00 %
01.12.2017 01:12 -1,0 C 4,4 C 96 % 1009,0 hPa 0,0 l/m 2,5 km/h (1 Bft) S-SO 158 0 min 0,000 mm 0,0 UV-I 0 W/m -1,6 C -1,0 C 4,8 km/h (1 Bft) 93,62 %
01.12.2017 01:14 -1,1 C 4,4 C 95 % 1009,0 hPa 0,0 l/m 1,4 km/h (1 Bft) S-SO 158 0 min 0,000 mm 0,0 UV-I 0 W/m -1,8 C -1,1 C 3,2 km/h (1 Bft) 95,74 %
01.12.2017 01:16 -1,1 C 4,4 C 96 % 1009,0 hPa 0,0 l/m 0,6 km/h (0 Bft) S-SO 158 0 min 0,000 mm 0,0 UV-I 0 W/m -1,7 C -1,1 C 1,6 km/h (1 Bft) 96,23 %
01.12.2017 01:18 -1,1 C 4,4 C 96 % 1009,0 hPa 0,0 l/m 0,2 km/h (0 Bft) S-SO 158 0 min 0,000 mm 0,0 UV-I 0 W/m -1,7 C -1,1 C 1,6 km/h (1 Bft) 94,44 %
01.12.2017 01:20 -1,1 C 4,4 C 96 % 1008,9 hPa 0,0 l/m 1,4 km/h (1 Bft) S-SO 158 0 min 0,000 mm 0,0 UV-I 0 W/m -1,7 C -1,1 C 3,2 km/h (1 Bft) 98,00 %
01.12.2017 01:22 -1,1 C 4,4 C 96 % 1008,9 hPa 0,0 l/m 2,0 km/h (1 Bft) S-SO 158 0 min 0,000 mm 0,0 UV-I 0 W/m -1,7 C -1,1 C 3,2 km/h (1 Bft) 97,87 %
01.12.2017 01:24 -1,0 C 4,4 C 96 % 1008,8 hPa 0,0 l/m 2,8 km/h (1 Bft) S-SO 158 0 min 0,000 mm 0,0 UV-I 0 W/m -1,6 C -1,0 C 4,8 km/h (1 Bft) 97,87 %
01.12.2017 01:26 -1,1 C 4,4 C 96 % 1008,8 hPa 0,0 l/m 2,8 km/h (1 Bft) S-SO 158 0 min 0,000 mm 0,0 UV-I 0 W/m -1,7 C -1,1 C 4,8 km/h (1 Bft) 97,87 %
01.12.2017 01:28 -1,2 C 4,4 C 96 % 1008,8 hPa 0,0 l/m 3,5 km/h (1 Bft) S-SO 158 0 min 0,000 mm 0,0 UV-I 0 W/m -1,8 C -1,2 C 4,8 km/h (1 Bft) 91,49 %
01.12.2017 01:30 -1,2 C 4,4 C 96 % 1008,8 hPa 0,0 l/m 3,2 km/h (1 Bft) S-SO 158 0 min 0,000 mm 0,0 UV-I 0 W/m -1,8 C -1,2 C 8,0 km/h (2 Bft) 98,00 %
01.12.2017 01:32 -1,3 C 4,4 C 96 % 1008,8 hPa 0,0 l/m 2,4 km/h (1 Bft) S-SO 158 0 min 0,000 mm 0,0 UV-I 0 W/m -1,9 C -1,3 C 4,8 km/h (1 Bft) 97,87 %
01.12.2017 01:34 -1,4 C 4,4 C 96 % 1008,8 hPa 0,0 l/m 2,2 km/h (1 Bft) S-SO 158 0 min 0,000 mm 0,0 UV-I 0 W/m -2,0 C -1,4 C 4,8 km/h (1 Bft) 95,74 %
01.12.2017 01:36 -1,6 C 4,4 C 96 % 1008,8 hPa 0,0 l/m 1,5 km/h (1 Bft) S-SO 158 0 min 0,000 mm 0,0 UV-I 0 W/m -2,2 C -1,6 C 3,2 km/h (1 Bft) 97,87 %
01.12.2017 01:38 -1,6 C 4,4 C 96 % 1008,9 hPa 0,0 l/m 0,9 km/h (0 Bft) S-SO 158 0 min 0,000 mm 0,0 UV-I 0 W/m -2,2 C -1,6 C 3,2 km/h (1 Bft) 97,87 %
01.12.2017 01:40 -1,4 C 4,4 C 96 % 1008,9 hPa 0,0 l/m 1,2 km/h (1 Bft) S-SO 158 0 min 0,000 mm 0,0 UV-I 0 W/m -2,0 C -1,4 C 3,2 km/h (1 Bft) 100,00 %
01.12.2017 01:42 -1,2 C 4,4 C 97 % 1008,9 hPa 0,0 l/m 1,5 km/h (1 Bft) S-SO 158 0 min 0,000 mm 0,0 UV-I 0 W/m -1,6 C -1,2 C 3,2 km/h (1 Bft) 97,87 %
01.12.2017 01:44 -1,1 C 4,4 C 96 % 1008,9 hPa 0,0 l/m 2,8 km/h (1 Bft) S-SO 156 0 min 0,000 mm 0,0 UV-I 0 W/m -1,7 C -1,1 C 6,4 km/h (2 Bft) 95,74 %
01.12.2017 01:46 -0,9 C 4,4 C 97 % 1009,0 hPa 0,0 l/m 2,6 km/h (1 Bft) S-SO 163 0 min 0,000 mm 0,0 UV-I 0 W/m -1,3 C -0,9 C 6,4 km/h (2 Bft) 100,00 %
01.12.2017 01:48 -0,7 C 4,4 C 96 % 1009,0 hPa 0,0 l/m 3,8 km/h (1 Bft) S-SO 157 0 min 0,000 mm 0,0 UV-I 0 W/m -1,3 C -0,7 C 8,0 km/h (2 Bft) 100,00 %
01.12.2017 01:50 -0,6 C 4,4 C 96 % 1009,0 hPa 0,0 l/m 2,7 km/h (1 Bft) S-SO 158 0 min 0,000 mm 0,0 UV-I 0 W/m -1,2 C -0,6 C 6,4 km/h (2 Bft) 97,37 %
01.12.2017 01:52 -0,5 C 4,4 C 96 % 1009,0 hPa 0,0 l/m 3,3 km/h (1 Bft) S-SO 166 0 min 0,000 mm 0,0 UV-I 0 W/m -1,1 C -0,5 C 8,0 km/h (2 Bft) 100,00 %
01.12.2017 01:54 -0,4 C 4,4 C 95 % 1009,1 hPa 0,0 l/m 3,7 km/h (1 Bft) S-SO 157 0 min 0,000 mm 0,0 UV-I 0 W/m -1,1 C -0,4 C 8,0 km/h (2 Bft) 95,74 %
01.12.2017 01:56 -0,4 C 4,4 C 95 % 1009,1 hPa 0,0 l/m 3,5 km/h (1 Bft) S-SO 157 0 min 0,000 mm 0,0 UV-I 0 W/m -1,1 C -0,4 C 6,4 km/h (2 Bft) 100,00 %
01.12.2017 01:58 -0,4 C 4,4 C 95 % 1009,1 hPa 0,0 l/m 3,7 km/h (1 Bft) S 178 0 min 0,000 mm 0,0 UV-I 0 W/m -1,1 C -0,4 C 8,0 km/h (2 Bft) 95,74 %
01.12.2017 02:00 -0,3 C 4,4 C 95 % 1009,1 hPa 0,0 l/m 3,7 km/h (1 Bft) S 169 0 min 0,000 mm 0,0 UV-I 0 W/m -1,0 C -0,3 C 6,4 km/h (2 Bft) 96,00 %
01.12.2017 02:02 -0,3 C 4,4 C 94 % 1009,1 hPa 0,0 l/m 4,4 km/h (1 Bft) S-SW 202 0 min 0,000 mm 0,0 UV-I 0 W/m -1,1 C -0,3 C 9,7 km/h (2 Bft) 95,74 %
01.12.2017 02:04 -0,3 C 4,4 C 94 % 1009,1 hPa 0,0 l/m 3,4 km/h (1 Bft) S-SW 202 0 min 0,000 mm 0,0 UV-I 0 W/m -1,1 C -0,3 C 6,4 km/h (2 Bft) 93,62 %
01.12.2017 02:06 -0,4 C 4,4 C 94 % 1009,1 hPa 0,0 l/m 3,6 km/h (1 Bft) S-SW 198 0 min 0,000 mm 0,0 UV-I 0 W/m -1,2 C -0,4 C 6,4 km/h (2 Bft) 97,87 %
01.12.2017 02:08 -0,5 C 4,4 C 94 % 1009,1 hPa 0,0 l/m 2,4 km/h (1 Bft) S 178 0 min 0,000 mm 0,0 UV-I 0 W/m -1,3 C -0,5 C 8,0 km/h (2 Bft) 97,87 %
01.12.2017 02:10 -0,5 C 4,4 C 94 % 1009,1 hPa 0,0 l/m 2,3 km/h (1 Bft) S 177 0 min 0,000 mm 0,0 UV-I 0 W/m -1,3 C -0,5 C 3,2 km/h (1 Bft) 95,74 %
01.12.2017 02:12 -0,4 C 4,4 C 94 % 1009,1 hPa 0,0 l/m 2,5 km/h (1 Bft) S 191 0 min 0,000 mm 0,0 UV-I 0 W/m -1,2 C -0,4 C 6,4 km/h (2 Bft) 97,92 %
01.12.2017 02:14 -0,3 C 4,4 C 94 % 1009,1 hPa 0,0 l/m 2,1 km/h (1 Bft) S 190 0 min 0,000 mm 0,0 UV-I 0 W/m -1,1 C -0,3 C 4,8 km/h (1 Bft) 97,87 %
01.12.2017 02:16 -0,3 C 4,4 C 94 % 1009,2 hPa 0,0 l/m 2,1 km/h (1 Bft) S 178 0 min 0,000 mm 0,0 UV-I 0 W/m -1,1 C -0,3 C 4,8 km/h (1 Bft) 98,00 %
01.12.2017 02:18 -0,3 C 4,4 C 93 % 1009,2 hPa 0,0 l/m 2,2 km/h (1 Bft) S-SO 163 0 min 0,000 mm 0,0 UV-I 0 W/m -1,3 C -0,3 C 6,4 km/h (2 Bft) 93,62 %
01.12.2017 02:20 -0,2 C 4,4 C 93 % 1009,2 hPa 0,0 l/m 3,0 km/h (1 Bft) S-SO 159 0 min 0,000 mm 0,0 UV-I 0 W/m -1,2 C -0,2 C 6,4 km/h (2 Bft) 95,74 %
01.12.2017 02:22 -0,1 C 4,4 C 93 % 1009,2 hPa 0,0 l/m 3,4 km/h (1 Bft) S-SO 149 0 min 0,000 mm 0,0 UV-I 0 W/m -1,1 C -0,1 C 8,0 km/h (2 Bft) 95,74 %
01.12.2017 02:24 -0,1 C 4,4 C 93 % 1009,2 hPa 0,0 l/m 2,8 km/h (1 Bft) S-SO 150 0 min 0,000 mm 0,0 UV-I 0 W/m -1,1 C -0,1 C 6,4 km/h (2 Bft) 95,74 %
01.12.2017 02:26 -0,1 C 4,4 C 93 % 1009,2 hPa 0,0 l/m 2,5 km/h (1 Bft) S-SO 150 0 min 0,000 mm 0,0 UV-I 0 W/m -1,1 C -0,1 C 4,8 km/h (1 Bft) 97,87 %
01.12.2017 02:28 -0,2 C 4,4 C 93 % 1009,2 hPa 0,0 l/m 3,8 km/h (1 Bft) S 180 0 min 0,000 mm 0,0 UV-I 0 W/m -1,2 C -0,2 C 8,0 km/h (2 Bft) 94,74 %
01.12.2017 02:30 -0,3 C 4,4 C 93 % 1009,2 hPa 0,0 l/m 4,0 km/h (1 Bft) SW 220 0 min 0,000 mm 0,0 UV-I 0 W/m -1,3 C -0,3 C 6,4 km/h (2 Bft) 95,74 %
01.12.2017 02:32 -0,4 C 4,4 C 93 % 1009,3 hPa 0,0 l/m 3,3 km/h (1 Bft) SW 220 0 min 0,000 mm 0,0 UV-I 0 W/m -1,4 C -0,4 C 4,8 km/h (1 Bft) 95,74 %
01.12.2017 02:34 -0,6 C 4,4 C 93 % 1009,3 hPa 0,0 l/m 3,7 km/h (1 Bft) SW 220 0 min 0,000 mm 0,0 UV-I 0 W/m -1,6 C -0,6 C 4,8 km/h (1 Bft) 100,00 %
01.12.2017 02:36 -0,8 C 4,4 C 93 % 1009,3 hPa 0,0 l/m 2,5 km/h (1 Bft) SW 220 0 min 0,000 mm 0,0 UV-I 0 W/m -1,8 C -0,8 C 3,2 km/h (1 Bft) 100,00 %
01.12.2017 02:38 -0,8 C 4,4 C 93 % 1009,3 hPa 0,0 l/m 2,0 km/h (1 Bft) SW 220 0 min 0,000 mm 0,0 UV-I 0 W/m -1,8 C -0,8 C 3,2 km/h (1 Bft) 97,87 %
01.12.2017 02:40 -0,9 C 4,4 C 94 % 1009,3 hPa 0,0 l/m 1,3 km/h (1 Bft) SW 220 0 min 0,000 mm 0,0 UV-I 0 W/m -1,7 C -0,9 C 3,2 km/h (1 Bft) 97,87 %
01.12.2017 02:42 -0,9 C 4,4 C 94 % 1009,3 hPa 0,0 l/m 2,3 km/h (1 Bft) SW 220 0 min 0,000 mm 0,0 UV-I 0 W/m -1,7 C -0,9 C 3,2 km/h (1 Bft) 97,87 %
01.12.2017 02:44 -0,9 C 4,4 C 94 % 1009,2 hPa 0,0 l/m 2,6 km/h (1 Bft) SW 220 0 min 0,000 mm 0,0 UV-I 0 W/m -1,7 C -0,9 C 3,2 km/h (1 Bft) 100,00 %
01.12.2017 02:46 -1,0 C 4,4 C 94 % 1009,2 hPa 0,0 l/m 2,6 km/h (1 Bft) SW 220 0 min 0,000 mm 0,0 UV-I 0 W/m -1,8 C -1,0 C 4,8 km/h (1 Bft) 97,87 %
01.12.2017 02:48 -1,0 C 4,4 C 94 % 1009,2 hPa 0,0 l/m 2,1 km/h (1 Bft) SW 220 0 min 0,000 mm 0,0 UV-I 0 W/m -1,8 C -1,0 C 3,2 km/h (1 Bft) 97,87 %
01.12.2017 02:50 -1,0 C 4,4 C 94 % 1009,2 hPa 0,0 l/m 2,0 km/h (1 Bft) SW 220 0 min 0,000 mm 0,0 UV-I 0 W/m -1,8 C -1,0 C 3,2 km/h (1 Bft) 100,00 %
01.12.2017 02:52 -0,9 C 4,4 C 95 % 1009,2 hPa 0,0 l/m 2,5 km/h (1 Bft) SW 220 0 min 0,000 mm 0,0 UV-I 0 W/m -1,6 C -0,9 C 4,8 km/h (1 Bft) 100,00 %
01.12.2017 02:54 -0,9 C 4,4 C 94 % 1009,2 hPa 0,0 l/m 0,5 km/h (0 Bft) SW 220 0 min 0,000 mm 0,0 UV-I 0 W/m -1,7 C -0,9 C 1,6 km/h (1 Bft) 100,00 %
01.12.2017 02:56 -0,9 C 4,4 C 94 % 1009,2 hPa 0,0 l/m 0,2 km/h (0 Bft) SW 220 0 min 0,000 mm 0,0 UV-I 0 W/m -1,7 C -0,9 C 1,6 km/h (1 Bft) 94,74 %
01.12.2017 02:58 -1,0 C 4,4 C 94 % 1009,2 hPa 0,0 l/m 0,0 km/h (0 Bft) SW 220 0 min 0,000 mm 0,0 UV-I 0 W/m -1,8 C -1,0 C 1,6 km/h (1 Bft) 100,00 %
01.12.2017 03:00 -1,1 C 4,4 C 94 % 1009,2 hPa 0,0 l/m 1,0 km/h (0 Bft) SW 220 0 min 0,000 mm 0,0 UV-I 0 W/m -1,9 C -1,1 C 3,2 km/h (1 Bft) 100,00 %
01.12.2017 03:02 -1,0 C 4,4 C 94 % 1009,2 hPa 0,0 l/m 2,6 km/h (1 Bft) SW 220 0 min 0,000 mm 0,0 UV-I 0 W/m -1,8 C -1,0 C 4,8 km/h (1 Bft) 100,00 %
01.12.2017 03:04 -0,9 C 4,4 C 94 % 1009,3 hPa 0,0 l/m 1,4 km/h (1 Bft) SW 220 0 min 0,000 mm 0,0 UV-I 0 W/m -1,7 C -0,9 C 3,2 km/h (1 Bft) 100,00 %
01.12.2017 03:06 -0,9 C 4,4 C 94 % 1009,3 hPa 0,0 l/m 0,8 km/h (0 Bft) SW 220 0 min 0,000 mm 0,0 UV-I 0 W/m -1,7 C -0,9 C 3,2 km/h (1 Bft) 100,00 %
01.12.2017 03:08 -0,9 C 4,4 C 94 % 1009,3 hPa 0,0 l/m 0,0 km/h (0 Bft) SW 220 0 min 0,000 mm 0,0 UV-I 0 W/m -1,7 C -0,9 C 0,0 km/h (0 Bft) 97,87 %
01.12.2017 03:10 -0,9 C 4,4 C 94 % 1009,2 hPa 0,0 l/m 1,7 km/h (1 Bft) SW 220 0 min 0,000 mm 0,0 UV-I 0 W/m -1,7 C -0,9 C 3,2 km/h (1 Bft) 100,00 %
01.12.2017 03:12 -1,0 C 4,4 C 94 % 1009,3 hPa 0,0 l/m 1,1 km/h (1 Bft) SW 220 0 min 0,000 mm 0,0 UV-I 0 W/m -1,8 C -1,0 C 1,6 km/h (1 Bft) 100,00 %
01.12.2017 03:14 -1,2 C 4,4 C 94 % 1009,3 hPa 0,0 l/m 0,8 km/h (0 Bft) SW 220 0 min 0,000 mm 0,0 UV-I 0 W/m -2,0 C -1,2 C 3,2 km/h (1 Bft) 95,74 %
01.12.2017 03:16 -1,4 C 4,4 C 94 % 1009,3 hPa 0,0 l/m 2,1 km/h (1 Bft) SW 220 0 min 0,000 mm 0,0 UV-I 0 W/m -2,2 C -1,4 C 3,2 km/h (1 Bft) 100,00 %
01.12.2017 03:18 -1,4 C 4,4 C 95 % 1009,3 hPa 0,0 l/m 0,4 km/h (0 Bft) SW 220 0 min 0,000 mm 0,0 UV-I 0 W/m -2,1 C -1,4 C 3,2 km/h (1 Bft) 100,00 %
01.12.2017 03:20 -1,5 C 4,4 C 94 % 1009,3 hPa 0,0 l/m 1,1 km/h (1 Bft) SW 220 0 min 0,000 mm 0,0 UV-I 0 W/m -2,3 C -1,5 C 3,2 km/h (1 Bft) 95,74 %
01.12.2017 03:22 -1,5 C 4,4 C 95 % 1009,3 hPa 0,0 l/m 2,4 km/h (1 Bft) SW 220 0 min 0,000 mm 0,0 UV-I 0 W/m -2,2 C -1,5 C 3,2 km/h (1 Bft) 100,00 %
01.12.2017 03:24 -1,6 C 4,4 C 95 % 1009,3 hPa 0,0 l/m 2,1 km/h (1 Bft) SW 220 0 min 0,000 mm 0,0 UV-I 0 W/m -2,3 C -1,6 C 3,2 km/h (1 Bft) 100,00 %
01.12.2017 03:26 -1,6 C 4,4 C 95 % 1009,2 hPa 0,0 l/m 2,8 km/h (1 Bft) SW 220 0 min 0,000 mm 0,0 UV-I 0 W/m -2,3 C -1,6 C 3,2 km/h (1 Bft) 97,87 %
01.12.2017 03:28 -1,6 C 4,4 C 95 % 1009,3 hPa 0,0 l/m 2,9 km/h (1 Bft) SW 220 0 min 0,000 mm 0,0 UV-I 0 W/m -2,3 C -1,6 C 4,8 km/h (1 Bft) 97,87 %
01.12.2017 03:30 -1,6 C 4,4 C 95 % 1009,3 hPa 0,0 l/m 2,6 km/h (1 Bft) SW 220 0 min 0,000 mm 0,0 UV-I 0 W/m -2,3 C -1,6 C 3,2 km/h (1 Bft) 97,87 %
01.12.2017 03:32 -1,7 C 4,4 C 95 % 1009,3 hPa 0,0 l/m 1,5 km/h (1 Bft) SW 220 0 min 0,000 mm 0,0 UV-I 0 W/m -2,4 C -1,7 C 3,2 km/h (1 Bft) 97,92 %
01.12.2017 03:34 -1,8 C 4,4 C 95 % 1009,3 hPa 0,0 l/m 0,3 km/h (0 Bft) SW 220 0 min 0,000 mm 0,0 UV-I 0 W/m -2,5 C -1,8 C 1,6 km/h (1 Bft) 100,00 %
01.12.2017 03:36 -2,1 C 4,4 C 95 % 1009,3 hPa 0,0 l/m 0,1 km/h (0 Bft) SW 220 0 min 0,000 mm 0,0 UV-I 0 W/m -2,8 C -2,1 C 1,6 km/h (1 Bft) 98,00 %
01.12.2017 03:38 -2,2 C 4,4 C 95 % 1009,3 hPa 0,0 l/m 1,5 km/h (1 Bft) SW 220 0 min 0,000 mm 0,0 UV-I 0 W/m -2,9 C -2,2 C 3,2 km/h (1 Bft) 100,00 %
01.12.2017 03:40 -2,2 C 4,4 C 96 % 1009,3 hPa 0,0 l/m 1,7 km/h (1 Bft) SW 220 0 min 0,000 mm 0,0 UV-I 0 W/m -2,7 C -2,2 C 3,2 km/h (1 Bft) 97,87 %
01.12.2017 03:42 -2,2 C 4,4 C 96 % 1009,4 hPa 0,0 l/m 1,1 km/h (1 Bft) SW 220 0 min 0,000 mm 0,0 UV-I 0 W/m -2,7 C -2,2 C 3,2 km/h (1 Bft) 100,00 %
01.12.2017 03:44 -2,2 C 4,4 C 96 % 1009,5 hPa 0,0 l/m 0,5 km/h (0 Bft) SW 220 0 min 0,000 mm 0,0 UV-I 0 W/m -2,7 C -2,2 C 3,2 km/h (1 Bft) 97,87 %
01.12.2017 03:46 -2,1 C 4,4 C 96 % 1009,5 hPa 0,0 l/m 1,4 km/h (1 Bft) SW 220 0 min 0,000 mm 0,0 UV-I 0 W/m -2,6 C -2,1 C 3,2 km/h (1 Bft) 100,00 %
01.12.2017 03:48 -2,0 C 4,4 C 96 % 1009,5 hPa 0,0 l/m 0,5 km/h (0 Bft) SW 220 0 min 0,000 mm 0,0 UV-I 0 W/m -2,6 C -2,0 C 1,6 km/h (1 Bft) 97,87 %
01.12.2017 03:50 -1,9 C 4,4 C 96 % 1009,5 hPa 0,0 l/m 0,8 km/h (0 Bft) SW 220 0 min 0,000 mm 0,0 UV-I 0 W/m -2,5 C -1,9 C 3,2 km/h (1 Bft) 100,00 %
01.12.2017 03:52 -1,8 C 4,4 C 96 % 1009,5 hPa 0,0 l/m 0,2 km/h (0 Bft) SW 220 0 min 0,000 mm 0,0 UV-I 0 W/m -2,4 C -1,8 C 1,6 km/h (1 Bft) 100,00 %
01.12.2017 03:54 -1,7 C 4,4 C 96 % 1009,5 hPa 0,0 l/m 0,1 km/h (0 Bft) SW 220 0 min 0,000 mm 0,0 UV-I 0 W/m -2,3 C -1,7 C 1,6 km/h (1 Bft) 100,00 %
01.12.2017 03:56 -1,7 C 4,4 C 96 % 1009,5 hPa 0,0 l/m 0,0 km/h (0 Bft) SW 220 0 min 0,000 mm 0,0 UV-I 0 W/m -2,3 C -1,7 C 1,6 km/h (1 Bft) 97,92 %
01.12.2017 03:58 -1,6 C 4,4 C 96 % 1009,5 hPa 0,0 l/m 0,0 km/h (0 Bft) SW 220 0 min 0,000 mm 0,0 UV-I 0 W/m -2,2 C -1,6 C 0,0 km/h (0 Bft) 100,00 %
01.12.2017 04:00 -1,6 C 4,4 C 96 % 1009,5 hPa 0,0 l/m 0,0 km/h (0 Bft) SW 220 0 min 0,000 mm 0,0 UV-I 0 W/m -2,2 C -1,6 C 0,0 km/h (0 Bft) 97,87 %
01.12.2017 04:02 -1,6 C 4,4 C 96 % 1009,5 hPa 0,0 l/m 0,5 km/h (0 Bft) SW 220 0 min 0,000 mm 0,0 UV-I 0 W/m -2,2 C -1,6 C 3,2 km/h (1 Bft) 96,15 %
01.12.2017 04:04 -1,6 C 4,4 C 96 % 1009,5 hPa 0,0 l/m 1,4 km/h (1 Bft) SW 220 0 min 0,000 mm 0,0 UV-I 0 W/m -2,2 C -1,6 C 3,2 km/h (1 Bft) 95,74 %
01.12.2017 04:06 -1,7 C 4,4 C 96 % 1009,5 hPa 0,0 l/m 0,7 km/h (0 Bft) SW 220 0 min 0,000 mm 0,0 UV-I 0 W/m -2,3 C -1,7 C 1,6 km/h (1 Bft) 95,74 %
01.12.2017 04:08 -1,9 C 4,4 C 95 % 1009,5 hPa 0,0 l/m 0,0 km/h (0 Bft) SW 220 0 min 0,000 mm 0,0 UV-I 0 W/m -2,6 C -1,9 C 0,0 km/h (0 Bft) 95,74 %
01.12.2017 04:10 -2,1 C 4,4 C 95 % 1009,5 hPa 0,0 l/m 1,4 km/h (1 Bft) SW 220 0 min 0,000 mm 0,0 UV-I 0 W/m -2,8 C -2,1 C 4,8 km/h (1 Bft) 91,49 %
01.12.2017 04:12 -2,3 C 4,4 C 95 % 1009,5 hPa 0,0 l/m 3,5 km/h (1 Bft) SW 220 0 min 0,000 mm 0,0 UV-I 0 W/m -3,0 C -2,3 C 4,8 km/h (1 Bft) 95,74 %
01.12.2017 04:14 -2,3 C 4,4 C 96 % 1009,4 hPa 0,0 l/m 3,2 km/h (1 Bft) SW 220 0 min 0,000 mm 0,0 UV-I 0 W/m -2,8 C -2,3 C 4,8 km/h (1 Bft) 92,00 %
01.12.2017 04:16 -2,2 C 4,4 C 96 % 1009,4 hPa 0,0 l/m 3,0 km/h (1 Bft) SW 220 0 min 0,000 mm 0,0 UV-I 0 W/m -2,7 C -2,2 C 4,8 km/h (1 Bft) 93,62 %
01.12.2017 04:18 -2,1 C 4,4 C 96 % 1009,4 hPa 0,0 l/m 3,0 km/h (1 Bft) SW 220 0 min 0,000 mm 0,0 UV-I 0 W/m -2,6 C -2,1 C 3,2 km/h (1 Bft) 95,74 %
01.12.2017 04:20 -2,2 C 4,4 C 96 % 1009,5 hPa 0,0 l/m 1,7 km/h (1 Bft) SW 220 0 min 0,000 mm 0,0 UV-I 0 W/m -2,7 C -2,2 C 3,2 km/h (1 Bft) 93,62 %
01.12.2017 04:22 -2,2 C 4,4 C 96 % 1009,5 hPa 0,0 l/m 0,0 km/h (0 Bft) SW 220 0 min 0,000 mm 0,0 UV-I 0 W/m -2,7 C -2,2 C 0,0 km/h (0 Bft) 91,49 %
01.12.2017 04:24 -2,1 C 4,4 C 96 % 1009,6 hPa 0,0 l/m 0,0 km/h (0 Bft) SW 220 0 min 0,000 mm 0,0 UV-I 0 W/m -2,6 C -2,1 C 0,0 km/h (0 Bft) 93,62 %
01.12.2017 04:26 -2,1 C 4,4 C 96 % 1009,6 hPa 0,0 l/m 0,5 km/h (0 Bft) SW 220 0 min 0,000 mm 0,0 UV-I 0 W/m -2,6 C -2,1 C 1,6 km/h (1 Bft) 93,62 %
01.12.2017 04:28 -2,1 C 4,4 C 96 % 1009,7 hPa 0,0 l/m 0,0 km/h (0 Bft) SW 220 0 min 0,000 mm 0,0 UV-I 0 W/m -2,6 C -2,1 C 0,0 km/h (0 Bft) 95,74 %
01.12.2017 04:30 -2,2 C 4,4 C 96 % 1009,7 hPa 0,0 l/m 0,0 km/h (0 Bft) SW 220 0 min 0,000 mm 0,0 UV-I 0 W/m -2,7 C -2,2 C 0,0 km/h (0 Bft) 95,74 %
01.12.2017 04:32 -2,3 C 4,4 C 96 % 1009,7 hPa 0,0 l/m 0,0 km/h (0 Bft) SW 220 0 min 0,000 mm 0,0 UV-I 0 W/m -2,8 C -2,3 C 0,0 km/h (0 Bft) 95,74 %
01.12.2017 04:34 -2,3 C 4,4 C 96 % 1009,8 hPa 0,0 l/m 3,2 km/h (1 Bft) SW 220 0 min 0,000 mm 0,0 UV-I 0 W/m -2,8 C -2,3 C 4,8 km/h (1 Bft) 91,67 %
01.12.2017 04:36 -2,3 C 4,4 C 96 % 1009,8 hPa 0,0 l/m 3,1 km/h (1 Bft) SW 220 0 min 0,000 mm 0,0 UV-I 0 W/m -2,8 C -2,3 C 4,8 km/h (1 Bft) 93,62 %
01.12.2017 04:38 -2,2 C 4,4 C 96 % 1009,8 hPa 0,0 l/m 3,1 km/h (1 Bft) SW 220 0 min 0,000 mm 0,0 UV-I 0 W/m -2,7 C -2,2 C 4,8 km/h (1 Bft) 95,74 %
01.12.2017 04:40 -2,2 C 4,4 C 97 % 1009,9 hPa 0,0 l/m 2,5 km/h (1 Bft) SW 220 0 min 0,000 mm 0,0 UV-I 0 W/m -2,6 C -2,2 C 3,2 km/h (1 Bft) 93,62 %
01.12.2017 04:42 -2,1 C 4,4 C 97 % 1009,8 hPa 0,0 l/m 3,2 km/h (1 Bft) SW 220 0 min 0,000 mm 0,0 UV-I 0 W/m -2,5 C -2,1 C 4,8 km/h (1 Bft) 95,74 %
01.12.2017 04:44 -2,0 C 4,4 C 97 % 1009,9 hPa 0,0 l/m 2,5 km/h (1 Bft) SW 220 0 min 0,000 mm 0,0 UV-I 0 W/m -2,4 C -2,0 C 3,2 km/h (1 Bft) 92,00 %
01.12.2017 04:46 -1,9 C 4,4 C 97 % 1009,9 hPa 0,0 l/m 1,9 km/h (1 Bft) SW 220 0 min 0,000 mm 0,0 UV-I 0 W/m -2,3 C -1,9 C 3,2 km/h (1 Bft) 95,74 %
01.12.2017 04:48 -2,0 C 4,4 C 97 % 1009,8 hPa 0,0 l/m 0,4 km/h (0 Bft) SW 220 0 min 0,000 mm 0,0 UV-I 0 W/m -2,4 C -2,0 C 1,6 km/h (1 Bft) 97,87 %
01.12.2017 04:50 -2,2 C 4,4 C 96 % 1009,9 hPa 0,0 l/m 0,0 km/h (0 Bft) SW 220 0 min 0,000 mm 0,0 UV-I 0 W/m -2,7 C -2,2 C 0,0 km/h (0 Bft) 95,74 %
01.12.2017 04:52 -2,3 C 4,4 C 96 % 1009,8 hPa 0,0 l/m 0,0 km/h (0 Bft) SW 220 0 min 0,000 mm 0,0 UV-I 0 W/m -2,8 C -2,3 C 0,0 km/h (0 Bft) 97,87 %
01.12.2017 04:54 -2,3 C 4,4 C 96 % 1009,9 hPa 0,0 l/m 1,2 km/h (1 Bft) SW 220 0 min 0,000 mm 0,0 UV-I 0 W/m -2,8 C -2,3 C 3,2 km/h (1 Bft) 97,87 %
01.12.2017 04:56 -2,1 C 4,4 C 97 % 1010,0 hPa 0,0 l/m 1,9 km/h (1 Bft) SW 220 0 min 0,000 mm 0,0 UV-I 0 W/m -2,5 C -2,1 C 3,2 km/h (1 Bft) 100,00 %
01.12.2017 04:58 -2,1 C 4,4 C 97 % 1010,0 hPa 0,0 l/m 1,7 km/h (1 Bft) SW 220 0 min 0,000 mm 0,0 UV-I 0 W/m -2,5 C -2,1 C 3,2 km/h (1 Bft) 95,74 %
01.12.2017 05:00 -2,1 C 4,4 C 97 % 1010,0 hPa 0,0 l/m 0,3 km/h (0 Bft) SW 220 0 min 0,000 mm 0,0 UV-I 0 W/m -2,5 C -2,1 C 3,2 km/h (1 Bft) 97,87 %
01.12.2017 05:02 -1,9 C 4,4 C 97 % 1010,0 hPa 0,0 l/m 0,1 km/h (0 Bft) SW 220 0 min 0,000 mm 0,0 UV-I 0 W/m -2,3 C -1,9 C 1,6 km/h (1 Bft) 98,04 %
01.12.2017 05:04 -1,8 C 4,4 C 97 % 1010,0 hPa 0,0 l/m 0,5 km/h (0 Bft) SW 220 0 min 0,000 mm 0,0 UV-I 0 W/m -2,2 C -1,8 C 3,2 km/h (1 Bft) 100,00 %
01.12.2017 05:06 -1,8 C 4,4 C 97 % 1010,0 hPa 0,0 l/m 0,9 km/h (0 Bft) SW 220 0 min 0,000 mm 0,0 UV-I 0 W/m -2,2 C -1,8 C 3,2 km/h (1 Bft) 100,00 %
01.12.2017 05:08 -1,7 C 4,4 C 97 % 1010,0 hPa 0,0 l/m 1,7 km/h (1 Bft) SW 219 0 min 0,000 mm 0,0 UV-I 0 W/m -2,1 C -1,7 C 4,8 km/h (1 Bft) 98,00 %
01.12.2017 05:10 -1,6 C 4,4 C 97 % 1010,0 hPa 0,0 l/m 3,9 km/h (1 Bft) S 170 0 min 0,000 mm 0,0 UV-I 0 W/m -2,0 C -1,6 C 8,0 km/h (2 Bft) 97,87 %
01.12.2017 05:12 -1,6 C 4,4 C 97 % 1009,9 hPa 0,0 l/m 3,7 km/h (1 Bft) S 170 0 min 0,000 mm 0,0 UV-I 0 W/m -2,0 C -1,6 C 6,4 km/h (2 Bft) 100,00 %
01.12.2017 05:14 -1,4 C 4,4 C 97 % 1010,0 hPa 0,0 l/m 1,2 km/h (1 Bft) S 170 0 min 0,000 mm 0,0 UV-I 0 W/m -1,8 C -1,4 C 3,2 km/h (1 Bft) 97,87 %
01.12.2017 05:16 -1,4 C 4,4 C 97 % 1010,0 hPa 0,0 l/m 1,4 km/h (1 Bft) S 170 0 min 0,000 mm 0,0 UV-I 0 W/m -1,8 C -1,4 C 3,2 km/h (1 Bft) 98,00 %
01.12.2017 05:18 -1,3 C 4,4 C 96 % 1010,0 hPa 0,0 l/m 1,1 km/h (1 Bft) S 170 0 min 0,000 mm 0,0 UV-I 0 W/m -1,9 C -1,3 C 3,2 km/h (1 Bft) 100,00 %
01.12.2017 05:20 -1,3 C 4,4 C 96 % 1009,9 hPa 0,0 l/m 2,4 km/h (1 Bft) S 170 0 min 0,000 mm 0,0 UV-I 0 W/m -1,9 C -1,3 C 6,4 km/h (2 Bft) 100,00 %
01.12.2017 05:22 -1,3 C 4,4 C 96 % 1010,0 hPa 0,0 l/m 2,0 km/h (1 Bft) S 170 0 min 0,000 mm 0,0 UV-I 0 W/m -1,9 C -1,3 C 6,4 km/h (2 Bft) 100,00 %
01.12.2017 05:24 -1,3 C 4,4 C 96 % 1010,0 hPa 0,0 l/m 1,9 km/h (1 Bft) S 170 0 min 0,000 mm 0,0 UV-I 0 W/m -1,9 C -1,3 C 6,4 km/h (2 Bft) 97,87 %
01.12.2017 05:26 -1,4 C 4,4 C 96 % 1010,0 hPa 0,0 l/m 0,9 km/h (0 Bft) S 170 0 min 0,000 mm 0,0 UV-I 0 W/m -2,0 C -1,4 C 3,2 km/h (1 Bft) 100,00 %
01.12.2017 05:28 -1,4 C 4,4 C 95 % 1010,0 hPa 0,0 l/m 0,9 km/h (0 Bft) S 170 0 min 0,000 mm 0,0 UV-I 0 W/m -2,1 C -1,4 C 3,2 km/h (1 Bft) 100,00 %
01.12.2017 05:30 -1,5 C 4,4 C 95 % 1010,1 hPa 0,0 l/m 1,3 km/h (1 Bft) S 170 0 min 0,000 mm 0,0 UV-I 0 W/m -2,2 C -1,5 C 3,2 km/h (1 Bft) 100,00 %
01.12.2017 05:32 -1,6 C 4,4 C 95 % 1010,0 hPa 0,0 l/m 0,6 km/h (0 Bft) S 170 0 min 0,000 mm 0,0 UV-I 0 W/m -2,3 C -1,6 C 3,2 km/h (1 Bft) 100,00 %
01.12.2017 05:34 -1,7 C 4,4 C 95 % 1010,0 hPa 0,0 l/m 5,1 km/h (1 Bft) O 96 0 min 0,000 mm 0,0 UV-I 0 W/m -2,4 C -1,7 C 6,4 km/h (2 Bft) 97,87 %
01.12.2017 05:36 -1,8 C 4,4 C 95 % 1010,0 hPa 0,0 l/m 5,8 km/h (2 Bft) O 96 0 min 0,000 mm 0,0 UV-I 0 W/m -2,5 C -1,8 C 6,4 km/h (2 Bft) 97,87 %
01.12.2017 05:38 -2,0 C 4,4 C 95 % 1010,0 hPa 0,0 l/m 5,8 km/h (2 Bft) O 96 0 min 0,000 mm 0,0 UV-I 0 W/m -2,7 C -2,0 C 6,4 km/h (2 Bft) 100,00 %
01.12.2017 05:40 -2,1 C 4,4 C 95 % 1010,0 hPa 0,0 l/m 2,7 km/h (1 Bft) O 96 0 min 0,000 mm 0,0 UV-I 0 W/m -2,8 C -2,1 C 4,8 km/h (1 Bft) 97,87 %
01.12.2017 05:42 -2,2 C 4,4 C 96 % 1010,1 hPa 0,0 l/m 1,6 km/h (1 Bft) O 96 0 min 0,000 mm 0,0 UV-I 0 W/m -2,7 C -2,2 C 4,8 km/h (1 Bft) 97,87 %
01.12.2017 05:44 -2,2 C 4,4 C 96 % 1010,2 hPa 0,0 l/m 0,8 km/h (0 Bft) O 96 0 min 0,000 mm 0,0 UV-I 0 W/m -2,7 C -2,2 C 3,2 km/h (1 Bft) 100,00 %
01.12.2017 05:46 -2,1 C 4,4 C 96 % 1010,2 hPa 0,0 l/m 1,7 km/h (1 Bft) O 96 0 min 0,000 mm 0,0 UV-I 0 W/m -2,6 C -2,1 C 3,2 km/h (1 Bft) 100,00 %
01.12.2017 05:48 -2,2 C 4,4 C 96 % 1010,3 hPa 0,0 l/m 2,0 km/h (1 Bft) O 96 0 min 0,000 mm 0,0 UV-I 0 W/m -2,7 C -2,2 C 3,2 km/h (1 Bft) 100,00 %
01.12.2017 05:50 -2,2 C 4,4 C 96 % 1010,3 hPa 0,0 l/m 2,3 km/h (1 Bft) N 9 0 min 0,000 mm 0,0 UV-I 0 W/m -2,7 C -2,2 C 4,8 km/h (1 Bft) 98,00 %
01.12.2017 05:52 -2,3 C 4,4 C 96 % 1010,4 hPa 0,0 l/m 2,3 km/h (1 Bft) N 9 0 min 0,000 mm 0,0 UV-I 0 W/m -2,8 C -2,3 C 3,2 km/h (1 Bft) 100,00 %
01.12.2017 05:54 -2,4 C 4,4 C 96 % 1010,4 hPa 0,0 l/m 2,8 km/h (1 Bft) N 355 0 min 0,000 mm 0,0 UV-I 0 W/m -2,9 C -2,4 C 4,8 km/h (1 Bft) 100,00 %
01.12.2017 05:56 -2,4 C 4,4 C 96 % 1010,3 hPa 0,0 l/m 1,8 km/h (1 Bft) N 355 0 min 0,000 mm 0,0 UV-I 0 W/m -2,9 C -2,4 C 3,2 km/h (1 Bft) 100,00 %
01.12.2017 05:58 -2,3 C 4,4 C 96 % 1010,3 hPa 0,0 l/m 0,3 km/h (0 Bft) N 355 0 min 0,000 mm 0,0 UV-I 0 W/m -2,8 C -2,3 C 1,6 km/h (1 Bft) 100,00 %
01.12.2017 06:00 -2,4 C 4,4 C 96 % 1010,3 hPa 0,0 l/m 0,0 km/h (0 Bft) N 355 0 min 0,000 mm 0,0 UV-I 0 W/m -2,9 C -2,4 C 0,0 km/h (0 Bft) 95,74 %
01.12.2017 06:02 -2,4 C 4,4 C 96 % 1010,4 hPa 0,0 l/m 0,0 km/h (0 Bft) N 355 0 min 0,000 mm 0,0 UV-I 0 W/m -2,9 C -2,4 C 0,0 km/h (0 Bft) 100,00 %
01.12.2017 06:04 -2,6 C 4,4 C 96 % 1010,4 hPa 0,0 l/m 0,0 km/h (0 Bft) N 355 0 min 0,000 mm 0,0 UV-I 0 W/m -3,1 C -2,6 C 0,0 km/h (0 Bft) 100,00 %
01.12.2017 06:06 -2,7 C 4,4 C 96 % 1010,4 hPa 0,0 l/m 0,0 km/h (0 Bft) N 355 0 min 0,000 mm 0,0 UV-I 0 W/m -3,2 C -2,7 C 0,0 km/h (0 Bft) 100,00 %
01.12.2017 06:08 -2,7 C 4,4 C 96 % 1010,4 hPa 0,0 l/m 0,0 km/h (0 Bft) N 355 0 min 0,000 mm 0,0 UV-I 0 W/m -3,2 C -2,7 C 0,0 km/h (0 Bft) 97,87 %
01.12.2017 06:10 -2,7 C 4,4 C 96 % 1010,4 hPa 0,0 l/m 0,5 km/h (0 Bft) N 355 0 min 0,000 mm 0,0 UV-I 0 W/m -3,2 C -2,7 C 3,2 km/h (1 Bft) 100,00 %
01.12.2017 06:12 -2,7 C 4,4 C 96 % 1010,4 hPa 0,0 l/m 1,6 km/h (1 Bft) N 355 0 min 0,000 mm 0,0 UV-I 0 W/m -3,2 C -2,7 C 3,2 km/h (1 Bft) 100,00 %
01.12.2017 06:14 -2,8 C 4,4 C 96 % 1010,4 hPa 0,0 l/m 1,3 km/h (1 Bft) N 355 0 min 0,000 mm 0,0 UV-I 0 W/m -3,3 C -2,8 C 1,6 km/h (1 Bft) 97,87 %
01.12.2017 06:16 -2,9 C 4,4 C 96 % 1010,4 hPa 0,0 l/m 0,2 km/h (0 Bft) N 355 0 min 0,000 mm 0,0 UV-I 0 W/m -3,4 C -2,9 C 1,6 km/h (1 Bft) 95,74 %
01.12.2017 06:18 -2,8 C 4,4 C 96 % 1010,4 hPa 0,0 l/m 0,0 km/h (0 Bft) N 355 0 min 0,000 mm 0,0 UV-I 0 W/m -3,3 C -2,8 C 0,0 km/h (0 Bft) 93,62 %
01.12.2017 06:20 -2,7 C 4,4 C 97 % 1010,4 hPa 0,0 l/m 0,4 km/h (0 Bft) N 355 0 min 0,000 mm 0,0 UV-I 0 W/m -3,1 C -2,7 C 3,2 km/h (1 Bft) 94,44 %
01.12.2017 06:22 -2,7 C 4,4 C 97 % 1010,4 hPa 0,0 l/m 0,0 km/h (0 Bft) N 355 0 min 0,000 mm 0,0 UV-I 0 W/m -3,1 C -2,7 C 0,0 km/h (0 Bft) 94,00 %
01.12.2017 06:24 -2,7 C 4,4 C 97 % 1010,4 hPa 0,0 l/m 1,0 km/h (0 Bft) N 355 0 min 0,000 mm 0,0 UV-I 0 W/m -3,1 C -2,7 C 3,2 km/h (1 Bft) 96,00 %
01.12.2017 06:26 -2,7 C 4,4 C 97 % 1010,4 hPa 0,0 l/m 4,9 km/h (1 Bft) O-SO 113 0 min 0,000 mm 0,0 UV-I 0 W/m -3,1 C -2,7 C 6,4 km/h (2 Bft) 94,00 %
01.12.2017 06:28 -2,7 C 4,4 C 97 % 1010,5 hPa 0,0 l/m 3,6 km/h (1 Bft) O-SO 123 0 min 0,000 mm 0,0 UV-I 0 W/m -3,1 C -2,7 C 6,4 km/h (2 Bft) 93,62 %
01.12.2017 06:30 -2,7 C 4,4 C 97 % 1010,5 hPa 0,0 l/m 2,4 km/h (1 Bft) O-SO 123 0 min 0,000 mm 0,0 UV-I 0 W/m -3,1 C -2,7 C 3,2 km/h (1 Bft) 97,87 %
01.12.2017 06:32 -2,7 C 4,4 C 97 % 1010,6 hPa 0,0 l/m 2,8 km/h (1 Bft) O-SO 123 0 min 0,000 mm 0,0 UV-I 0 W/m -3,1 C -2,7 C 4,8 km/h (1 Bft) 97,87 %
01.12.2017 06:34 -2,6 C 4,4 C 97 % 1010,6 hPa 0,0 l/m 2,3 km/h (1 Bft) O-SO 123 0 min 0,000 mm 0,0 UV-I 0 W/m -3,0 C -2,6 C 4,8 km/h (1 Bft) 97,87 %
01.12.2017 06:36 -2,7 C 4,4 C 97 % 1010,7 hPa 0,0 l/m 0,9 km/h (0 Bft) O-SO 123 0 min 0,000 mm 0,0 UV-I 0 W/m -3,1 C -2,7 C 3,2 km/h (1 Bft) 97,87 %
01.12.2017 06:38 -2,6 C 4,4 C 97 % 1010,7 hPa 0,0 l/m 1,4 km/h (1 Bft) O-SO 123 0 min 0,000 mm 0,0 UV-I 0 W/m -3,0 C -2,6 C 3,2 km/h (1 Bft) 97,44 %
01.12.2017 06:40 -2,6 C 4,4 C 97 % 1010,6 hPa 0,0 l/m 0,4 km/h (0 Bft) O-SO 123 0 min 0,000 mm 0,0 UV-I 0 W/m -3,0 C -2,6 C 1,6 km/h (1 Bft) 98,11 %
01.12.2017 06:42 -2,5 C 4,4 C 97 % 1010,6 hPa 0,0 l/m 0,0 km/h (0 Bft) O-SO 123 0 min 0,000 mm 0,0 UV-I 0 W/m -2,9 C -2,5 C 0,0 km/h (0 Bft) 95,74 %
01.12.2017 06:44 -2,4 C 4,4 C 97 % 1010,6 hPa 0,0 l/m 0,3 km/h (0 Bft) O-SO 123 0 min 0,000 mm 0,0 UV-I 0 W/m -2,8 C -2,4 C 3,2 km/h (1 Bft) 100,00 %
01.12.2017 06:46 -2,4 C 4,4 C 97 % 1010,7 hPa 0,0 l/m 1,7 km/h (1 Bft) O-SO 123 0 min 0,000 mm 0,0 UV-I 0 W/m -2,8 C -2,4 C 3,2 km/h (1 Bft) 95,74 %
01.12.2017 06:48 -2,4 C 4,4 C 97 % 1010,7 hPa 0,0 l/m 0,5 km/h (0 Bft) O-SO 123 0 min 0,000 mm 0,0 UV-I 0 W/m -2,8 C -2,4 C 1,6 km/h (1 Bft) 97,37 %
01.12.2017 06:50 -2,5 C 4,4 C 97 % 1010,7 hPa 0,0 l/m 0,0 km/h (0 Bft) O-SO 123 0 min 0,000 mm 0,0 UV-I 0 W/m -2,9 C -2,5 C 0,0 km/h (0 Bft) 96,00 %
01.12.2017 06:52 -2,6 C 4,4 C 96 % 1010,8 hPa 0,0 l/m 0,0 km/h (0 Bft) O-SO 123 0 min 0,000 mm 0,0 UV-I 0 W/m -3,1 C -2,6 C 0,0 km/h (0 Bft) 97,87 %
01.12.2017 06:54 -2,6 C 4,4 C 96 % 1010,8 hPa 0,0 l/m 0,0 km/h (0 Bft) O-SO 123 0 min 0,000 mm 0,0 UV-I 0 W/m -3,1 C -2,6 C 0,0 km/h (0 Bft) 98,00 %
01.12.2017 06:56 -2,6 C 4,4 C 97 % 1010,8 hPa 0,0 l/m 1,1 km/h (1 Bft) O-SO 123 0 min 0,000 mm 0,0 UV-I 0 W/m -3,0 C -2,6 C 3,2 km/h (1 Bft) 97,87 %
01.12.2017 06:58 -2,6 C 4,4 C 97 % 1010,8 hPa 0,0 l/m 3,9 km/h (1 Bft) O-SO 120 0 min 0,000 mm 0,0 UV-I 0 W/m -3,0 C -2,6 C 4,8 km/h (1 Bft) 98,00 %
01.12.2017 07:00 -2,4 C 4,4 C 97 % 1010,8 hPa 0,0 l/m 3,9 km/h (1 Bft) O-SO 120 0 min 0,000 mm 0,0 UV-I 0 W/m -2,8 C -2,4 C 4,8 km/h (1 Bft) 97,87 %
01.12.2017 07:02 -2,4 C 4,4 C 97 % 1010,9 hPa 0,0 l/m 3,1 km/h (1 Bft) O-SO 120 0 min 0,000 mm 0,0 UV-I 0 W/m -2,8 C -2,4 C 4,8 km/h (1 Bft) 95,74 %
01.12.2017 07:04 -2,5 C 4,4 C 97 % 1010,8 hPa 0,0 l/m 2,8 km/h (1 Bft) O-SO 120 0 min 0,000 mm 0,0 UV-I 0 W/m -2,9 C -2,5 C 4,8 km/h (1 Bft) 100,00 %
01.12.2017 07:06 -2,6 C 4,4 C 97 % 1010,9 hPa 0,0 l/m 1,7 km/h (1 Bft) O-SO 120 0 min 0,000 mm 0,0 UV-I 0 W/m -3,0 C -2,6 C 3,2 km/h (1 Bft) 97,92 %
01.12.2017 07:08 -2,7 C 4,4 C 96 % 1010,9 hPa 0,0 l/m 0,5 km/h (0 Bft) O-SO 120 0 min 0,000 mm 0,0 UV-I 0 W/m -3,2 C -2,7 C 3,2 km/h (1 Bft) 95,74 %
01.12.2017 07:10 -2,7 C 4,4 C 96 % 1011,0 hPa 0,0 l/m 0,1 km/h (0 Bft) O-SO 120 0 min 0,000 mm 0,0 UV-I 0 W/m -3,2 C -2,7 C 1,6 km/h (1 Bft) 93,62 %
01.12.2017 07:12 -2,8 C 4,4 C 96 % 1011,0 hPa 0,0 l/m 0,4 km/h (0 Bft) O-SO 120 0 min 0,000 mm 0,0 UV-I 0 W/m -3,3 C -2,8 C 1,6 km/h (1 Bft) 95,83 %
01.12.2017 07:14 -2,9 C 4,4 C 96 % 1011,0 hPa 0,0 l/m 1,7 km/h (1 Bft) O-SO 120 0 min 0,000 mm 0,0 UV-I 0 W/m -3,4 C -2,9 C 3,2 km/h (1 Bft) 97,87 %
01.12.2017 07:16 -2,9 C 4,4 C 96 % 1011,0 hPa 0,0 l/m 2,3 km/h (1 Bft) O-SO 120 0 min 0,000 mm 0,0 UV-I 0 W/m -3,4 C -2,9 C 3,2 km/h (1 Bft) 97,92 %
01.12.2017 07:18 -2,8 C 4,4 C 96 % 1011,1 hPa 0,0 l/m 2,1 km/h (1 Bft) O-SO 120 0 min 0,000 mm 0,0 UV-I 0 W/m -3,3 C -2,8 C 3,2 km/h (1 Bft) 97,92 %
01.12.2017 07:20 -2,9 C 4,4 C 96 % 1011,1 hPa 0,0 l/m 2,2 km/h (1 Bft) O-SO 120 0 min 0,000 mm 0,0 UV-I 5 W/m -3,4 C -2,9 C 3,2 km/h (1 Bft) 97,87 %
01.12.2017 07:22 -2,8 C 4,4 C 97 % 1011,1 hPa 0,0 l/m 3,7 km/h (1 Bft) O-SO 120 0 min 0,000 mm 0,0 UV-I 5 W/m -3,2 C -2,8 C 6,4 km/h (2 Bft) 95,74 %
01.12.2017 07:24 -2,8 C 4,4 C 97 % 1011,1 hPa 0,0 l/m 2,8 km/h (1 Bft) O-SO 120 0 min 0,000 mm 0,0 UV-I 5 W/m -3,2 C -2,8 C 6,4 km/h (2 Bft) 95,74 %
01.12.2017 07:26 -2,9 C 4,4 C 96 % 1011,2 hPa 0,0 l/m 2,0 km/h (1 Bft) O-SO 120 0 min 0,000 mm 0,0 UV-I 5 W/m -3,4 C -2,9 C 3,2 km/h (1 Bft) 94,12 %
01.12.2017 07:28 -3,1 C 4,4 C 96 % 1011,2 hPa 0,0 l/m 2,4 km/h (1 Bft) O-SO 120 0 min 0,000 mm 0,0 UV-I 6 W/m -3,6 C -3,1 C 4,8 km/h (1 Bft) 95,74 %
01.12.2017 07:30 -3,1 C 4,4 C 96 % 1011,2 hPa 0,0 l/m 3,9 km/h (1 Bft) O-SO 120 0 min 0,000 mm 0,0 UV-I 7 W/m -3,6 C -3,1 C 6,4 km/h (2 Bft) 95,74 %
01.12.2017 07:32 -3,1 C 4,4 C 96 % 1011,2 hPa 0,0 l/m 3,3 km/h (1 Bft) O-SO 120 0 min 0,000 mm 0,0 UV-I 7 W/m -3,6 C -3,1 C 6,4 km/h (2 Bft) 97,92 %
01.12.2017 07:34 -2,9 C 4,4 C 97 % 1011,2 hPa 0,0 l/m 2,5 km/h (1 Bft) O-SO 120 0 min 0,000 mm 0,0 UV-I 7 W/m -3,3 C -2,9 C 4,8 km/h (1 Bft) 97,87 %
01.12.2017 07:36 -2,9 C 4,4 C 97 % 1011,3 hPa 0,0 l/m 1,6 km/h (1 Bft) O-SO 120 0 min 0,000 mm 0,0 UV-I 7 W/m -3,3 C -2,9 C 3,2 km/h (1 Bft) 97,87 %
01.12.2017 07:38 -2,8 C 4,4 C 97 % 1011,4 hPa 0,0 l/m 3,6 km/h (1 Bft) SO 140 0 min 0,000 mm 0,0 UV-I 9 W/m -3,2 C -2,8 C 6,4 km/h (2 Bft) 92,11 %
01.12.2017 07:40 -2,7 C 4,4 C 97 % 1011,4 hPa 0,0 l/m 5,5 km/h (1 Bft) SO 139 0 min 0,000 mm 0,0 UV-I 9 W/m -3,1 C -2,7 C 9,7 km/h (2 Bft) 95,74 %
01.12.2017 07:42 -2,3 C 4,4 C 97 % 1011,4 hPa 0,0 l/m 2,9 km/h (1 Bft) S-SO 156 0 min 0,000 mm 0,0 UV-I 11 W/m -2,7 C -2,3 C 6,4 km/h (2 Bft) 98,00 %
01.12.2017 07:44 -2,1 C 4,4 C 97 % 1011,4 hPa 0,0 l/m 0,8 km/h (0 Bft) S-SO 156 0 min 0,000 mm 0,0 UV-I 11 W/m -2,5 C -2,1 C 1,6 km/h (1 Bft) 97,87 %
01.12.2017 07:46 -2,0 C 4,4 C 97 % 1011,4 hPa 0,0 l/m 0,3 km/h (0 Bft) S-SO 156 2 min 0,000 mm 0,0 UV-I 11 W/m -2,4 C -2,0 C 1,6 km/h (1 Bft) 100,00 %
01.12.2017 07:48 -1,9 C 4,4 C 96 % 1011,4 hPa 0,0 l/m 1,2 km/h (1 Bft) S-SO 156 0 min 0,000 mm 0,0 UV-I 11 W/m -2,5 C -1,9 C 3,2 km/h (1 Bft) 100,00 %
01.12.2017 07:50 -1,9 C 4,4 C 96 % 1011,5 hPa 0,0 l/m 2,2 km/h (1 Bft) S-SO 156 0 min 0,000 mm 0,0 UV-I 12 W/m -2,5 C -1,9 C 3,2 km/h (1 Bft) 100,00 %
01.12.2017 07:52 -1,9 C 4,4 C 96 % 1011,5 hPa 0,0 l/m 0,7 km/h (0 Bft) S-SO 156 0 min 0,000 mm 0,0 UV-I 12 W/m -2,5 C -1,9 C 3,2 km/h (1 Bft) 95,74 %
01.12.2017 07:54 -1,9 C 4,4 C 95 % 1011,5 hPa 0,0 l/m 0,5 km/h (0 Bft) S-SO 156 0 min 0,000 mm 0,0 UV-I 14 W/m -2,6 C -1,9 C 1,6 km/h (1 Bft) 100,00 %
01.12.2017 07:56 -2,1 C 4,4 C 95 % 1011,5 hPa 0,0 l/m 2,5 km/h (1 Bft) S-SO 156 0 min 0,000 mm 0,0 UV-I 18 W/m -2,8 C -2,1 C 4,8 km/h (1 Bft) 97,87 %
01.12.2017 07:58 -2,2 C 4,4 C 95 % 1011,6 hPa 0,0 l/m 2,9 km/h (1 Bft) S-SO 156 0 min 0,000 mm 0,0 UV-I 21 W/m -2,9 C -2,2 C 4,8 km/h (1 Bft) 97,22 %
01.12.2017 08:00 -2,3 C 4,4 C 95 % 1011,6 hPa 0,0 l/m 3,3 km/h (1 Bft) S-SO 156 0 min 0,000 mm 0,0 UV-I 22 W/m -3,0 C -2,3 C 4,8 km/h (1 Bft) 100,00 %
01.12.2017 08:02 -2,3 C 4,4 C 95 % 1011,6 hPa 0,0 l/m 2,4 km/h (1 Bft) S-SO 156 0 min 0,000 mm 0,0 UV-I 22 W/m -3,0 C -2,3 C 4,8 km/h (1 Bft) 96,00 %
01.12.2017 08:04 -2,2 C 4,4 C 96 % 1011,6 hPa 0,0 l/m 2,2 km/h (1 Bft) S-SO 156 0 min 0,000 mm 0,0 UV-I 20 W/m -2,7 C -2,2 C 4,8 km/h (1 Bft) 100,00 %
01.12.2017 08:06 -2,1 C 4,4 C 96 % 1011,6 hPa 0,0 l/m 0,8 km/h (0 Bft) S-SO 156 0 min 0,000 mm 0,0 UV-I 19 W/m -2,6 C -2,1 C 1,6 km/h (1 Bft) 95,74 %
01.12.2017 08:08 -2,1 C 4,4 C 96 % 1011,6 hPa 0,0 l/m 1,2 km/h (1 Bft) S-SO 156 0 min 0,000 mm 0,0 UV-I 20 W/m -2,6 C -2,1 C 3,2 km/h (1 Bft) 97,87 %
01.12.2017 08:10 -2,2 C 4,4 C 95 % 1011,6 hPa 0,0 l/m 2,8 km/h (1 Bft) S-SO 156 0 min 0,000 mm 0,0 UV-I 29 W/m -2,9 C -2,2 C 4,8 km/h (1 Bft) 100,00 %
01.12.2017 08:12 -2,2 C 4,4 C 95 % 1011,7 hPa 0,0 l/m 2,8 km/h (1 Bft) S-SO 156 0 min 0,000 mm 0,0 UV-I 30 W/m -2,9 C -2,2 C 3,2 km/h (1 Bft) 100,00 %
01.12.2017 08:14 -2,2 C 4,4 C 96 % 1011,6 hPa 0,0 l/m 3,7 km/h (1 Bft) S-SO 156 0 min 0,000 mm 0,0 UV-I 22 W/m -2,7 C -2,2 C 4,8 km/h (1 Bft) 100,00 %
01.12.2017 08:16 -2,3 C 4,4 C 95 % 1011,6 hPa 0,0 l/m 3,3 km/h (1 Bft) S-SO 156 0 min 0,000 mm 0,0 UV-I 26 W/m -3,0 C -2,3 C 4,8 km/h (1 Bft) 97,87 %
01.12.2017 08:18 -2,3 C 4,4 C 95 % 1011,7 hPa 0,0 l/m 2,5 km/h (1 Bft) S-SO 156 0 min 0,000 mm 0,0 UV-I 33 W/m -3,0 C -2,3 C 3,2 km/h (1 Bft) 97,87 %
01.12.2017 08:20 -2,3 C 4,4 C 96 % 1011,7 hPa 0,0 l/m 2,5 km/h (1 Bft) S-SO 156 0 min 0,000 mm 0,0 UV-I 25 W/m -2,8 C -2,3 C 4,8 km/h (1 Bft) 100,00 %
01.12.2017 08:22 -2,3 C 4,4 C 96 % 1011,7 hPa 0,0 l/m 4,1 km/h (1 Bft) S-SO 156 0 min 0,000 mm 0,0 UV-I 29 W/m -2,8 C -2,3 C 8,0 km/h (2 Bft) 97,87 %
01.12.2017 08:24 -2,3 C 4,4 C 95 % 1011,7 hPa 0,0 l/m 3,4 km/h (1 Bft) S-SO 156 0 min 0,000 mm 0,0 UV-I 26 W/m -3,0 C -2,3 C 4,8 km/h (1 Bft) 93,62 %
01.12.2017 08:26 -2,4 C 4,4 C 95 % 1011,7 hPa 0,0 l/m 2,4 km/h (1 Bft) S-SO 156 0 min 0,000 mm 0,0 UV-I 32 W/m -3,1 C -2,4 C 3,2 km/h (1 Bft) 95,74 %
01.12.2017 08:28 -2,3 C 4,4 C 96 % 1011,8 hPa 0,0 l/m 1,3 km/h (1 Bft) S-SO 156 0 min 0,000 mm 0,0 UV-I 45 W/m -2,8 C -2,3 C 3,2 km/h (1 Bft) 95,74 %
01.12.2017 08:30 -2,3 C 4,4 C 96 % 1011,8 hPa 0,0 l/m 0,2 km/h (0 Bft) S-SO 156 0 min 0,000 mm 0,0 UV-I 34 W/m -2,8 C -2,3 C 1,6 km/h (1 Bft) 95,74 %
01.12.2017 08:32 -2,4 C 4,4 C 96 % 1011,8 hPa 0,0 l/m 0,0 km/h (0 Bft) S-SO 156 0 min 0,000 mm 0,0 UV-I 42 W/m -2,9 C -2,4 C 0,0 km/h (0 Bft) 95,74 %
01.12.2017 08:34 -2,4 C 4,4 C 95 % 1011,8 hPa 0,0 l/m 0,0 km/h (0 Bft) S-SO 156 0 min 0,000 mm 0,0 UV-I 48 W/m -3,1 C -2,4 C 1,6 km/h (1 Bft) 98,00 %
01.12.2017 08:36 -2,5 C 4,4 C 96 % 1011,8 hPa 0,0 l/m 0,0 km/h (0 Bft) S-SO 156 0 min 0,000 mm 0,0 UV-I 55 W/m -3,0 C -2,5 C 0,0 km/h (0 Bft) 93,75 %
01.12.2017 08:38 -2,6 C 4,4 C 95 % 1011,8 hPa 0,0 l/m 0,0 km/h (0 Bft) S-SO 156 0 min 0,000 mm 0,0 UV-I 29 W/m -3,3 C -2,6 C 0,0 km/h (0 Bft) 97,87 %
01.12.2017 08:40 -2,7 C 4,4 C 95 % 1011,9 hPa 0,0 l/m 0,0 km/h (0 Bft) S-SO 156 0 min 0,000 mm 0,0 UV-I 30 W/m -3,4 C -2,7 C 1,6 km/h (1 Bft) 97,87 %
01.12.2017 08:42 -2,7 C 4,4 C 96 % 1012,0 hPa 0,0 l/m 3,4 km/h (1 Bft) S-SO 156 0 min 0,000 mm 0,0 UV-I 31 W/m -3,2 C -2,7 C 4,8 km/h (1 Bft) 95,74 %
01.12.2017 08:44 -2,9 C 4,4 C 96 % 1011,9 hPa 0,0 l/m 2,5 km/h (1 Bft) S-SO 156 0 min 0,000 mm 0,0 UV-I 33 W/m -3,4 C -2,9 C 4,8 km/h (1 Bft) 97,87 %
01.12.2017 08:46 -2,8 C 4,4 C 96 % 1012,0 hPa 0,0 l/m 0,0 km/h (0 Bft) S-SO 156 0 min 0,000 mm 0,0 UV-I 34 W/m -3,3 C -2,8 C 0,0 km/h (0 Bft) 97,87 %
01.12.2017 08:48 -2,8 C 4,4 C 96 % 1012,0 hPa 0,0 l/m 0,4 km/h (0 Bft) S-SO 156 0 min 0,000 mm 0,0 UV-I 37 W/m -3,3 C -2,8 C 4,8 km/h (1 Bft) 95,74 %
01.12.2017 08:50 -2,8 C 4,4 C 96 % 1012,0 hPa 0,0 l/m 1,0 km/h (0 Bft) S-SO 156 0 min 0,000 mm 0,0 UV-I 39 W/m -3,3 C -2,8 C 3,2 km/h (1 Bft) 97,87 %
01.12.2017 08:52 -2,7 C 4,4 C 96 % 1011,9 hPa 0,0 l/m 0,0 km/h (0 Bft) S-SO 156 0 min 0,000 mm 0,0 UV-I 40 W/m -3,2 C -2,7 C 0,0 km/h (0 Bft) 97,87 %
01.12.2017 08:54 -2,7 C 4,4 C 96 % 1011,9 hPa 0,0 l/m 0,0 km/h (0 Bft) S-SO 156 0 min 0,000 mm 0,0 UV-I 40 W/m -3,2 C -2,7 C 0,0 km/h (0 Bft) 97,87 %
01.12.2017 08:56 -2,7 C 4,4 C 96 % 1012,0 hPa 0,0 l/m 0,0 km/h (0 Bft) S-SO 156 0 min 0,000 mm 0,0 UV-I 41 W/m -3,2 C -2,7 C 0,0 km/h (0 Bft) 100,00 %
01.12.2017 08:58 -2,7 C 4,4 C 96 % 1012,0 hPa 0,0 l/m 0,0 km/h (0 Bft) S-SO 156 0 min 0,000 mm 0,0 UV-I 42 W/m -3,2 C -2,7 C 0,0 km/h (0 Bft) 95,74 %
01.12.2017 09:00 -2,7 C 4,4 C 96 % 1012,1 hPa 0,0 l/m 0,0 km/h (0 Bft) S-SO 156 0 min 0,000 mm 0,0 UV-I 45 W/m -3,2 C -2,7 C 0,0 km/h (0 Bft) 100,00 %
01.12.2017 09:02 -2,6 C 4,4 C 96 % 1012,1 hPa 0,0 l/m 0,0 km/h (0 Bft) S-SO 156 0 min 0,000 mm 0,0 UV-I 46 W/m -3,1 C -2,6 C 0,0 km/h (0 Bft) 100,00 %
01.12.2017 09:04 -2,6 C 4,4 C 96 % 1012,1 hPa 0,0 l/m 0,0 km/h (0 Bft) S-SO 156 0 min 0,000 mm 0,0 UV-I 48 W/m -3,1 C -2,6 C 0,0 km/h (0 Bft) 97,87 %
01.12.2017 09:06 -2,6 C 4,4 C 96 % 1012,2 hPa 0,0 l/m 0,1 km/h (0 Bft) S-SO 156 0 min 0,000 mm 0,0 UV-I 42 W/m -3,1 C -2,6 C 1,6 km/h (1 Bft) 97,87 %
01.12.2017 09:08 -2,6 C 4,4 C 96 % 1012,2 hPa 0,0 l/m 1,9 km/h (1 Bft) S-SO 156 0 min 0,000 mm 0,0 UV-I 42 W/m -3,1 C -2,6 C 3,2 km/h (1 Bft) 96,00 %
01.12.2017 09:10 -2,8 C 4,4 C 96 % 1012,2 hPa 0,0 l/m 0,9 km/h (0 Bft) S-SO 156 0 min 0,000 mm 0,0 UV-I 44 W/m -3,3 C -2,8 C 3,2 km/h (1 Bft) 97,87 %
01.12.2017 09:12 -2,8 C 4,4 C 96 % 1012,2 hPa 0,0 l/m 1,0 km/h (0 Bft) S-SO 156 0 min 0,000 mm 0,0 UV-I 44 W/m -3,3 C -2,8 C 3,2 km/h (1 Bft) 100,00 %
01.12.2017 09:14 -2,9 C 4,4 C 96 % 1012,2 hPa 0,0 l/m 2,6 km/h (1 Bft) S-SO 156 0 min 0,000 mm 0,0 UV-I 46 W/m -3,4 C -2,9 C 3,2 km/h (1 Bft) 97,92 %
01.12.2017 09:16 -3,1 C 4,4 C 96 % 1012,2 hPa 0,0 l/m 2,3 km/h (1 Bft) S-SO 156 0 min 0,000 mm 0,0 UV-I 47 W/m -3,6 C -3,1 C 3,2 km/h (1 Bft) 100,00 %
01.12.2017 09:18 -3,0 C 4,4 C 96 % 1012,3 hPa 0,0 l/m 1,5 km/h (1 Bft) S-SO 156 0 min 0,000 mm 0,0 UV-I 50 W/m -3,5 C -3,0 C 1,6 km/h (1 Bft) 100,00 %
01.12.2017 09:20 -2,9 C 4,4 C 96 % 1012,3 hPa 0,0 l/m 0,6 km/h (0 Bft) S-SO 156 0 min 0,000 mm 0,0 UV-I 45 W/m -3,4 C -2,9 C 1,6 km/h (1 Bft) 95,74 %
01.12.2017 09:22 -2,8 C 4,4 C 96 % 1012,3 hPa 0,0 l/m 0,2 km/h (0 Bft) S-SO 156 0 min 0,000 mm 0,0 UV-I 45 W/m -3,3 C -2,8 C 1,6 km/h (1 Bft) 100,00 %
01.12.2017 09:24 -2,9 C 4,4 C 96 % 1012,4 hPa 0,0 l/m 0,0 km/h (0 Bft) S-SO 156 0 min 0,000 mm 0,0 UV-I 65 W/m -3,4 C -2,9 C 0,0 km/h (0 Bft) 97,87 %
01.12.2017 09:26 -2,9 C 4,4 C 96 % 1012,4 hPa 0,0 l/m 0,0 km/h (0 Bft) S-SO 156 0 min 0,000 mm 0,0 UV-I 56 W/m -3,4 C -2,9 C 0,0 km/h (0 Bft) 100,00 %
01.12.2017 09:28 -2,8 C 4,4 C 96 % 1012,4 hPa 0,0 l/m 0,0 km/h (0 Bft) S-SO 156 0 min 0,000 mm 0,0 UV-I 62 W/m -3,3 C -2,8 C 0,0 km/h (0 Bft) 100,00 %
01.12.2017 09:30 -2,7 C 4,4 C 97 % 1012,5 hPa 0,0 l/m 0,0 km/h (0 Bft) S-SO 156 0 min 0,000 mm 0,0 UV-I 55 W/m -3,1 C -2,7 C 0,0 km/h (0 Bft) 100,00 %
01.12.2017 09:32 -2,5 C 4,4 C 97 % 1012,5 hPa 0,0 l/m 0,0 km/h (0 Bft) S-SO 156 0 min 0,000 mm 0,0 UV-I 55 W/m -2,9 C -2,5 C 0,0 km/h (0 Bft) 100,00 %
01.12.2017 09:34 -2,4 C 4,4 C 97 % 1012,5 hPa 0,0 l/m 0,1 km/h (0 Bft) S-SO 156 0 min 0,000 mm 0,0 UV-I 67 W/m -2,8 C -2,4 C 1,6 km/h (1 Bft) 100,00 %
01.12.2017 09:36 -2,4 C 4,4 C 97 % 1012,6 hPa 0,0 l/m 0,0 km/h (0 Bft) S-SO 156 2 min 0,000 mm 0,0 UV-I 136 W/m -2,8 C -2,4 C 0,0 km/h (0 Bft) 100,00 %
01.12.2017 09:38 -2,4 C 4,4 C 96 % 1012,6 hPa 0,0 l/m 0,0 km/h (0 Bft) S-SO 156 0 min 0,000 mm 0,0 UV-I 112 W/m -2,9 C -2,4 C 0,0 km/h (0 Bft) 97,87 %
01.12.2017 09:40 -2,7 C 4,4 C 96 % 1012,6 hPa 0,0 l/m 0,4 km/h (0 Bft) S-SO 154 2 min 0,000 mm 0,0 UV-I 140 W/m -3,2 C -2,7 C 3,2 km/h (1 Bft) 97,87 %
01.12.2017 09:42 -2,7 C 4,4 C 96 % 1012,6 hPa 0,0 l/m 4,8 km/h (1 Bft) NO 43 2 min 0,000 mm 0,0 UV-I 192 W/m -3,2 C -2,7 C 6,4 km/h (2 Bft) 100,00 %
01.12.2017 09:44 -2,7 C 4,4 C 96 % 1012,7 hPa 0,0 l/m 3,5 km/h (1 Bft) NO 43 2 min 0,000 mm 0,0 UV-I 198 W/m -3,2 C -2,7 C 4,8 km/h (1 Bft) 100,00 %
01.12.2017 09:46 -2,6 C 4,4 C 96 % 1012,7 hPa 0,0 l/m 3,9 km/h (1 Bft) NO 43 0 min 0,000 mm 0,0 UV-I 102 W/m -3,1 C -2,6 C 4,8 km/h (1 Bft) 100,00 %
01.12.2017 09:48 -2,6 C 4,4 C 96 % 1012,8 hPa 0,0 l/m 4,1 km/h (1 Bft) NO 43 0 min 0,000 mm 0,0 UV-I 88 W/m -3,1 C -2,6 C 4,8 km/h (1 Bft) 100,00 %
01.12.2017 09:50 -2,7 C 4,4 C 96 % 1012,8 hPa 0,0 l/m 4,9 km/h (1 Bft) NO 45 0 min 0,000 mm 0,0 UV-I 88 W/m -3,2 C -2,7 C 6,4 km/h (2 Bft) 97,87 %
01.12.2017 09:52 -2,5 C 4,4 C 96 % 1012,8 hPa 0,0 l/m 4,8 km/h (1 Bft) NO 46 0 min 0,000 mm 0,0 UV-I 74 W/m -3,0 C -2,5 C 6,4 km/h (2 Bft) 100,00 %
01.12.2017 09:54 -2,4 C 4,4 C 96 % 1012,8 hPa 0,0 l/m 3,6 km/h (1 Bft) NO 46 0 min 0,000 mm 0,0 UV-I 67 W/m -2,9 C -2,4 C 4,8 km/h (1 Bft) 100,00 %
01.12.2017 09:56 -2,4 C 4,4 C 96 % 1012,8 hPa 0,0 l/m 2,6 km/h (1 Bft) NO 46 0 min 0,000 mm 0,0 UV-I 69 W/m -2,9 C -2,4 C 3,2 km/h (1 Bft) 100,00 %
01.12.2017 09:58 -2,4 C 4,4 C 96 % 1012,8 hPa 0,0 l/m 2,3 km/h (1 Bft) NO 46 0 min 0,000 mm 0,0 UV-I 93 W/m -2,9 C -2,4 C 3,2 km/h (1 Bft) 100,00 %
01.12.2017 10:00 -2,4 C 4,4 C 96 % 1012,8 hPa 0,0 l/m 2,7 km/h (1 Bft) NO 46 2 min 0,025 mm 0,0 UV-I 153 W/m -2,9 C -2,4 C 3,2 km/h (1 Bft) 97,22 %
01.12.2017 10:02 -2,4 C 4,4 C 96 % 1012,8 hPa 0,0 l/m 2,3 km/h (1 Bft) NO 46 0 min 0,000 mm 0,0 UV-I 145 W/m -2,9 C -2,4 C 3,2 km/h (1 Bft) 97,37 %
01.12.2017 10:04 -2,3 C 4,4 C 96 % 1012,9 hPa 0,0 l/m 1,0 km/h (0 Bft) NO 46 0 min 0,000 mm 0,0 UV-I 133 W/m -2,8 C -2,3 C 3,2 km/h (1 Bft) 98,39 %
01.12.2017 10:06 -2,2 C 4,4 C 96 % 1012,9 hPa 0,0 l/m 1,6 km/h (1 Bft) NO 46 0 min 0,000 mm 0,0 UV-I 64 W/m -2,7 C -2,2 C 3,2 km/h (1 Bft) 100,00 %
01.12.2017 10:08 -2,2 C 4,4 C 96 % 1012,9 hPa 0,0 l/m 2,1 km/h (1 Bft) NO 46 0 min 0,000 mm 0,0 UV-I 79 W/m -2,7 C -2,2 C 3,2 km/h (1 Bft) 100,00 %
01.12.2017 10:10 -2,1 C 4,4 C 96 % 1012,9 hPa 0,0 l/m 0,7 km/h (0 Bft) NO 46 0 min 0,000 mm 0,0 UV-I 99 W/m -2,6 C -2,1 C 3,2 km/h (1 Bft) 97,87 %
01.12.2017 10:12 -2,1 C 4,4 C 96 % 1012,9 hPa 0,0 l/m 0,5 km/h (0 Bft) NO 46 0 min 0,000 mm 0,0 UV-I 62 W/m -2,6 C -2,1 C 1,6 km/h (1 Bft) 97,87 %
01.12.2017 10:14 -2,1 C 4,4 C 96 % 1012,9 hPa 0,0 l/m 0,0 km/h (0 Bft) NO 46 0 min 0,000 mm 0,0 UV-I 62 W/m -2,6 C -2,1 C 0,0 km/h (0 Bft) 97,87 %
01.12.2017 10:16 -2,2 C 4,4 C 96 % 1012,9 hPa 0,0 l/m 0,0 km/h (0 Bft) NO 46 0 min 0,000 mm 0,0 UV-I 82 W/m -2,7 C -2,2 C 0,0 km/h (0 Bft) 95,74 %
01.12.2017 10:18 -2,1 C 4,4 C 96 % 1013,0 hPa 0,0 l/m 1,5 km/h (1 Bft) NO 46 0 min 0,000 mm 0,0 UV-I 68 W/m -2,6 C -2,1 C 3,2 km/h (1 Bft) 97,87 %
01.12.2017 10:20 -2,1 C 4,4 C 96 % 1013,0 hPa 0,0 l/m 0,6 km/h (0 Bft) NO 46 0 min 0,000 mm 0,0 UV-I 103 W/m -2,6 C -2,1 C 3,2 km/h (1 Bft) 96,00 %
01.12.2017 10:22 -1,9 C 4,4 C 96 % 1012,9 hPa 0,0 l/m 2,3 km/h (1 Bft) NO 46 0 min 0,000 mm 0,0 UV-I 76 W/m -2,5 C -1,9 C 4,8 km/h (1 Bft) 98,00 %
01.12.2017 10:24 -1,9 C 4,4 C 96 % 1012,9 hPa 0,0 l/m 4,5 km/h (1 Bft) O-NO 72 0 min 0,000 mm 0,0 UV-I 65 W/m -2,5 C -1,9 C 6,4 km/h (2 Bft) 97,87 %
01.12.2017 10:26 -1,9 C 4,4 C 96 % 1013,0 hPa 0,0 l/m 5,6 km/h (1 Bft) O-NO 74 0 min 0,000 mm 0,0 UV-I 64 W/m -2,5 C -1,9 C 8,0 km/h (2 Bft) 97,87 %
01.12.2017 10:28 -1,9 C 4,4 C 96 % 1013,0 hPa 0,0 l/m 5,2 km/h (1 Bft) O-NO 74 0 min 0,000 mm 0,0 UV-I 87 W/m -2,5 C -1,9 C 6,4 km/h (2 Bft) 97,14 %
01.12.2017 10:30 -1,9 C 4,4 C 96 % 1013,0 hPa 0,0 l/m 4,0 km/h (1 Bft) O-NO 74 0 min 0,000 mm 0,0 UV-I 163 W/m -2,5 C -1,9 C 4,8 km/h (1 Bft) 95,74 %
01.12.2017 10:32 -1,8 C 4,4 C 96 % 1013,0 hPa 0,0 l/m 3,2 km/h (1 Bft) O-NO 74 2 min 0,000 mm 0,0 UV-I 183 W/m -2,4 C -1,8 C 4,8 km/h (1 Bft) 95,74 %
01.12.2017 10:34 -1,8 C 4,4 C 95 % 1013,0 hPa 0,0 l/m 2,9 km/h (1 Bft) O-NO 74 0 min 0,000 mm 0,0 UV-I 144 W/m -2,5 C -1,8 C 4,8 km/h (1 Bft) 94,00 %
01.12.2017 10:36 -1,7 C 4,4 C 95 % 1013,1 hPa 0,0 l/m 3,7 km/h (1 Bft) O-NO 74 0 min 0,000 mm 0,0 UV-I 96 W/m -2,4 C -1,7 C 4,8 km/h (1 Bft) 93,62 %
01.12.2017 10:38 -1,7 C 4,4 C 95 % 1013,0 hPa 0,0 l/m 4,0 km/h (1 Bft) O-NO 74 2 min 0,000 mm 0,0 UV-I 187 W/m -2,4 C -1,7 C 6,4 km/h (2 Bft) 95,74 %
01.12.2017 10:40 -1,7 C 4,4 C 95 % 1013,0 hPa 0,0 l/m 4,1 km/h (1 Bft) O-NO 74 0 min 0,000 mm 0,0 UV-I 129 W/m -2,4 C -1,7 C 6,4 km/h (2 Bft) 95,74 %
01.12.2017 10:42 -1,8 C 4,4 C 95 % 1013,0 hPa 0,0 l/m 3,9 km/h (1 Bft) O-NO 74 0 min 0,000 mm 0,0 UV-I 114 W/m -2,5 C -1,8 C 4,8 km/h (1 Bft) 96,00 %
01.12.2017 10:44 -1,8 C 4,4 C 95 % 1013,1 hPa 0,0 l/m 3,9 km/h (1 Bft) O-NO 74 0 min 0,000 mm 0,0 UV-I 155 W/m -2,5 C -1,8 C 6,4 km/h (2 Bft) 95,83 %
01.12.2017 10:45 -1,8 C 4,4 C 95 % 1013,1 hPa 0,0 l/m 3,2 km/h (1 Bft) O-NO 67 0 min 0,000 mm 0,0 UV-I 152 W/m -2,5 C -1,8 C 6,4 km/h (2 Bft) 96,49 %
01.12.2017 10:50 -1,8 C 4,4 C 94 % 1013,1 hPa 0,0 l/m 4,8 km/h (1 Bft) O-NO 67 0 min 0,000 mm 0,0 UV-I 110 W/m -2,6 C -1,8 C 6,4 km/h (2 Bft) 95,61 %
01.12.2017 10:55 -1,9 C 4,4 C 95 % 1013,0 hPa 0,0 l/m 4,8 km/h (1 Bft) O-NO 67 0 min 0,000 mm 0,0 UV-I 140 W/m -2,6 C -1,9 C 6,4 km/h (2 Bft) 96,49 %
01.12.2017 11:00 -1,8 C 4,4 C 95 % 1013,0 hPa 0,0 l/m 4,8 km/h (1 Bft) NO 45 5 min 0,051 mm 0,5 UV-I 241 W/m -2,5 C -1,8 C 8,0 km/h (2 Bft) 93,86 %
01.12.2017 11:05 -1,4 C 4,4 C 95 % 1013,1 hPa 0,0 l/m 4,8 km/h (1 Bft) NO 45 5 min 0,000 mm 0,5 UV-I 287 W/m -2,1 C -1,4 C 6,4 km/h (2 Bft) 92,98 %
01.12.2017 11:12 -1,0 C 4,4 C 95 % 1013,0 hPa 0,0 l/m 4,2 km/h (1 Bft) NO 34 7 min 0,000 mm 0,6 UV-I 353 W/m -1,7 C -1,0 C 6,4 km/h (2 Bft) 94,34 %
01.12.2017 11:14 -0,9 C 4,4 C 94 % 1013,1 hPa 0,0 l/m 5,0 km/h (1 Bft) NO 34 2 min 0,000 mm 0,6 UV-I 354 W/m -1,7 C -0,9 C 6,4 km/h (2 Bft) 98,11 %
01.12.2017 11:16 -0,8 C 4,4 C 93 % 1013,1 hPa 0,2 l/m 5,2 km/h (1 Bft) NO 34 2 min 0,000 mm 0,6 UV-I 363 W/m -1,8 C -0,8 C 6,4 km/h (2 Bft) 98,00 %
01.12.2017 11:18 -0,8 C 4,4 C 93 % 1013,2 hPa 0,0 l/m 3,3 km/h (1 Bft) NO 34 2 min 0,000 mm 0,6 UV-I 290 W/m -1,8 C -0,8 C 4,8 km/h (1 Bft) 97,56 %
01.12.2017 11:20 -0,8 C 4,4 C 93 % 1013,2 hPa 0,0 l/m 2,4 km/h (1 Bft) NO 34 2 min 0,000 mm 0,7 UV-I 358 W/m -1,8 C -0,8 C 3,2 km/h (1 Bft) 100,00 %
01.12.2017 11:26 -0,4 C 4,4 C 93 % 1013,1 hPa 0,0 l/m 2,6 km/h (1 Bft) NO 34 6 min 0,000 mm 0,7 UV-I 331 W/m -1,4 C -0,4 C 4,8 km/h (1 Bft) 100,00 %
01.12.2017 11:28 -0,4 C 4,4 C 92 % 1013,1 hPa 0,0 l/m 2,6 km/h (1 Bft) NO 34 2 min 0,000 mm 0,7 UV-I 322 W/m -1,5 C -0,4 C 4,8 km/h (1 Bft) 100,00 %
01.12.2017 11:30 -0,4 C 4,4 C 92 % 1013,0 hPa 0,0 l/m 3,3 km/h (1 Bft) NO 34 2 min 0,000 mm 0,7 UV-I 278 W/m -1,5 C -0,4 C 4,8 km/h (1 Bft) 100,00 %
01.12.2017 11:32 -0,4 C 4,4 C 92 % 1013,0 hPa 0,0 l/m 4,6 km/h (1 Bft) NO 34 2 min 0,000 mm 0,6 UV-I 295 W/m -1,5 C -0,4 C 6,4 km/h (2 Bft) 97,56 %
01.12.2017 11:34 -0,4 C 4,4 C 92 % 1013,0 hPa 0,0 l/m 4,1 km/h (1 Bft) NO 34 2 min 0,000 mm 0,6 UV-I 255 W/m -1,5 C -0,4 C 6,4 km/h (2 Bft) 97,44 %
01.12.2017 11:36 -0,4 C 4,4 C 92 % 1013,0 hPa 0,0 l/m 4,6 km/h (1 Bft) NO 34 2 min 0,000 mm 0,7 UV-I 282 W/m -1,5 C -0,4 C 6,4 km/h (2 Bft) 100,00 %
01.12.2017 11:38 -0,4 C 4,4 C 92 % 1013,0 hPa 0,0 l/m 2,7 km/h (1 Bft) NO 34 2 min 0,000 mm 0,6 UV-I 271 W/m -1,5 C -0,4 C 4,8 km/h (1 Bft) 100,00 %
01.12.2017 11:40 -0,4 C 4,4 C 92 % 1013,1 hPa 0,0 l/m 4,0 km/h (1 Bft) NO 34 2 min 0,000 mm 0,6 UV-I 197 W/m -1,5 C -0,4 C 4,8 km/h (1 Bft) 97,87 %
01.12.2017 11:42 -0,4 C 4,4 C 92 % 1013,1 hPa 0,0 l/m 4,3 km/h (1 Bft) N-NO 31 2 min 0,000 mm 0,7 UV-I 288 W/m -1,5 C -0,4 C 6,4 km/h (2 Bft) 97,37 %
01.12.2017 11:44 -0,3 C 4,4 C 93 % 1013,1 hPa 0,0 l/m 5,9 km/h (2 Bft) N-NO 25 2 min 0,000 mm 0,7 UV-I 353 W/m -1,3 C -0,3 C 9,7 km/h (2 Bft) 92,00 %
01.12.2017 11:46 -0,3 C 4,4 C 93 % 1013,1 hPa 0,0 l/m 6,2 km/h (2 Bft) NO 40 2 min 0,000 mm 0,7 UV-I 366 W/m -1,3 C -0,3 C 9,7 km/h (2 Bft) 94,64 %
01.12.2017 11:48 -0,2 C 4,4 C 93 % 1013,2 hPa 0,0 l/m 6,8 km/h (2 Bft) NO 51 2 min 0,000 mm 0,6 UV-I 213 W/m -1,2 C -0,6 C 11,3 km/h (2 Bft) 94,29 %
01.12.2017 11:50 -0,3 C 4,4 C 92 % 1013,2 hPa 0,0 l/m 6,9 km/h (2 Bft) NO 54 2 min 0,000 mm 0,6 UV-I 208 W/m -1,4 C -0,8 C 9,7 km/h (2 Bft) 96,00 %
01.12.2017 11:52 -0,3 C 4,4 C 93 % 1013,3 hPa 0,0 l/m 7,7 km/h (2 Bft) N-NO 31 0 min 0,000 mm 0,6 UV-I 168 W/m -1,3 C -1,7 C 9,7 km/h (2 Bft) 98,00 %
01.12.2017 11:54 -0,3 C 4,4 C 93 % 1013,3 hPa 0,0 l/m 5,5 km/h (1 Bft) NO 34 0 min 0,000 mm 0,5 UV-I 158 W/m -1,3 C -0,3 C 9,7 km/h (2 Bft) 98,11 %
01.12.2017 11:56 -0,4 C 4,4 C 93 % 1013,3 hPa 0,0 l/m 5,1 km/h (1 Bft) N-NO 29 0 min 0,000 mm 0,5 UV-I 180 W/m -1,4 C -0,4 C 8,0 km/h (2 Bft) 94,74 %
01.12.2017 11:58 -0,4 C 4,4 C 94 % 1013,2 hPa 0,0 l/m 4,9 km/h (1 Bft) N-NO 27 2 min 0,000 mm 0,5 UV-I 202 W/m -1,2 C -0,4 C 8,0 km/h (2 Bft) 96,00 %
01.12.2017 12:00 -0,4 C 4,4 C 94 % 1013,2 hPa 0,0 l/m 5,1 km/h (1 Bft) N-NO 20 0 min 0,076 mm 0,5 UV-I 167 W/m -1,2 C -0,4 C 9,7 km/h (2 Bft) 98,00 %
01.12.2017 12:02 -0,4 C 4,4 C 94 % 1013,1 hPa 0,0 l/m 5,8 km/h (2 Bft) N-NO 19 0 min 0,000 mm 0,5 UV-I 191 W/m -1,2 C -0,4 C 9,7 km/h (2 Bft) 97,56 %
01.12.2017 12:04 -0,4 C 4,4 C 94 % 1013,0 hPa 0,0 l/m 6,4 km/h (2 Bft) N-NO 19 2 min 0,000 mm 0,5 UV-I 199 W/m -1,2 C -0,4 C 11,3 km/h (2 Bft) 100,00 %
01.12.2017 12:06 -0,4 C 4,4 C 94 % 1013,1 hPa 0,0 l/m 7,7 km/h (2 Bft) N 10 0 min 0,000 mm 0,5 UV-I 181 W/m -1,2 C -1,8 C 12,9 km/h (3 Bft) 100,00 %
01.12.2017 12:08 -0,5 C 4,4 C 95 % 1013,1 hPa 0,0 l/m 8,6 km/h (2 Bft) NO 34 0 min 0,000 mm 0,5 UV-I 157 W/m -1,2 C -2,8 C 14,5 km/h (3 Bft) 100,00 %
01.12.2017 12:10 -0,6 C 4,4 C 94 % 1013,1 hPa 0,0 l/m 11,3 km/h (2 Bft) N-NO 27 0 min 0,000 mm 0,5 UV-I 154 W/m -1,4 C -5,2 C 14,5 km/h (3 Bft) 100,00 %
01.12.2017 12:12 -0,6 C 4,4 C 95 % 1013,1 hPa 0,0 l/m 9,1 km/h (2 Bft) N-NO 12 0 min 0,000 mm 0,5 UV-I 142 W/m -1,3 C -3,3 C 12,9 km/h (3 Bft) 100,00 %
01.12.2017 12:14 -0,7 C 4,4 C 95 % 1013,2 hPa 0,0 l/m 5,8 km/h (2 Bft) N 11 0 min 0,000 mm 0,5 UV-I 123 W/m -1,4 C -0,7 C 12,9 km/h (3 Bft) 96,00 %
01.12.2017 12:16 -0,8 C 4,4 C 95 % 1013,2 hPa 0,0 l/m 6,6 km/h (2 Bft) NO 40 0 min 0,000 mm 0,1 UV-I 116 W/m -1,5 C -1,0 C 9,7 km/h (2 Bft) 100,00 %
01.12.2017 12:18 -0,8 C 4,4 C 95 % 1013,3 hPa 0,0 l/m 7,5 km/h (2 Bft) N-NO 28 0 min 0,000 mm 0,0 UV-I 119 W/m -1,5 C -2,0 C 11,3 km/h (2 Bft) 96,23 %
01.12.2017 12:20 -0,9 C 4,4 C 95 % 1013,3 hPa 0,0 l/m 8,1 km/h (2 Bft) NO 42 0 min 0,000 mm 0,0 UV-I 133 W/m -1,6 C -2,7 C 12,9 km/h (3 Bft) 97,56 %
01.12.2017 12:22 -0,9 C 4,4 C 95 % 1013,3 hPa 0,0 l/m 5,7 km/h (1 Bft) N-NO 30 0 min 0,000 mm 0,0 UV-I 136 W/m -1,6 C -0,9 C 9,7 km/h (2 Bft) 100,00 %
01.12.2017 12:24 -0,9 C 4,4 C 95 % 1013,3 hPa 0,0 l/m 8,9 km/h (2 Bft) N-NO 14 0 min 0,000 mm 0,0 UV-I 124 W/m -1,6 C -3,5 C 12,9 km/h (3 Bft) 100,00 %
01.12.2017 12:26 -1,0 C 4,4 C 95 % 1013,3 hPa 0,0 l/m 3,4 km/h (1 Bft) N 5 0 min 0,000 mm 0,0 UV-I 125 W/m -1,7 C -1,0 C 11,3 km/h (2 Bft) 100,00 %
01.12.2017 12:28 -0,9 C 4,4 C 96 % 1013,3 hPa 0,0 l/m 2,6 km/h (1 Bft) N-NO 27 0 min 0,000 mm 0,0 UV-I 132 W/m -1,5 C -0,9 C 6,4 km/h (2 Bft) 100,00 %
01.12.2017 12:30 -0,9 C 4,4 C 96 % 1013,3 hPa 0,0 l/m 7,3 km/h (2 Bft) NO 34 0 min 0,000 mm 0,0 UV-I 144 W/m -1,5 C -1,9 C 12,9 km/h (3 Bft) 100,00 %
01.12.2017 12:32 -1,0 C 4,4 C 96 % 1013,3 hPa 0,0 l/m 5,3 km/h (1 Bft) N-NO 23 0 min 0,000 mm 0,0 UV-I 153 W/m -1,6 C -1,0 C 9,7 km/h (2 Bft) 100,00 %
01.12.2017 12:34 -1,1 C 4,4 C 96 % 1013,3 hPa 0,0 l/m 4,6 km/h (1 Bft) O-NO 65 0 min 0,000 mm 0,0 UV-I 155 W/m -1,7 C -1,1 C 9,7 km/h (2 Bft) 100,00 %
01.12.2017 12:36 -1,1 C 4,4 C 95 % 1013,4 hPa 0,0 l/m 2,6 km/h (1 Bft) N-NO 19 0 min 0,000 mm 0,0 UV-I 154 W/m -1,8 C -1,1 C 4,8 km/h (1 Bft) 100,00 %
01.12.2017 12:38 -0,9 C 4,4 C 96 % 1013,4 hPa 0,0 l/m 2,7 km/h (1 Bft) N-NO 30 0 min 0,000 mm 0,0 UV-I 139 W/m -1,5 C -0,9 C 4,8 km/h (1 Bft) 98,00 %
01.12.2017 12:40 -0,9 C 4,4 C 96 % 1013,4 hPa 0,0 l/m 2,0 km/h (1 Bft) N-NO 32 0 min 0,000 mm 0,0 UV-I 143 W/m -1,5 C -0,9 C 4,8 km/h (1 Bft) 97,37 %
01.12.2017 12:42 -0,9 C 4,4 C 96 % 1013,4 hPa 0,0 l/m 3,9 km/h (1 Bft) NO 34 0 min 0,000 mm 0,0 UV-I 148 W/m -1,5 C -0,9 C 8,0 km/h (2 Bft) 100,00 %
01.12.2017 12:44 -0,9 C 4,4 C 96 % 1013,4 hPa 0,0 l/m 5,4 km/h (1 Bft) N-NO 19 0 min 0,000 mm 0,0 UV-I 149 W/m -1,5 C -0,9 C 8,0 km/h (2 Bft) 100,00 %
01.12.2017 12:46 -0,9 C 4,4 C 96 % 1013,3 hPa 0,0 l/m 3,6 km/h (1 Bft) N-NO 27 0 min 0,000 mm 0,0 UV-I 141 W/m -1,5 C -0,9 C 8,0 km/h (2 Bft) 97,14 %
01.12.2017 12:48 -0,9 C 4,4 C 96 % 1013,5 hPa 0,0 l/m 3,6 km/h (1 Bft) N-NO 17 0 min 0,000 mm 0,0 UV-I 146 W/m -1,5 C -0,9 C 6,4 km/h (2 Bft) 98,21 %
01.12.2017 12:50 -1,0 C 4,4 C 96 % 1013,6 hPa 0,0 l/m 6,1 km/h (2 Bft) NO 47 0 min 0,000 mm 0,0 UV-I 174 W/m -1,6 C -1,0 C 9,7 km/h (2 Bft) 96,00 %
01.12.2017 12:52 -0,9 C 4,4 C 96 % 1013,6 hPa 0,0 l/m 5,8 km/h (2 Bft) O-NO 61 0 min 0,000 mm 0,0 UV-I 178 W/m -1,5 C -0,9 C 8,0 km/h (2 Bft) 100,00 %
01.12.2017 12:54 -0,9 C 4,4 C 96 % 1013,6 hPa 0,0 l/m 6,4 km/h (2 Bft) O-NO 61 0 min 0,000 mm 0,0 UV-I 156 W/m -1,5 C -0,9 C 9,7 km/h (2 Bft) 100,00 %
01.12.2017 12:56 -1,0 C 4,4 C 96 % 1013,6 hPa 0,0 l/m 4,4 km/h (1 Bft) NO 55 0 min 0,000 mm 0,0 UV-I 134 W/m -1,6 C -1,0 C 8,0 km/h (2 Bft) 98,51 %
01.12.2017 12:58 -1,0 C 4,4 C 96 % 1013,6 hPa 0,0 l/m 4,9 km/h (1 Bft) O-NO 57 0 min 0,000 mm 0,0 UV-I 132 W/m -1,6 C -1,0 C 8,0 km/h (2 Bft) 100,00 %
01.12.2017 13:00 -1,0 C 4,4 C 96 % 1013,6 hPa 0,0 l/m 6,8 km/h (2 Bft) N-NO 24 0 min 0,051 mm 0,0 UV-I 128 W/m -1,6 C -1,4 C 9,7 km/h (2 Bft) 97,62 %
01.12.2017 13:02 -0,9 C 4,4 C 96 % 1013,6 hPa 0,0 l/m 6,0 km/h (2 Bft) NO 46 0 min 0,000 mm 0,4 UV-I 95 W/m -1,5 C -0,9 C 8,0 km/h (2 Bft) 96,00 %
01.12.2017 13:04 -1,1 C 4,4 C 96 % 1013,6 hPa 0,0 l/m 5,4 km/h (1 Bft) O-NO 58 0 min 0,000 mm 0,3 UV-I 67 W/m -1,7 C -1,1 C 8,0 km/h (2 Bft) 100,00 %
01.12.2017 13:06 -1,2 C 4,4 C 95 % 1013,5 hPa 0,0 l/m 3,6 km/h (1 Bft) O-NO 58 2 min 0,000 mm 0,5 UV-I 204 W/m -1,9 C -1,2 C 4,8 km/h (1 Bft) 100,00 %
01.12.2017 13:08 -1,1 C 4,4 C 96 % 1013,5 hPa 0,0 l/m 3,8 km/h (1 Bft) O-NO 66 2 min 0,000 mm 0,6 UV-I 279 W/m -1,7 C -1,1 C 6,4 km/h (2 Bft) 98,00 %
01.12.2017 13:10 -1,1 C 4,4 C 96 % 1013,5 hPa 0,0 l/m 5,3 km/h (1 Bft) O-NO 72 2 min 0,000 mm 0,6 UV-I 299 W/m -1,7 C -1,1 C 8,0 km/h (2 Bft) 97,87 %
01.12.2017 13:12 -0,9 C 4,4 C 96 % 1013,4 hPa 0,0 l/m 6,4 km/h (2 Bft) O-NO 69 2 min 0,000 mm 0,5 UV-I 299 W/m -1,5 C -0,9 C 8,0 km/h (2 Bft) 97,22 %
01.12.2017 13:14 -0,8 C 4,4 C 96 % 1013,4 hPa 0,0 l/m 5,4 km/h (1 Bft) NO 51 2 min 0,000 mm 0,5 UV-I 300 W/m -1,4 C -0,8 C 8,0 km/h (2 Bft) 98,11 %
01.12.2017 13:16 -0,8 C 4,4 C 95 % 1013,4 hPa 0,0 l/m 4,2 km/h (1 Bft) NO 51 2 min 0,000 mm 0,5 UV-I 303 W/m -1,5 C -0,8 C 4,8 km/h (1 Bft) 98,00 %
01.12.2017 13:18 -0,7 C 4,4 C 95 % 1013,4 hPa 0,0 l/m 2,5 km/h (1 Bft) NO 51 2 min 0,000 mm 0,5 UV-I 311 W/m -1,4 C -0,7 C 4,8 km/h (1 Bft) 97,37 %
01.12.2017 13:20 -0,5 C 4,4 C 95 % 1013,4 hPa 0,2 l/m 3,3 km/h (1 Bft) NO 51 2 min 0,000 mm 0,5 UV-I 338 W/m -1,2 C -0,5 C 4,8 km/h (1 Bft) 95,74 %
01.12.2017 13:22 -0,5 C 4,4 C 95 % 1013,4 hPa 0,0 l/m 1,2 km/h (1 Bft) NO 51 2 min 0,000 mm 0,5 UV-I 310 W/m -1,2 C -0,5 C 3,2 km/h (1 Bft) 94,00 %
01.12.2017 13:24 -0,4 C 4,4 C 95 % 1013,4 hPa 0,0 l/m 0,5 km/h (0 Bft) NO 51 2 min 0,000 mm 0,5 UV-I 218 W/m -1,1 C -0,4 C 3,2 km/h (1 Bft) 97,87 %
01.12.2017 13:26 -0,3 C 4,4 C 95 % 1013,4 hPa 0,0 l/m 1,8 km/h (1 Bft) NO 51 2 min 0,000 mm 0,5 UV-I 266 W/m -1,0 C -0,3 C 3,2 km/h (1 Bft) 97,73 %
01.12.2017 13:28 -0,3 C 4,4 C 94 % 1013,4 hPa 0,0 l/m 1,5 km/h (1 Bft) NO 51 2 min 0,000 mm 0,3 UV-I 236 W/m -1,1 C -0,3 C 3,2 km/h (1 Bft) 95,74 %
01.12.2017 13:30 -0,3 C 4,4 C 94 % 1013,4 hPa 0,0 l/m 0,7 km/h (0 Bft) NO 51 2 min 0,000 mm 0,0 UV-I 197 W/m -1,1 C -0,3 C 3,2 km/h (1 Bft) 96,00 %
01.12.2017 13:32 -0,3 C 4,4 C 94 % 1013,4 hPa 0,0 l/m 0,3 km/h (0 Bft) NO 51 0 min 0,000 mm 0,0 UV-I 120 W/m -1,1 C -0,3 C 3,2 km/h (1 Bft) 98,00 %
01.12.2017 13:34 -0,4 C 4,4 C 94 % 1013,4 hPa 0,0 l/m 2,4 km/h (1 Bft) NO 51 0 min 0,000 mm 0,0 UV-I 100 W/m -1,2 C -0,4 C 4,8 km/h (1 Bft) 100,00 %
01.12.2017 13:36 -0,5 C 4,4 C 94 % 1013,4 hPa 0,0 l/m 3,3 km/h (1 Bft) NO 51 2 min 0,000 mm 0,0 UV-I 160 W/m -1,3 C -0,5 C 4,8 km/h (1 Bft) 100,00 %
01.12.2017 13:38 -0,5 C 4,4 C 94 % 1013,4 hPa 0,0 l/m 2,7 km/h (1 Bft) NO 51 2 min 0,000 mm 0,0 UV-I 212 W/m -1,3 C -0,5 C 4,8 km/h (1 Bft) 100,00 %
01.12.2017 13:40 -0,6 C 4,4 C 94 % 1013,4 hPa 0,0 l/m 2,6 km/h (1 Bft) NO 51 0 min 0,000 mm 0,0 UV-I 85 W/m -1,4 C -0,6 C 3,2 km/h (1 Bft) 100,00 %
01.12.2017 13:42 -0,7 C 4,4 C 94 % 1013,4 hPa 0,0 l/m 2,6 km/h (1 Bft) NO 51 0 min 0,000 mm 0,0 UV-I 131 W/m -1,5 C -0,7 C 4,8 km/h (1 Bft) 98,00 %
01.12.2017 13:44 -0,7 C 4,4 C 95 % 1013,4 hPa 0,0 l/m 2,3 km/h (1 Bft) NO 51 0 min 0,000 mm 0,0 UV-I 138 W/m -1,4 C -0,7 C 3,2 km/h (1 Bft) 98,00 %
01.12.2017 13:46 -0,7 C 4,4 C 95 % 1013,4 hPa 0,0 l/m 1,9 km/h (1 Bft) NO 51 0 min 0,000 mm 0,0 UV-I 117 W/m -1,4 C -0,7 C 3,2 km/h (1 Bft) 100,00 %
01.12.2017 13:48 -0,7 C 4,4 C 95 % 1013,4 hPa 0,0 l/m 1,3 km/h (1 Bft) NO 51 0 min 0,000 mm 0,0 UV-I 134 W/m -1,4 C -0,7 C 3,2 km/h (1 Bft) 100,00 %
01.12.2017 13:50 -0,7 C 4,4 C 95 % 1013,4 hPa 0,0 l/m 1,5 km/h (1 Bft) NO 51 2 min 0,000 mm 0,0 UV-I 166 W/m -1,4 C -0,7 C 3,2 km/h (1 Bft) 100,00 %
01.12.2017 13:52 -0,6 C 4,4 C 95 % 1013,4 hPa 0,0 l/m 0,0 km/h (0 Bft) NO 51 2 min 0,000 mm 0,0 UV-I 148 W/m -1,3 C -0,6 C 1,6 km/h (1 Bft) 96,08 %
01.12.2017 13:54 -0,6 C 4,4 C 95 % 1013,4 hPa 0,0 l/m 1,9 km/h (1 Bft) NO 51 0 min 0,000 mm 0,0 UV-I 128 W/m -1,3 C -0,6 C 3,2 km/h (1 Bft) 98,00 %
01.12.2017 13:56 -0,6 C 4,4 C 95 % 1013,4 hPa 0,0 l/m 2,4 km/h (1 Bft) NO 51 0 min 0,000 mm 0,0 UV-I 104 W/m -1,3 C -0,6 C 3,2 km/h (1 Bft) 96,00 %
01.12.2017 13:58 -0,6 C 4,4 C 95 % 1013,5 hPa 0,2 l/m 1,4 km/h (1 Bft) NO 51 0 min 0,000 mm 0,0 UV-I 100 W/m -1,3 C -0,6 C 3,2 km/h (1 Bft) 100,00 %
01.12.2017 14:00 -0,5 C 4,4 C 95 % 1013,5 hPa 0,0 l/m 1,0 km/h (0 Bft) NO 51 0 min 0,051 mm 0,0 UV-I 116 W/m -1,2 C -0,5 C 1,6 km/h (1 Bft) 100,00 %
01.12.2017 14:02 -0,5 C 4,4 C 95 % 1013,5 hPa 0,0 l/m 0,9 km/h (0 Bft) NO 51 2 min 0,000 mm 0,0 UV-I 160 W/m -1,2 C -0,5 C 3,2 km/h (1 Bft) 97,87 %
01.12.2017 14:04 -0,4 C 4,4 C 95 % 1013,5 hPa 0,0 l/m 0,1 km/h (0 Bft) NO 51 0 min 0,000 mm 0,0 UV-I 136 W/m -1,1 C -0,4 C 1,6 km/h (1 Bft) 100,00 %
01.12.2017 14:06 -0,4 C 4,4 C 95 % 1013,5 hPa 0,0 l/m 0,0 km/h (0 Bft) NO 51 0 min 0,000 mm 0,0 UV-I 114 W/m -1,1 C -0,4 C 0,0 km/h (0 Bft) 100,00 %
01.12.2017 14:08 -0,4 C 4,4 C 95 % 1013,5 hPa 0,0 l/m 0,0 km/h (0 Bft) NO 51 0 min 0,000 mm 0,0 UV-I 108 W/m -1,1 C -0,4 C 0,0 km/h (0 Bft) 100,00 %
01.12.2017 14:10 -0,5 C 4,4 C 94 % 1013,5 hPa 0,0 l/m 0,0 km/h (0 Bft) NO 51 0 min 0,000 mm 0,0 UV-I 123 W/m -1,3 C -0,5 C 0,0 km/h (0 Bft) 98,00 %
01.12.2017 14:12 -0,3 C 4,4 C 95 % 1013,5 hPa 0,0 l/m 0,0 km/h (0 Bft) NO 51 2 min 0,000 mm 0,0 UV-I 135 W/m -1,0 C -0,3 C 0,0 km/h (0 Bft) 100,00 %
01.12.2017 14:14 -0,3 C 4,4 C 95 % 1013,5 hPa 0,0 l/m 0,0 km/h (0 Bft) NO 51 2 min 0,000 mm 0,0 UV-I 175 W/m -1,0 C -0,3 C 0,0 km/h (0 Bft) 98,00 %
01.12.2017 14:16 -0,1 C 4,4 C 94 % 1013,5 hPa 0,0 l/m 0,0 km/h (0 Bft) NO 51 2 min 0,000 mm 0,0 UV-I 215 W/m -0,9 C -0,1 C 0,0 km/h (0 Bft) 100,00 %
01.12.2017 14:18 0,1 C 4,4 C 94 % 1013,6 hPa 0,0 l/m 0,0 km/h (0 Bft) NO 51 2 min 0,000 mm 0,0 UV-I 222 W/m -0,7 C 0,1 C 0,0 km/h (0 Bft) 100,00 %
01.12.2017 14:20 0,1 C 4,4 C 94 % 1013,6 hPa 0,0 l/m 0,0 km/h (0 Bft) NO 51 2 min 0,000 mm 0,0 UV-I 203 W/m -0,7 C 0,1 C 0,0 km/h (0 Bft) 100,00 %
01.12.2017 14:22 0,1 C 4,4 C 93 % 1013,7 hPa 0,0 l/m 0,0 km/h (0 Bft) NO 51 2 min 0,000 mm 0,0 UV-I 218 W/m -0,9 C 0,1 C 0,0 km/h (0 Bft) 100,00 %
01.12.2017 14:24 0,2 C 4,4 C 93 % 1013,7 hPa 0,0 l/m 0,1 km/h (0 Bft) NO 51 2 min 0,000 mm 0,0 UV-I 196 W/m -0,8 C 0,2 C 1,6 km/h (1 Bft) 100,00 %
01.12.2017 14:26 0,1 C 4,4 C 93 % 1013,7 hPa 0,0 l/m 1,9 km/h (1 Bft) NO 48 2 min 0,000 mm 0,0 UV-I 177 W/m -0,9 C 0,1 C 3,2 km/h (1 Bft) 100,00 %
01.12.2017 14:28 0,0 C 4,4 C 93 % 1013,7 hPa 0,0 l/m 0,5 km/h (0 Bft) NO 48 2 min 0,000 mm 0,0 UV-I 193 W/m -1,0 C 0,0 C 1,6 km/h (1 Bft) 100,00 %
01.12.2017 14:30 0,0 C 4,4 C 94 % 1013,7 hPa 0,0 l/m 0,6 km/h (0 Bft) NO 48 2 min 0,000 mm 0,0 UV-I 190 W/m -0,8 C 0,0 C 3,2 km/h (1 Bft) 100,00 %
01.12.2017 14:32 -0,1 C 4,4 C 94 % 1013,7 hPa 0,2 l/m 1,8 km/h (1 Bft) NO 48 2 min 0,000 mm 0,0 UV-I 177 W/m -0,9 C -0,1 C 3,2 km/h (1 Bft) 100,00 %
01.12.2017 14:34 -0,1 C 4,4 C 94 % 1013,7 hPa 0,0 l/m 0,4 km/h (0 Bft) NO 48 2 min 0,000 mm 0,0 UV-I 161 W/m -0,9 C -0,1 C 1,6 km/h (1 Bft) 94,74 %
01.12.2017 14:36 -0,1 C 4,4 C 94 % 1013,8 hPa 0,0 l/m 1,5 km/h (1 Bft) NO 48 2 min 0,000 mm 0,0 UV-I 147 W/m -0,9 C -0,1 C 3,2 km/h (1 Bft) 98,00 %
01.12.2017 14:38 -0,1 C 4,4 C 94 % 1013,8 hPa 0,0 l/m 1,7 km/h (1 Bft) NO 48 2 min 0,000 mm 0,0 UV-I 142 W/m -0,9 C -0,1 C 3,2 km/h (1 Bft) 100,00 %
01.12.2017 14:40 -0,1 C 4,4 C 94 % 1013,8 hPa 0,0 l/m 0,6 km/h (0 Bft) NO 48 2 min 0,000 mm 0,0 UV-I 143 W/m -0,9 C -0,1 C 3,2 km/h (1 Bft) 97,37 %
01.12.2017 14:42 0,0 C 4,4 C 94 % 1013,9 hPa 0,0 l/m 2,9 km/h (1 Bft) NO 49 2 min 0,000 mm 0,0 UV-I 144 W/m -0,8 C 0,0 C 4,8 km/h (1 Bft) 98,00 %
01.12.2017 14:44 -0,1 C 4,4 C 94 % 1013,9 hPa 0,0 l/m 2,0 km/h (1 Bft) S-SO 163 2 min 0,000 mm 0,0 UV-I 122 W/m -0,9 C -0,1 C 6,4 km/h (2 Bft) 100,00 %
01.12.2017 14:46 -0,1 C 4,4 C 94 % 1014,0 hPa 0,0 l/m 3,0 km/h (1 Bft) S-SW 196 2 min 0,000 mm 0,0 UV-I 101 W/m -0,9 C -0,1 C 6,4 km/h (2 Bft) 100,00 %
01.12.2017 14:48 -0,2 C 4,4 C 94 % 1014,0 hPa 0,0 l/m 3,0 km/h (1 Bft) S-SW 196 0 min 0,000 mm 0,0 UV-I 90 W/m -1,0 C -0,2 C 4,8 km/h (1 Bft) 100,00 %
01.12.2017 14:50 -0,2 C 4,4 C 94 % 1014,0 hPa 0,0 l/m 4,1 km/h (1 Bft) S-SW 196 0 min 0,000 mm 0,0 UV-I 73 W/m -1,0 C -0,2 C 4,8 km/h (1 Bft) 97,62 %
01.12.2017 14:52 -0,3 C 4,4 C 94 % 1014,0 hPa 0,0 l/m 2,6 km/h (1 Bft) S 171 0 min 0,000 mm 0,0 UV-I 70 W/m -1,1 C -0,3 C 6,4 km/h (2 Bft) 96,00 %
01.12.2017 14:54 -0,3 C 4,4 C 94 % 1014,0 hPa 0,0 l/m 2,2 km/h (1 Bft) S 170 0 min 0,000 mm 0,0 UV-I 78 W/m -1,1 C -0,3 C 3,2 km/h (1 Bft) 97,73 %
01.12.2017 14:56 -0,3 C 4,4 C 95 % 1014,1 hPa 0,0 l/m 3,1 km/h (1 Bft) S 169 0 min 0,000 mm 0,0 UV-I 77 W/m -1,0 C -0,3 C 6,4 km/h (2 Bft) 96,23 %
01.12.2017 14:58 -0,3 C 4,4 C 95 % 1014,1 hPa 0,0 l/m 1,7 km/h (1 Bft) S 169 0 min 0,000 mm 0,0 UV-I 82 W/m -1,0 C -0,3 C 3,2 km/h (1 Bft) 97,87 %
01.12.2017 15:00 -0,4 C 4,4 C 95 % 1014,1 hPa 0,0 l/m 1,5 km/h (1 Bft) S 169 2 min 0,051 mm 0,0 UV-I 103 W/m -1,1 C -0,4 C 3,2 km/h (1 Bft) 98,00 %
01.12.2017 15:02 -0,4 C 4,4 C 94 % 1014,0 hPa 0,0 l/m 1,9 km/h (1 Bft) S 169 2 min 0,000 mm 0,0 UV-I 103 W/m -1,2 C -0,4 C 6,4 km/h (2 Bft) 95,74 %
01.12.2017 15:04 -0,4 C 4,4 C 95 % 1014,1 hPa 0,0 l/m 1,6 km/h (1 Bft) S 169 2 min 0,000 mm 0,0 UV-I 103 W/m -1,1 C -0,4 C 3,2 km/h (1 Bft) 98,00 %
01.12.2017 15:06 -0,4 C 4,4 C 95 % 1014,2 hPa 0,0 l/m 0,8 km/h (0 Bft) S 169 2 min 0,000 mm 0,0 UV-I 110 W/m -1,1 C -0,4 C 1,6 km/h (1 Bft) 97,87 %
01.12.2017 15:08 -0,4 C 4,4 C 95 % 1014,2 hPa 0,0 l/m 1,1 km/h (1 Bft) S 169 2 min 0,000 mm 0,0 UV-I 117 W/m -1,1 C -0,4 C 1,6 km/h (1 Bft) 97,56 %
01.12.2017 15:10 -0,4 C 4,4 C 95 % 1014,2 hPa 0,0 l/m 1,4 km/h (1 Bft) S 169 2 min 0,000 mm 0,0 UV-I 102 W/m -1,1 C -0,4 C 3,2 km/h (1 Bft) 96,23 %
01.12.2017 15:12 -0,4 C 4,4 C 95 % 1014,2 hPa 0,0 l/m 0,6 km/h (0 Bft) S 169 2 min 0,000 mm 0,0 UV-I 85 W/m -1,1 C -0,4 C 3,2 km/h (1 Bft) 97,87 %
01.12.2017 15:14 -0,3 C 4,4 C 95 % 1014,2 hPa 0,0 l/m 1,6 km/h (1 Bft) S 169 2 min 0,000 mm 0,0 UV-I 70 W/m -1,0 C -0,3 C 3,2 km/h (1 Bft) 95,74 %
01.12.2017 15:16 -0,4 C 4,4 C 95 % 1014,2 hPa 0,0 l/m 0,4 km/h (0 Bft) S 169 2 min 0,000 mm 0,0 UV-I 64 W/m -1,1 C -0,4 C 1,6 km/h (1 Bft) 92,11 %
01.12.2017 15:18 -0,4 C 4,4 C 95 % 1014,2 hPa 0,0 l/m 0,0 km/h (0 Bft) S 169 2 min 0,000 mm 0,0 UV-I 67 W/m -1,1 C -0,4 C 0,0 km/h (0 Bft) 97,87 %
01.12.2017 15:20 -0,4 C 4,4 C 95 % 1014,2 hPa 0,0 l/m 0,0 km/h (0 Bft) S 169 2 min 0,000 mm 0,0 UV-I 74 W/m -1,1 C -0,4 C 0,0 km/h (0 Bft) 93,62 %
01.12.2017 15:22 -0,4 C 4,4 C 95 % 1014,3 hPa 0,0 l/m 0,0 km/h (0 Bft) S 169 2 min 0,000 mm 0,0 UV-I 74 W/m -1,1 C -0,4 C 0,0 km/h (0 Bft) 98,11 %
01.12.2017 15:24 -0,4 C 4,4 C 95 % 1014,3 hPa 0,0 l/m 0,0 km/h (0 Bft) S 169 2 min 0,000 mm 0,0 UV-I 71 W/m -1,1 C -0,4 C 0,0 km/h (0 Bft) 97,87 %
01.12.2017 15:26 -0,4 C 4,4 C 95 % 1014,3 hPa 0,0 l/m 0,0 km/h (0 Bft) S 169 2 min 0,000 mm 0,0 UV-I 68 W/m -1,1 C -0,4 C 0,0 km/h (0 Bft) 95,74 %
01.12.2017 15:28 -0,4 C 4,4 C 95 % 1014,3 hPa 0,0 l/m 0,0 km/h (0 Bft) S 169 2 min 0,000 mm 0,0 UV-I 65 W/m -1,1 C -0,4 C 0,0 km/h (0 Bft) 97,37 %
01.12.2017 15:30 -0,4 C 4,4 C 95 % 1014,3 hPa 0,0 l/m 0,0 km/h (0 Bft) S 169 2 min 0,000 mm 0,0 UV-I 58 W/m -1,1 C -0,4 C 0,0 km/h (0 Bft) 98,00 %
01.12.2017 15:32 -0,4 C 4,4 C 95 % 1014,4 hPa 0,0 l/m 0,0 km/h (0 Bft) S 169 2 min 0,000 mm 0,0 UV-I 53 W/m -1,1 C -0,4 C 0,0 km/h (0 Bft) 98,00 %
01.12.2017 15:34 -0,5 C 4,4 C 95 % 1014,4 hPa 0,0 l/m 0,0 km/h (0 Bft) S 169 2 min 0,000 mm 0,0 UV-I 51 W/m -1,2 C -0,5 C 0,0 km/h (0 Bft) 95,74 %
01.12.2017 15:36 -0,6 C 4,4 C 95 % 1014,5 hPa 0,0 l/m 0,0 km/h (0 Bft) S 169 2 min 0,000 mm 0,0 UV-I 47 W/m -1,3 C -0,6 C 0,0 km/h (0 Bft) 97,62 %
01.12.2017 15:38 -0,6 C 4,4 C 95 % 1014,5 hPa 0,0 l/m 0,9 km/h (0 Bft) S 169 2 min 0,000 mm 0,0 UV-I 46 W/m -1,3 C -0,6 C 3,2 km/h (1 Bft) 95,74 %
01.12.2017 15:40 -0,6 C 4,4 C 95 % 1014,5 hPa 0,0 l/m 1,8 km/h (1 Bft) S 169 2 min 0,000 mm 0,0 UV-I 42 W/m -1,3 C -0,6 C 3,2 km/h (1 Bft) 98,11 %
01.12.2017 15:42 -0,7 C 4,4 C 95 % 1014,5 hPa 0,0 l/m 2,2 km/h (1 Bft) S 169 2 min 0,000 mm 0,0 UV-I 38 W/m -1,4 C -0,7 C 3,2 km/h (1 Bft) 93,62 %
01.12.2017 15:44 -0,7 C 4,4 C 95 % 1014,5 hPa 0,0 l/m 2,0 km/h (1 Bft) S 169 2 min 0,000 mm 0,0 UV-I 34 W/m -1,4 C -0,7 C 3,2 km/h (1 Bft) 95,12 %
01.12.2017 15:46 -0,7 C 4,4 C 96 % 1014,6 hPa 0,0 l/m 1,9 km/h (1 Bft) S 169 2 min 0,000 mm 0,0 UV-I 32 W/m -1,3 C -0,7 C 3,2 km/h (1 Bft) 95,74 %
01.12.2017 15:48 -0,6 C 4,4 C 95 % 1014,6 hPa 0,0 l/m 1,4 km/h (1 Bft) S 169 2 min 0,000 mm 0,0 UV-I 29 W/m -1,3 C -0,6 C 3,2 km/h (1 Bft) 97,87 %
01.12.2017 15:50 -0,7 C 4,4 C 95 % 1014,7 hPa 0,0 l/m 1,2 km/h (1 Bft) S 169 2 min 0,000 mm 0,0 UV-I 25 W/m -1,4 C -0,7 C 1,6 km/h (1 Bft) 97,87 %
01.12.2017 15:52 -0,7 C 4,4 C 96 % 1014,8 hPa 0,0 l/m 0,3 km/h (0 Bft) S 169 2 min 0,000 mm 0,0 UV-I 21 W/m -1,3 C -0,7 C 3,2 km/h (1 Bft) 96,08 %
01.12.2017 15:54 -0,8 C 4,4 C 95 % 1014,8 hPa 0,0 l/m 0,2 km/h (0 Bft) S 169 2 min 0,000 mm 0,0 UV-I 18 W/m -1,5 C -0,8 C 1,6 km/h (1 Bft) 97,87 %
01.12.2017 15:56 -0,8 C 4,4 C 95 % 1014,8 hPa 0,0 l/m 2,1 km/h (1 Bft) S 169 2 min 0,000 mm 0,0 UV-I 18 W/m -1,5 C -0,8 C 3,2 km/h (1 Bft) 94,00 %
01.12.2017 15:58 -0,8 C 4,4 C 96 % 1014,7 hPa 0,0 l/m 2,2 km/h (1 Bft) S 169 2 min 0,000 mm 0,0 UV-I 16 W/m -1,4 C -0,8 C 3,2 km/h (1 Bft) 95,74 %
01.12.2017 16:00 -0,9 C 4,4 C 96 % 1014,7 hPa 0,0 l/m 1,4 km/h (1 Bft) S 169 2 min 0,025 mm 0,0 UV-I 14 W/m -1,5 C -0,9 C 3,2 km/h (1 Bft) 97,37 %
01.12.2017 16:02 -0,9 C 4,4 C 96 % 1014,7 hPa 0,0 l/m 0,0 km/h (0 Bft) S 169 0 min 0,000 mm 0,0 UV-I 13 W/m -1,5 C -0,9 C 0,0 km/h (0 Bft) 97,87 %
01.12.2017 16:04 -1,1 C 4,4 C 96 % 1014,7 hPa 0,0 l/m 0,1 km/h (0 Bft) S 169 0 min 0,000 mm 0,0 UV-I 12 W/m -1,7 C -1,1 C 1,6 km/h (1 Bft) 98,00 %
01.12.2017 16:06 -1,2 C 4,4 C 96 % 1014,7 hPa 0,0 l/m 0,8 km/h (0 Bft) S 169 0 min 0,000 mm 0,0 UV-I 11 W/m -1,8 C -1,2 C 1,6 km/h (1 Bft) 96,00 %
01.12.2017 16:08 -1,3 C 4,4 C 96 % 1014,8 hPa 0,0 l/m 0,0 km/h (0 Bft) S 169 0 min 0,000 mm 0,0 UV-I 10 W/m -1,9 C -1,3 C 0,0 km/h (0 Bft) 97,73 %
01.12.2017 16:10 -1,4 C 4,4 C 96 % 1014,8 hPa 0,0 l/m 0,0 km/h (0 Bft) S 169 0 min 0,000 mm 0,0 UV-I 9 W/m -2,0 C -1,4 C 0,0 km/h (0 Bft) 93,62 %
01.12.2017 16:12 -1,4 C 4,4 C 96 % 1014,8 hPa 0,0 l/m 0,5 km/h (0 Bft) S 169 0 min 0,000 mm 0,0 UV-I 9 W/m -2,0 C -1,4 C 3,2 km/h (1 Bft) 97,44 %
01.12.2017 16:14 -1,5 C 4,4 C 96 % 1014,9 hPa 0,0 l/m 1,9 km/h (1 Bft) S 169 0 min 0,000 mm 0,0 UV-I 8 W/m -2,1 C -1,5 C 3,2 km/h (1 Bft) 98,00 %
01.12.2017 16:16 -1,4 C 4,4 C 96 % 1014,8 hPa 0,0 l/m 0,5 km/h (0 Bft) S 169 0 min 0,000 mm 0,0 UV-I 7 W/m -2,0 C -1,4 C 1,6 km/h (1 Bft) 96,00 %
01.12.2017 16:18 -1,4 C 4,4 C 96 % 1014,9 hPa 0,0 l/m 0,8 km/h (0 Bft) S 169 0 min 0,000 mm 0,0 UV-I 7 W/m -2,0 C -1,4 C 1,6 km/h (1 Bft) 97,73 %
01.12.2017 16:20 -1,6 C 4,4 C 96 % 1014,9 hPa 0,0 l/m 0,8 km/h (0 Bft) S 169 0 min 0,000 mm 0,0 UV-I 6 W/m -2,2 C -1,6 C 1,6 km/h (1 Bft) 98,00 %
01.12.2017 16:22 -1,6 C 4,4 C 96 % 1014,9 hPa 0,0 l/m 1,2 km/h (1 Bft) S 169 0 min 0,000 mm 0,0 UV-I 5 W/m -2,2 C -1,6 C 3,2 km/h (1 Bft) 97,56 %
01.12.2017 16:24 -1,6 C 4,4 C 96 % 1014,9 hPa 0,0 l/m 0,6 km/h (0 Bft) S 169 0 min 0,000 mm 0,0 UV-I 5 W/m -2,2 C -1,6 C 1,6 km/h (1 Bft) 98,21 %
01.12.2017 16:26 -1,7 C 4,4 C 96 % 1015,1 hPa 0,0 l/m 1,1 km/h (1 Bft) S 169 0 min 0,000 mm 0,0 UV-I 5 W/m -2,3 C -1,7 C 3,2 km/h (1 Bft) 97,73 %
01.12.2017 16:28 -1,7 C 4,4 C 96 % 1015,1 hPa 0,0 l/m 1,6 km/h (1 Bft) S 169 0 min 0,000 mm 0,0 UV-I 5 W/m -2,3 C -1,7 C 3,2 km/h (1 Bft) 98,00 %
01.12.2017 16:30 -1,7 C 4,4 C 96 % 1015,2 hPa 0,0 l/m 0,2 km/h (0 Bft) S 169 0 min 0,000 mm 0,0 UV-I 0 W/m -2,3 C -1,7 C 1,6 km/h (1 Bft) 97,14 %
01.12.2017 16:32 -1,7 C 4,4 C 97 % 1015,1 hPa 0,0 l/m 0,8 km/h (0 Bft) S 169 0 min 0,000 mm 0,0 UV-I 0 W/m -2,1 C -1,7 C 3,2 km/h (1 Bft) 92,50 %
01.12.2017 16:34 -1,7 C 4,4 C 97 % 1015,2 hPa 0,0 l/m 2,1 km/h (1 Bft) S 169 0 min 0,000 mm 0,0 UV-I 0 W/m -2,1 C -1,7 C 3,2 km/h (1 Bft) 96,61 %
01.12.2017 16:36 -1,7 C 4,4 C 97 % 1015,2 hPa 0,0 l/m 0,9 km/h (0 Bft) S 169 0 min 0,000 mm 0,0 UV-I 0 W/m -2,1 C -1,7 C 1,6 km/h (1 Bft) 98,11 %
01.12.2017 16:38 -1,7 C 4,4 C 97 % 1015,3 hPa 0,0 l/m 0,1 km/h (0 Bft) S 169 0 min 0,000 mm 0,0 UV-I 0 W/m -2,1 C -1,7 C 1,6 km/h (1 Bft) 91,49 %
01.12.2017 16:40 -1,9 C 4,4 C 97 % 1015,3 hPa 0,0 l/m 0,1 km/h (0 Bft) S 169 0 min 0,000 mm 0,0 UV-I 0 W/m -2,3 C -1,9 C 1,6 km/h (1 Bft) 97,73 %
01.12.2017 16:42 -2,0 C 4,4 C 96 % 1015,2 hPa 0,0 l/m 0,4 km/h (0 Bft) S 169 0 min 0,000 mm 0,0 UV-I 0 W/m -2,6 C -2,0 C 1,6 km/h (1 Bft) 95,74 %
01.12.2017 16:44 -1,9 C 4,4 C 97 % 1015,3 hPa 0,0 l/m 0,0 km/h (0 Bft) S 169 0 min 0,000 mm 0,0 UV-I 0 W/m -2,3 C -1,9 C 0,0 km/h (0 Bft) 97,87 %
01.12.2017 16:46 -1,8 C 4,4 C 97 % 1015,2 hPa 0,0 l/m 0,0 km/h (0 Bft) S 169 0 min 0,000 mm 0,0 UV-I 0 W/m -2,2 C -1,8 C 0,0 km/h (0 Bft) 100,00 %
01.12.2017 16:48 -1,7 C 4,4 C 97 % 1015,2 hPa 0,0 l/m 0,0 km/h (0 Bft) S 169 0 min 0,000 mm 0,0 UV-I 0 W/m -2,1 C -1,7 C 0,0 km/h (0 Bft) 97,87 %
01.12.2017 16:50 -1,8 C 4,4 C 97 % 1015,3 hPa 0,0 l/m 1,2 km/h (1 Bft) S 169 0 min 0,000 mm 0,0 UV-I 0 W/m -2,2 C -1,8 C 3,2 km/h (1 Bft) 95,74 %
01.12.2017 16:52 -1,9 C 4,4 C 97 % 1015,3 hPa 0,0 l/m 1,7 km/h (1 Bft) S 169 0 min 0,000 mm 0,0 UV-I 0 W/m -2,3 C -1,9 C 3,2 km/h (1 Bft) 100,00 %
01.12.2017 16:54 -2,1 C 4,4 C 96 % 1015,3 hPa 0,0 l/m 0,6 km/h (0 Bft) S 169 0 min 0,000 mm 0,0 UV-I 0 W/m -2,6 C -2,1 C 1,6 km/h (1 Bft) 97,44 %
01.12.2017 16:56 -2,1 C 4,4 C 97 % 1015,4 hPa 0,0 l/m 1,0 km/h (0 Bft) S 169 0 min 0,000 mm 0,0 UV-I 0 W/m -2,5 C -2,1 C 3,2 km/h (1 Bft) 100,00 %
01.12.2017 16:58 -2,0 C 4,4 C 97 % 1015,4 hPa 0,0 l/m 1,3 km/h (1 Bft) S 169 0 min 0,000 mm 0,0 UV-I 0 W/m -2,4 C -2,0 C 3,2 km/h (1 Bft) 100,00 %
01.12.2017 17:00 -1,9 C 4,4 C 97 % 1015,5 hPa 0,0 l/m 2,4 km/h (1 Bft) S 169 0 min 0,000 mm 0,0 UV-I 0 W/m -2,3 C -1,9 C 6,4 km/h (2 Bft) 100,00 %
01.12.2017 17:02 -2,0 C 4,4 C 97 % 1015,6 hPa 0,0 l/m 3,8 km/h (1 Bft) S 169 0 min 0,000 mm 0,0 UV-I 0 W/m -2,4 C -2,0 C 6,4 km/h (2 Bft) 100,00 %
01.12.2017 17:04 -2,1 C 4,4 C 97 % 1015,6 hPa 0,0 l/m 2,8 km/h (1 Bft) S 169 0 min 0,000 mm 0,0 UV-I 0 W/m -2,5 C -2,1 C 6,4 km/h (2 Bft) 100,00 %
01.12.2017 17:06 -2,2 C 4,4 C 97 % 1015,6 hPa 0,0 l/m 0,5 km/h (0 Bft) S 169 0 min 0,000 mm 0,0 UV-I 0 W/m -2,6 C -2,2 C 1,6 km/h (1 Bft) 100,00 %
01.12.2017 17:08 -2,2 C 4,4 C 97 % 1015,6 hPa 0,0 l/m 2,2 km/h (1 Bft) S 169 0 min 0,000 mm 0,0 UV-I 0 W/m -2,6 C -2,2 C 3,2 km/h (1 Bft) 98,11 %
01.12.2017 17:10 -2,3 C 4,4 C 97 % 1015,6 hPa 0,0 l/m 0,5 km/h (0 Bft) S 169 0 min 0,000 mm 0,0 UV-I 0 W/m -2,7 C -2,3 C 1,6 km/h (1 Bft) 98,00 %
01.12.2017 17:12 -2,3 C 4,4 C 97 % 1015,7 hPa 0,0 l/m 0,3 km/h (0 Bft) S 169 0 min 0,000 mm 0,0 UV-I 0 W/m -2,7 C -2,3 C 1,6 km/h (1 Bft) 100,00 %
01.12.2017 17:14 -2,3 C 4,4 C 97 % 1015,7 hPa 0,0 l/m 0,0 km/h (0 Bft) S 169 0 min 0,000 mm 0,0 UV-I 0 W/m -2,7 C -2,3 C 0,0 km/h (0 Bft) 96,00 %
01.12.2017 17:16 -2,3 C 4,4 C 97 % 1015,7 hPa 0,0 l/m 0,1 km/h (0 Bft) S 169 0 min 0,000 mm 0,0 UV-I 0 W/m -2,7 C -2,3 C 1,6 km/h (1 Bft) 100,00 %
01.12.2017 17:18 -2,3 C 4,4 C 97 % 1015,8 hPa 0,0 l/m 3,4 km/h (1 Bft) S 169 0 min 0,000 mm 0,0 UV-I 0 W/m -2,7 C -2,3 C 6,4 km/h (2 Bft) 100,00 %
01.12.2017 17:20 -2,3 C 4,4 C 97 % 1015,9 hPa 0,0 l/m 1,5 km/h (1 Bft) S 169 0 min 0,000 mm 0,0 UV-I 0 W/m -2,7 C -2,3 C 6,4 km/h (2 Bft) 100,00 %
01.12.2017 17:22 -2,4 C 4,4 C 97 % 1016,0 hPa 0,0 l/m 1,2 km/h (1 Bft) S 169 0 min 0,000 mm 0,0 UV-I 0 W/m -2,8 C -2,4 C 3,2 km/h (1 Bft) 98,11 %
01.12.2017 17:24 -2,4 C 4,4 C 97 % 1016,0 hPa 0,0 l/m 0,0 km/h (0 Bft) S 169 0 min 0,000 mm 0,0 UV-I 0 W/m -2,8 C -2,4 C 0,0 km/h (0 Bft) 98,11 %
01.12.2017 17:26 -2,4 C 4,4 C 97 % 1016,1 hPa 0,0 l/m 0,2 km/h (0 Bft) S 169 0 min 0,000 mm 0,0 UV-I 0 W/m -2,8 C -2,4 C 1,6 km/h (1 Bft) 97,56 %
01.12.2017 17:28 -2,4 C 4,4 C 97 % 1016,1 hPa 0,0 l/m 2,4 km/h (1 Bft) S 169 0 min 0,000 mm 0,0 UV-I 0 W/m -2,8 C -2,4 C 6,4 km/h (2 Bft) 95,74 %
01.12.2017 17:30 -2,4 C 4,4 C 97 % 1016,1 hPa 0,0 l/m 3,1 km/h (1 Bft) S 169 0 min 0,000 mm 0,0 UV-I 0 W/m -2,8 C -2,4 C 6,4 km/h (2 Bft) 98,00 %
01.12.2017 17:32 -2,4 C 4,4 C 97 % 1016,1 hPa 0,0 l/m 1,7 km/h (1 Bft) S 169 0 min 0,000 mm 0,0 UV-I 0 W/m -2,8 C -2,4 C 3,2 km/h (1 Bft) 94,87 %
01.12.2017 17:34 -2,6 C 4,4 C 97 % 1016,1 hPa 0,0 l/m 0,0 km/h (0 Bft) S 169 0 min 0,000 mm 0,0 UV-I 0 W/m -3,0 C -2,6 C 1,6 km/h (1 Bft) 98,00 %
01.12.2017 17:36 -2,6 C 4,4 C 97 % 1016,1 hPa 0,0 l/m 0,9 km/h (0 Bft) S 169 0 min 0,000 mm 0,0 UV-I 0 W/m -3,0 C -2,6 C 3,2 km/h (1 Bft) 96,00 %
01.12.2017 17:38 -2,7 C 4,4 C 97 % 1016,1 hPa 0,0 l/m 0,4 km/h (0 Bft) S 169 0 min 0,000 mm 0,0 UV-I 0 W/m -3,1 C -2,7 C 3,2 km/h (1 Bft) 97,73 %
01.12.2017 17:40 -2,6 C 4,4 C 97 % 1016,1 hPa 0,0 l/m 2,8 km/h (1 Bft) S 169 0 min 0,000 mm 0,0 UV-I 0 W/m -3,0 C -2,6 C 6,4 km/h (2 Bft) 98,00 %
01.12.2017 17:42 -2,4 C 4,4 C 97 % 1016,1 hPa 0,0 l/m 2,6 km/h (1 Bft) S 169 0 min 0,000 mm 0,0 UV-I 0 W/m -2,8 C -2,4 C 6,4 km/h (2 Bft) 93,62 %
01.12.2017 17:44 -2,4 C 4,4 C 97 % 1016,1 hPa 0,0 l/m 0,8 km/h (0 Bft) S 169 0 min 0,000 mm 0,0 UV-I 0 W/m -2,8 C -2,4 C 1,6 km/h (1 Bft) 96,00 %
01.12.2017 17:46 -2,4 C 4,4 C 97 % 1016,1 hPa 0,0 l/m 1,7 km/h (1 Bft) S 169 0 min 0,000 mm 0,0 UV-I 0 W/m -2,8 C -2,4 C 3,2 km/h (1 Bft) 100,00 %
01.12.2017 17:48 -2,4 C 4,4 C 97 % 1016,1 hPa 0,0 l/m 1,9 km/h (1 Bft) S 169 0 min 0,000 mm 0,0 UV-I 0 W/m -2,8 C -2,4 C 3,2 km/h (1 Bft) 95,74 %
01.12.2017 17:50 -2,5 C 4,4 C 97 % 1016,2 hPa 0,0 l/m 1,8 km/h (1 Bft) S 169 0 min 0,000 mm 0,0 UV-I 0 W/m -2,9 C -2,5 C 3,2 km/h (1 Bft) 95,74 %
01.12.2017 17:52 -2,6 C 4,4 C 97 % 1016,2 hPa 0,0 l/m 1,9 km/h (1 Bft) S 169 0 min 0,000 mm 0,0 UV-I 0 W/m -3,0 C -2,6 C 3,2 km/h (1 Bft) 95,45 %
01.12.2017 17:54 -2,7 C 4,4 C 97 % 1016,2 hPa 0,0 l/m 2,1 km/h (1 Bft) S 169 0 min 0,000 mm 0,0 UV-I 0 W/m -3,1 C -2,7 C 3,2 km/h (1 Bft) 98,11 %
01.12.2017 17:56 -2,7 C 4,4 C 97 % 1016,3 hPa 0,0 l/m 1,9 km/h (1 Bft) S 169 0 min 0,000 mm 0,0 UV-I 0 W/m -3,1 C -2,7 C 3,2 km/h (1 Bft) 97,87 %
01.12.2017 17:58 -2,8 C 4,4 C 97 % 1016,3 hPa 0,0 l/m 3,3 km/h (1 Bft) S 169 0 min 0,000 mm 0,0 UV-I 0 W/m -3,2 C -2,8 C 6,4 km/h (2 Bft) 98,00 %
01.12.2017 18:00 -2,8 C 4,4 C 97 % 1016,3 hPa 0,0 l/m 3,5 km/h (1 Bft) S 169 0 min 0,000 mm 0,0 UV-I 0 W/m -3,2 C -2,8 C 6,4 km/h (2 Bft) 95,83 %
01.12.2017 18:02 -2,8 C 4,4 C 97 % 1016,3 hPa 0,0 l/m 3,6 km/h (1 Bft) S 169 0 min 0,000 mm 0,0 UV-I 0 W/m -3,2 C -2,8 C 6,4 km/h (2 Bft) 98,44 %
01.12.2017 18:04 -2,8 C 4,4 C 97 % 1016,3 hPa 0,0 l/m 3,1 km/h (1 Bft) S 169 0 min 0,000 mm 0,0 UV-I 0 W/m -3,2 C -2,8 C 6,4 km/h (2 Bft) 98,00 %
01.12.2017 18:06 -2,8 C 4,4 C 97 % 1016,4 hPa 0,0 l/m 0,7 km/h (0 Bft) S 169 0 min 0,000 mm 0,0 UV-I 0 W/m -3,2 C -2,8 C 3,2 km/h (1 Bft) 95,12 %
01.12.2017 18:08 -2,9 C 4,4 C 97 % 1016,4 hPa 0,0 l/m 0,2 km/h (0 Bft) S 169 0 min 0,000 mm 0,0 UV-I 0 W/m -3,3 C -2,9 C 1,6 km/h (1 Bft) 100,00 %
01.12.2017 18:10 -2,9 C 4,4 C 97 % 1016,4 hPa 0,0 l/m 3,3 km/h (1 Bft) S 169 0 min 0,000 mm 0,0 UV-I 0 W/m -3,3 C -2,9 C 6,4 km/h (2 Bft) 97,62 %
01.12.2017 18:12 -2,8 C 4,4 C 97 % 1016,5 hPa 0,0 l/m 3,6 km/h (1 Bft) S 169 0 min 0,000 mm 0,0 UV-I 0 W/m -3,2 C -2,8 C 6,4 km/h (2 Bft) 100,00 %
01.12.2017 18:14 -2,8 C 4,4 C 97 % 1016,5 hPa 0,0 l/m 3,8 km/h (1 Bft) S 169 0 min 0,000 mm 0,0 UV-I 0 W/m -3,2 C -2,8 C 6,4 km/h (2 Bft) 98,00 %
01.12.2017 18:16 -2,9 C 4,4 C 97 % 1016,5 hPa 0,0 l/m 2,6 km/h (1 Bft) S 169 0 min 0,000 mm 0,0 UV-I 0 W/m -3,3 C -2,9 C 6,4 km/h (2 Bft) 100,00 %
01.12.2017 18:18 -3,0 C 4,4 C 97 % 1016,5 hPa 0,0 l/m 1,9 km/h (1 Bft) S 169 0 min 0,000 mm 0,0 UV-I 0 W/m -3,4 C -3,0 C 3,2 km/h (1 Bft) 98,00 %
01.12.2017 18:20 -3,0 C 4,4 C 97 % 1016,5 hPa 0,0 l/m 3,4 km/h (1 Bft) S 169 0 min 0,000 mm 0,0 UV-I 0 W/m -3,4 C -3,0 C 6,4 km/h (2 Bft) 100,00 %
01.12.2017 18:22 -2,9 C 4,4 C 97 % 1016,6 hPa 0,0 l/m 2,8 km/h (1 Bft) S 169 0 min 0,000 mm 0,0 UV-I 0 W/m -3,3 C -2,9 C 3,2 km/h (1 Bft) 100,00 %
01.12.2017 18:24 -2,9 C 4,4 C 97 % 1016,6 hPa 0,0 l/m 3,1 km/h (1 Bft) S 169 0 min 0,000 mm 0,0 UV-I 0 W/m -3,3 C -2,9 C 6,4 km/h (2 Bft) 98,11 %
01.12.2017 18:26 -2,8 C 4,4 C 97 % 1016,6 hPa 0,0 l/m 1,7 km/h (1 Bft) S 169 0 min 0,000 mm 0,0 UV-I 0 W/m -3,2 C -2,8 C 3,2 km/h (1 Bft) 100,00 %
01.12.2017 18:28 -2,8 C 4,4 C 97 % 1016,6 hPa 0,0 l/m 3,4 km/h (1 Bft) S 169 0 min 0,000 mm 0,0 UV-I 0 W/m -3,2 C -2,8 C 6,4 km/h (2 Bft) 96,00 %
01.12.2017 18:30 -2,8 C 4,4 C 97 % 1016,6 hPa 0,0 l/m 3,3 km/h (1 Bft) S 169 0 min 0,000 mm 0,0 UV-I 0 W/m -3,2 C -2,8 C 6,4 km/h (2 Bft) 100,00 %
01.12.2017 18:32 -3,1 C 4,4 C 97 % 1016,6 hPa 0,0 l/m 0,8 km/h (0 Bft) S 169 0 min 0,000 mm 0,0 UV-I 0 W/m -3,5 C -3,1 C 3,2 km/h (1 Bft) 100,00 %
01.12.2017 18:34 -3,1 C 4,4 C 97 % 1016,6 hPa 0,0 l/m 0,3 km/h (0 Bft) S 169 0 min 0,000 mm 0,0 UV-I 0 W/m -3,5 C -3,1 C 1,6 km/h (1 Bft) 100,00 %
01.12.2017 18:36 -3,0 C 4,4 C 97 % 1016,6 hPa 0,0 l/m 0,0 km/h (0 Bft) S 169 0 min 0,000 mm 0,0 UV-I 0 W/m -3,4 C -3,0 C 1,6 km/h (1 Bft) 100,00 %
01.12.2017 18:38 -2,9 C 4,4 C 97 % 1016,7 hPa 0,0 l/m 0,4 km/h (0 Bft) S 169 0 min 0,000 mm 0,0 UV-I 0 W/m -3,3 C -2,9 C 1,6 km/h (1 Bft) 100,00 %
01.12.2017 18:40 -2,9 C 4,4 C 97 % 1016,7 hPa 0,0 l/m 0,0 km/h (0 Bft) S 169 0 min 0,000 mm 0,0 UV-I 0 W/m -3,3 C -2,9 C 1,6 km/h (1 Bft) 98,00 %
01.12.2017 18:42 -2,9 C 4,4 C 97 % 1016,7 hPa 0,0 l/m 1,4 km/h (1 Bft) S 169 0 min 0,000 mm 0,0 UV-I 0 W/m -3,3 C -2,9 C 3,2 km/h (1 Bft) 100,00 %
01.12.2017 18:44 -2,9 C 4,4 C 97 % 1016,7 hPa 0,0 l/m 2,1 km/h (1 Bft) S 169 0 min 0,000 mm 0,0 UV-I 0 W/m -3,3 C -2,9 C 6,4 km/h (2 Bft) 100,00 %
01.12.2017 18:46 -2,8 C 4,4 C 97 % 1016,7 hPa 0,0 l/m 0,0 km/h (0 Bft) S 169 0 min 0,000 mm 0,0 UV-I 0 W/m -3,2 C -2,8 C 0,0 km/h (0 Bft) 100,00 %
01.12.2017 18:48 -2,8 C 4,4 C 97 % 1016,7 hPa 0,0 l/m 0,5 km/h (0 Bft) S 169 0 min 0,000 mm 0,0 UV-I 0 W/m -3,2 C -2,8 C 3,2 km/h (1 Bft) 97,87 %
01.12.2017 18:50 -2,8 C 4,4 C 97 % 1016,7 hPa 0,0 l/m 1,9 km/h (1 Bft) S 169 0 min 0,000 mm 0,0 UV-I 0 W/m -3,2 C -2,8 C 6,4 km/h (2 Bft) 100,00 %
01.12.2017 18:52 -2,9 C 4,4 C 97 % 1016,8 hPa 0,0 l/m 0,0 km/h (0 Bft) S 169 0 min 0,000 mm 0,0 UV-I 0 W/m -3,3 C -2,9 C 0,0 km/h (0 Bft) 98,11 %
01.12.2017 18:54 -2,9 C 4,4 C 97 % 1016,8 hPa 0,0 l/m 0,0 km/h (0 Bft) S 169 0 min 0,000 mm 0,0 UV-I 0 W/m -3,3 C -2,9 C 0,0 km/h (0 Bft) 97,22 %
01.12.2017 18:56 -2,9 C 4,4 C 97 % 1016,9 hPa 0,0 l/m 0,0 km/h (0 Bft) S 169 0 min 0,000 mm 0,0 UV-I 0 W/m -3,3 C -2,9 C 0,0 km/h (0 Bft) 98,00 %
01.12.2017 18:58 -3,1 C 4,4 C 97 % 1016,9 hPa 0,0 l/m 1,2 km/h (1 Bft) S 169 0 min 0,000 mm 0,0 UV-I 0 W/m -3,5 C -3,1 C 3,2 km/h (1 Bft) 98,00 %
01.12.2017 19:00 -3,2 C 4,4 C 97 % 1016,9 hPa 0,0 l/m 2,9 km/h (1 Bft) S 169 0 min 0,000 mm 0,0 UV-I 0 W/m -3,6 C -3,2 C 6,4 km/h (2 Bft) 97,56 %
01.12.2017 19:02 -3,3 C 4,4 C 96 % 1016,9 hPa 0,0 l/m 2,9 km/h (1 Bft) S 169 0 min 0,000 mm 0,0 UV-I 0 W/m -3,8 C -3,3 C 6,4 km/h (2 Bft) 96,23 %
01.12.2017 19:04 -3,4 C 4,4 C 96 % 1016,9 hPa 0,0 l/m 3,3 km/h (1 Bft) S 169 0 min 0,000 mm 0,0 UV-I 0 W/m -3,9 C -3,4 C 6,4 km/h (2 Bft) 97,73 %
01.12.2017 19:06 -3,6 C 4,4 C 96 % 1016,9 hPa 0,0 l/m 3,4 km/h (1 Bft) S 169 0 min 0,000 mm 0,0 UV-I 0 W/m -4,1 C -3,6 C 6,4 km/h (2 Bft) 96,23 %
01.12.2017 19:08 -3,6 C 4,4 C 96 % 1016,9 hPa 0,0 l/m 2,6 km/h (1 Bft) S 169 0 min 0,000 mm 0,0 UV-I 0 W/m -4,1 C -3,6 C 3,2 km/h (1 Bft) 97,37 %
01.12.2017 19:10 -3,6 C 4,4 C 96 % 1016,9 hPa 0,0 l/m 2,3 km/h (1 Bft) S 169 0 min 0,000 mm 0,0 UV-I 0 W/m -4,1 C -3,6 C 3,2 km/h (1 Bft) 96,23 %
01.12.2017 19:12 -3,6 C 4,4 C 97 % 1016,9 hPa 0,0 l/m 5,2 km/h (1 Bft) S 169 0 min 0,000 mm 0,0 UV-I 0 W/m -4,0 C -3,6 C 6,4 km/h (2 Bft) 97,44 %
01.12.2017 19:14 -3,6 C 4,4 C 97 % 1017,0 hPa 0,0 l/m 2,9 km/h (1 Bft) S 169 0 min 0,000 mm 0,0 UV-I 0 W/m -4,0 C -3,6 C 6,4 km/h (2 Bft) 98,11 %
01.12.2017 19:16 -3,6 C 4,4 C 97 % 1016,9 hPa 0,0 l/m 2,6 km/h (1 Bft) S 169 0 min 0,000 mm 0,0 UV-I 0 W/m -4,0 C -3,6 C 3,2 km/h (1 Bft) 95,12 %
01.12.2017 19:18 -3,7 C 4,4 C 97 % 1016,9 hPa 0,0 l/m 2,3 km/h (1 Bft) S 169 0 min 0,000 mm 0,0 UV-I 0 W/m -4,1 C -3,7 C 3,2 km/h (1 Bft) 95,74 %
01.12.2017 19:20 -3,7 C 4,4 C 96 % 1017,0 hPa 0,0 l/m 2,4 km/h (1 Bft) S 169 0 min 0,000 mm 0,0 UV-I 0 W/m -4,2 C -3,7 C 3,2 km/h (1 Bft) 97,73 %
01.12.2017 19:22 -3,7 C 4,4 C 96 % 1016,9 hPa 0,0 l/m 2,0 km/h (1 Bft) S 169 0 min 0,000 mm 0,0 UV-I 0 W/m -4,2 C -3,7 C 6,4 km/h (2 Bft) 98,00 %
01.12.2017 19:24 -3,7 C 4,4 C 97 % 1016,9 hPa 0,0 l/m 0,8 km/h (0 Bft) S 169 0 min 0,000 mm 0,0 UV-I 0 W/m -4,1 C -3,7 C 3,2 km/h (1 Bft) 97,87 %
01.12.2017 19:26 -3,6 C 4,4 C 97 % 1017,0 hPa 0,0 l/m 2,2 km/h (1 Bft) S 169 0 min 0,000 mm 0,0 UV-I 0 W/m -4,0 C -3,6 C 3,2 km/h (1 Bft) 96,43 %
01.12.2017 19:28 -3,7 C 4,4 C 97 % 1017,0 hPa 0,0 l/m 0,6 km/h (0 Bft) S 169 0 min 0,000 mm 0,0 UV-I 0 W/m -4,1 C -3,7 C 3,2 km/h (1 Bft) 100,00 %
01.12.2017 19:30 -3,7 C 4,4 C 97 % 1017,0 hPa 0,0 l/m 1,1 km/h (1 Bft) S 169 0 min 0,000 mm 0,0 UV-I 0 W/m -4,1 C -3,7 C 3,2 km/h (1 Bft) 94,34 %
01.12.2017 19:32 -3,7 C 4,4 C 96 % 1017,1 hPa 0,0 l/m 4,5 km/h (1 Bft) S 169 0 min 0,000 mm 0,0 UV-I 0 W/m -4,2 C -3,7 C 6,4 km/h (2 Bft) 97,44 %
01.12.2017 19:34 -3,8 C 4,4 C 96 % 1017,1 hPa 0,0 l/m 3,6 km/h (1 Bft) S 169 0 min 0,000 mm 0,0 UV-I 0 W/m -4,3 C -3,8 C 6,4 km/h (2 Bft) 96,36 %
01.12.2017 19:36 -3,8 C 4,4 C 96 % 1017,1 hPa 0,0 l/m 4,9 km/h (1 Bft) S 169 0 min 0,000 mm 0,0 UV-I 0 W/m -4,3 C -3,8 C 6,4 km/h (2 Bft) 100,00 %
01.12.2017 19:38 -3,8 C 4,4 C 96 % 1017,1 hPa 0,0 l/m 3,5 km/h (1 Bft) S 169 0 min 0,000 mm 0,0 UV-I 0 W/m -4,3 C -3,8 C 6,4 km/h (2 Bft) 96,00 %
01.12.2017 19:40 -3,8 C 4,4 C 96 % 1017,1 hPa 0,0 l/m 4,7 km/h (1 Bft) S 169 0 min 0,000 mm 0,0 UV-I 0 W/m -4,3 C -3,8 C 6,4 km/h (2 Bft) 97,87 %
01.12.2017 19:42 -3,8 C 4,4 C 96 % 1017,2 hPa 0,0 l/m 4,6 km/h (1 Bft) S 169 0 min 0,000 mm 0,0 UV-I 0 W/m -4,3 C -3,8 C 6,4 km/h (2 Bft) 97,87 %
01.12.2017 19:44 -3,8 C 4,4 C 96 % 1017,2 hPa 0,0 l/m 3,8 km/h (1 Bft) S 169 0 min 0,000 mm 0,0 UV-I 0 W/m -4,3 C -3,8 C 6,4 km/h (2 Bft) 97,87 %
01.12.2017 19:46 -3,8 C 4,4 C 96 % 1017,2 hPa 0,0 l/m 2,9 km/h (1 Bft) S 169 0 min 0,000 mm 0,0 UV-I 0 W/m -4,3 C -3,8 C 6,4 km/h (2 Bft) 94,00 %
01.12.2017 19:48 -3,7 C 4,4 C 96 % 1017,2 hPa 0,0 l/m 2,6 km/h (1 Bft) S 169 0 min 0,000 mm 0,0 UV-I 0 W/m -4,2 C -3,7 C 3,2 km/h (1 Bft) 97,37 %
01.12.2017 19:50 -3,7 C 4,4 C 96 % 1017,3 hPa 0,0 l/m 4,2 km/h (1 Bft) S 169 0 min 0,000 mm 0,0 UV-I 0 W/m -4,2 C -3,7 C 6,4 km/h (2 Bft) 94,34 %
01.12.2017 19:52 -3,7 C 4,4 C 96 % 1017,3 hPa 0,0 l/m 3,7 km/h (1 Bft) S 169 0 min 0,000 mm 0,0 UV-I 0 W/m -4,2 C -3,7 C 6,4 km/h (2 Bft) 97,56 %
01.12.2017 19:54 -3,7 C 4,4 C 96 % 1017,3 hPa 0,0 l/m 4,2 km/h (1 Bft) S 169 0 min 0,000 mm 0,0 UV-I 0 W/m -4,2 C -3,7 C 6,4 km/h (2 Bft) 98,00 %
01.12.2017 19:56 -3,7 C 4,4 C 97 % 1017,4 hPa 0,0 l/m 2,7 km/h (1 Bft) S 169 0 min 0,000 mm 0,0 UV-I 0 W/m -4,1 C -3,7 C 6,4 km/h (2 Bft) 97,87 %
01.12.2017 19:58 -3,7 C 4,4 C 97 % 1017,5 hPa 0,0 l/m 2,0 km/h (1 Bft) S 169 0 min 0,000 mm 0,0 UV-I 0 W/m -4,1 C -3,7 C 3,2 km/h (1 Bft) 97,73 %
01.12.2017 20:00 -3,6 C 4,4 C 97 % 1017,4 hPa 0,0 l/m 0,3 km/h (0 Bft) S 169 0 min 0,000 mm 0,0 UV-I 0 W/m -4,0 C -3,6 C 1,6 km/h (1 Bft) 97,87 %
01.12.2017 20:02 -3,6 C 4,4 C 97 % 1017,5 hPa 0,0 l/m 0,1 km/h (0 Bft) S 169 0 min 0,000 mm 0,0 UV-I 0 W/m -4,0 C -3,6 C 1,6 km/h (1 Bft) 98,11 %
01.12.2017 20:04 -3,4 C 4,4 C 97 % 1017,5 hPa 0,0 l/m 0,1 km/h (0 Bft) S 169 0 min 0,000 mm 0,0 UV-I 0 W/m -3,8 C -3,4 C 1,6 km/h (1 Bft) 93,18 %
01.12.2017 20:06 -3,3 C 4,4 C 97 % 1017,5 hPa 0,0 l/m 1,4 km/h (1 Bft) S 169 0 min 0,000 mm 0,0 UV-I 0 W/m -3,7 C -3,3 C 3,2 km/h (1 Bft) 97,96 %
01.12.2017 20:08 -3,3 C 4,4 C 97 % 1017,5 hPa 0,0 l/m 2,3 km/h (1 Bft) S 169 0 min 0,000 mm 0,0 UV-I 0 W/m -3,7 C -3,3 C 3,2 km/h (1 Bft) 97,22 %
01.12.2017 20:10 -3,3 C 4,4 C 97 % 1017,5 hPa 0,0 l/m 1,7 km/h (1 Bft) S 169 0 min 0,000 mm 0,0 UV-I 0 W/m -3,7 C -3,3 C 6,4 km/h (2 Bft) 98,36 %
01.12.2017 20:12 -3,2 C 4,4 C 97 % 1017,5 hPa 0,0 l/m 0,4 km/h (0 Bft) S 169 0 min 0,000 mm 0,0 UV-I 0 W/m -3,6 C -3,2 C 1,6 km/h (1 Bft) 97,22 %
01.12.2017 20:14 -3,2 C 4,4 C 97 % 1017,5 hPa 0,0 l/m 1,3 km/h (1 Bft) S 169 0 min 0,000 mm 0,0 UV-I 0 W/m -3,6 C -3,2 C 3,2 km/h (1 Bft) 98,00 %
01.12.2017 20:16 -3,2 C 4,4 C 97 % 1017,5 hPa 0,0 l/m 0,7 km/h (0 Bft) S 169 0 min 0,000 mm 0,0 UV-I 0 W/m -3,6 C -3,2 C 3,2 km/h (1 Bft) 97,87 %
01.12.2017 20:18 -3,1 C 4,4 C 97 % 1017,5 hPa 0,0 l/m 1,4 km/h (1 Bft) S 169 0 min 0,000 mm 0,0 UV-I 0 W/m -3,5 C -3,1 C 3,2 km/h (1 Bft) 98,00 %
01.12.2017 20:20 -3,1 C 4,4 C 97 % 1017,6 hPa 0,0 l/m 1,1 km/h (1 Bft) S 169 0 min 0,000 mm 0,0 UV-I 0 W/m -3,5 C -3,1 C 3,2 km/h (1 Bft) 100,00 %
01.12.2017 20:22 -3,1 C 4,4 C 97 % 1017,6 hPa 0,0 l/m 1,6 km/h (1 Bft) S 169 0 min 0,000 mm 0,0 UV-I 0 W/m -3,5 C -3,1 C 3,2 km/h (1 Bft) 100,00 %
01.12.2017 20:24 -3,0 C 4,4 C 97 % 1017,6 hPa 0,0 l/m 1,3 km/h (1 Bft) S 169 0 min 0,000 mm 0,0 UV-I 0 W/m -3,4 C -3,0 C 3,2 km/h (1 Bft) 100,00 %
01.12.2017 20:26 -2,9 C 4,4 C 97 % 1017,6 hPa 0,0 l/m 1,7 km/h (1 Bft) S 169 0 min 0,000 mm 0,0 UV-I 0 W/m -3,3 C -2,9 C 6,4 km/h (2 Bft) 100,00 %
01.12.2017 20:28 -2,9 C 4,4 C 97 % 1017,6 hPa 0,0 l/m 1,6 km/h (1 Bft) S 169 0 min 0,000 mm 0,0 UV-I 0 W/m -3,3 C -2,9 C 3,2 km/h (1 Bft) 100,00 %
01.12.2017 20:30 -2,9 C 4,4 C 97 % 1017,7 hPa 0,0 l/m 0,9 km/h (0 Bft) S 169 0 min 0,000 mm 0,0 UV-I 0 W/m -3,3 C -2,9 C 3,2 km/h (1 Bft) 98,11 %
01.12.2017 20:32 -2,8 C 4,4 C 97 % 1017,7 hPa 0,0 l/m 0,8 km/h (0 Bft) S 169 0 min 0,000 mm 0,0 UV-I 0 W/m -3,2 C -2,8 C 3,2 km/h (1 Bft) 93,62 %
01.12.2017 20:34 -2,8 C 4,4 C 97 % 1017,7 hPa 0,0 l/m 2,3 km/h (1 Bft) S 169 0 min 0,000 mm 0,0 UV-I 0 W/m -3,2 C -2,8 C 6,4 km/h (2 Bft) 100,00 %
01.12.2017 20:36 -2,8 C 4,4 C 97 % 1017,8 hPa 0,0 l/m 2,7 km/h (1 Bft) S-SO 167 0 min 0,000 mm 0,0 UV-I 0 W/m -3,2 C -2,8 C 6,4 km/h (2 Bft) 100,00 %
01.12.2017 20:38 -2,8 C 4,4 C 97 % 1017,8 hPa 0,0 l/m 4,2 km/h (1 Bft) S-SO 166 0 min 0,000 mm 0,0 UV-I 0 W/m -3,2 C -2,8 C 8,0 km/h (2 Bft) 100,00 %
01.12.2017 20:40 -2,8 C 4,4 C 97 % 1017,8 hPa 0,0 l/m 2,4 km/h (1 Bft) S-SO 166 0 min 0,000 mm 0,0 UV-I 0 W/m -3,2 C -2,8 C 6,4 km/h (2 Bft) 98,21 %
01.12.2017 20:42 -2,7 C 4,4 C 97 % 1017,8 hPa 0,0 l/m 0,8 km/h (0 Bft) S-SO 166 0 min 0,000 mm 0,0 UV-I 0 W/m -3,1 C -2,7 C 4,8 km/h (1 Bft) 98,00 %
01.12.2017 20:44 -2,7 C 4,4 C 97 % 1017,9 hPa 0,0 l/m 0,8 km/h (0 Bft) S-SO 166 0 min 0,000 mm 0,0 UV-I 0 W/m -3,1 C -2,7 C 1,6 km/h (1 Bft) 97,87 %
01.12.2017 20:46 -2,7 C 4,4 C 97 % 1017,9 hPa 0,0 l/m 0,3 km/h (0 Bft) S-SO 166 0 min 0,000 mm 0,0 UV-I 0 W/m -3,1 C -2,7 C 1,6 km/h (1 Bft) 97,56 %
01.12.2017 20:48 -2,7 C 4,4 C 97 % 1017,9 hPa 0,0 l/m 0,6 km/h (0 Bft) S-SO 166 0 min 0,000 mm 0,0 UV-I 0 W/m -3,1 C -2,7 C 4,8 km/h (1 Bft) 97,62 %
01.12.2017 20:50 -2,6 C 4,4 C 97 % 1017,9 hPa 0,0 l/m 1,0 km/h (0 Bft) S-SO 166 0 min 0,000 mm 0,0 UV-I 0 W/m -3,0 C -2,6 C 4,8 km/h (1 Bft) 100,00 %
01.12.2017 20:52 -2,6 C 4,4 C 97 % 1017,9 hPa 0,0 l/m 1,8 km/h (1 Bft) S-SO 166 0 min 0,000 mm 0,0 UV-I 0 W/m -3,0 C -2,6 C 4,8 km/h (1 Bft) 100,00 %
01.12.2017 20:54 -2,6 C 4,4 C 97 % 1017,9 hPa 0,0 l/m 2,4 km/h (1 Bft) S-SO 166 0 min 0,000 mm 0,0 UV-I 0 W/m -3,0 C -2,6 C 4,8 km/h (1 Bft) 93,10 %
01.12.2017 20:56 -2,7 C 4,4 C 97 % 1017,9 hPa 0,0 l/m 2,9 km/h (1 Bft) S-SO 166 0 min 0,000 mm 0,0 UV-I 0 W/m -3,1 C -2,7 C 4,8 km/h (1 Bft) 100,00 %
01.12.2017 20:58 -2,7 C 4,4 C 97 % 1018,0 hPa 0,0 l/m 2,9 km/h (1 Bft) S-SO 166 0 min 0,000 mm 0,0 UV-I 0 W/m -3,1 C -2,7 C 8,0 km/h (2 Bft) 100,00 %
01.12.2017 21:00 -2,7 C 4,4 C 97 % 1017,9 hPa 0,0 l/m 1,0 km/h (0 Bft) S-SO 166 0 min 0,000 mm 0,0 UV-I 0 W/m -3,1 C -2,7 C 4,8 km/h (1 Bft) 97,37 %
01.12.2017 21:02 -2,7 C 4,4 C 97 % 1018,0 hPa 0,0 l/m 4,3 km/h (1 Bft) S-SO 166 0 min 0,000 mm 0,0 UV-I 0 W/m -3,1 C -2,7 C 6,4 km/h (2 Bft) 100,00 %
01.12.2017 21:04 -2,7 C 4,4 C 97 % 1018,0 hPa 0,0 l/m 4,1 km/h (1 Bft) S-SO 166 0 min 0,000 mm 0,0 UV-I 0 W/m -3,1 C -2,7 C 6,4 km/h (2 Bft) 100,00 %
01.12.2017 21:06 -2,7 C 4,4 C 97 % 1018,1 hPa 0,0 l/m 2,0 km/h (1 Bft) S-SO 166 0 min 0,000 mm 0,0 UV-I 0 W/m -3,1 C -2,7 C 6,4 km/h (2 Bft) 100,00 %
01.12.2017 21:08 -2,7 C 4,4 C 97 % 1018,2 hPa 0,0 l/m 4,5 km/h (1 Bft) S-SO 166 0 min 0,000 mm 0,0 UV-I 0 W/m -3,1 C -2,7 C 6,4 km/h (2 Bft) 100,00 %
01.12.2017 21:10 -2,7 C 4,4 C 97 % 1018,2 hPa 0,0 l/m 5,2 km/h (1 Bft) S-SO 167 0 min 0,000 mm 0,0 UV-I 0 W/m -3,1 C -2,7 C 6,4 km/h (2 Bft) 100,00 %
01.12.2017 21:12 -2,6 C 4,4 C 97 % 1018,2 hPa 0,0 l/m 5,2 km/h (1 Bft) S-SO 167 0 min 0,000 mm 0,0 UV-I 0 W/m -3,0 C -2,6 C 6,4 km/h (2 Bft) 98,31 %
01.12.2017 21:14 -2,6 C 4,4 C 97 % 1018,2 hPa 0,0 l/m 6,2 km/h (2 Bft) S-SO 168 0 min 0,000 mm 0,0 UV-I 0 W/m -3,0 C -2,6 C 8,0 km/h (2 Bft) 100,00 %
01.12.2017 21:16 -2,6 C 4,4 C 97 % 1018,2 hPa 0,0 l/m 3,3 km/h (1 Bft) S-SO 168 0 min 0,000 mm 0,0 UV-I 0 W/m -3,0 C -2,6 C 6,4 km/h (2 Bft) 100,00 %
01.12.2017 21:18 -2,6 C 4,4 C 97 % 1018,2 hPa 0,0 l/m 3,1 km/h (1 Bft) S-SO 168 0 min 0,000 mm 0,0 UV-I 0 W/m -3,0 C -2,6 C 6,4 km/h (2 Bft) 100,00 %
01.12.2017 21:20 -2,6 C 4,4 C 97 % 1018,2 hPa 0,0 l/m 1,3 km/h (1 Bft) S-SO 168 0 min 0,000 mm 0,0 UV-I 0 W/m -3,0 C -2,6 C 3,2 km/h (1 Bft) 100,00 %
01.12.2017 21:22 -2,6 C 4,4 C 97 % 1018,1 hPa 0,0 l/m 1,3 km/h (1 Bft) S-SO 168 0 min 0,000 mm 0,0 UV-I 0 W/m -3,0 C -2,6 C 1,6 km/h (1 Bft) 98,00 %
01.12.2017 21:24 -2,6 C 4,4 C 97 % 1018,2 hPa 0,0 l/m 1,1 km/h (1 Bft) S-SO 168 0 min 0,000 mm 0,0 UV-I 0 W/m -3,0 C -2,6 C 3,2 km/h (1 Bft) 97,37 %
01.12.2017 21:26 -2,6 C 4,4 C 97 % 1018,2 hPa 0,0 l/m 2,5 km/h (1 Bft) S-SO 168 0 min 0,000 mm 0,0 UV-I 0 W/m -3,0 C -2,6 C 3,2 km/h (1 Bft) 100,00 %
01.12.2017 21:28 -2,6 C 4,4 C 97 % 1018,2 hPa 0,0 l/m 0,8 km/h (0 Bft) S-SO 168 0 min 0,000 mm 0,0 UV-I 0 W/m -3,0 C -2,6 C 3,2 km/h (1 Bft) 97,87 %
01.12.2017 21:30 -2,6 C 4,4 C 97 % 1018,3 hPa 0,0 l/m 2,0 km/h (1 Bft) S-SO 168 0 min 0,000 mm 0,0 UV-I 0 W/m -3,0 C -2,6 C 3,2 km/h (1 Bft) 100,00 %
01.12.2017 21:32 -2,6 C 4,4 C 97 % 1018,3 hPa 0,0 l/m 1,7 km/h (1 Bft) S-SO 168 0 min 0,000 mm 0,0 UV-I 0 W/m -3,0 C -2,6 C 6,4 km/h (2 Bft) 100,00 %
01.12.2017 21:34 -2,6 C 4,4 C 97 % 1018,3 hPa 0,0 l/m 3,1 km/h (1 Bft) S-SO 168 0 min 0,000 mm 0,0 UV-I 0 W/m -3,0 C -2,6 C 6,4 km/h (2 Bft) 100,00 %
01.12.2017 21:36 -2,6 C 4,4 C 97 % 1018,3 hPa 0,0 l/m 3,0 km/h (1 Bft) S-SO 168 0 min 0,000 mm 0,0 UV-I 0 W/m -3,0 C -2,6 C 3,2 km/h (1 Bft) 97,87 %
01.12.2017 21:38 -2,6 C 4,4 C 97 % 1018,3 hPa 0,0 l/m 3,0 km/h (1 Bft) S-SO 168 0 min 0,000 mm 0,0 UV-I 0 W/m -3,0 C -2,6 C 6,4 km/h (2 Bft) 97,62 %
01.12.2017 21:40 -2,6 C 4,4 C 97 % 1018,4 hPa 0,0 l/m 3,7 km/h (1 Bft) S-SO 168 0 min 0,000 mm 0,0 UV-I 0 W/m -3,0 C -2,6 C 6,4 km/h (2 Bft) 100,00 %
01.12.2017 21:42 -2,6 C 4,4 C 97 % 1018,3 hPa 0,0 l/m 3,5 km/h (1 Bft) S-SO 168 0 min 0,000 mm 0,0 UV-I 0 W/m -3,0 C -2,6 C 6,4 km/h (2 Bft) 97,37 %
01.12.2017 21:44 -2,6 C 4,4 C 97 % 1018,3 hPa 0,0 l/m 2,0 km/h (1 Bft) S-SO 168 0 min 0,000 mm 0,0 UV-I 0 W/m -3,0 C -2,6 C 3,2 km/h (1 Bft) 96,23 %
01.12.2017 21:46 -2,6 C 4,4 C 97 % 1018,3 hPa 0,0 l/m 1,4 km/h (1 Bft) S-SO 168 0 min 0,000 mm 0,0 UV-I 0 W/m -3,0 C -2,6 C 3,2 km/h (1 Bft) 97,56 %
01.12.2017 21:48 -2,6 C 4,4 C 97 % 1018,3 hPa 0,0 l/m 1,1 km/h (1 Bft) S-SO 168 0 min 0,000 mm 0,0 UV-I 0 W/m -3,0 C -2,6 C 3,2 km/h (1 Bft) 98,00 %
01.12.2017 21:50 -2,6 C 4,4 C 97 % 1018,3 hPa 0,0 l/m 1,8 km/h (1 Bft) S-SO 168 0 min 0,000 mm 0,0 UV-I 0 W/m -3,0 C -2,6 C 3,2 km/h (1 Bft) 92,00 %
01.12.2017 21:52 -2,6 C 4,4 C 97 % 1018,3 hPa 0,0 l/m 0,0 km/h (0 Bft) S-SO 168 0 min 0,000 mm 0,0 UV-I 0 W/m -3,0 C -2,6 C 0,0 km/h (0 Bft) 95,24 %
01.12.2017 21:54 -2,6 C 4,4 C 97 % 1018,3 hPa 0,0 l/m 0,0 km/h (0 Bft) S-SO 168 0 min 0,000 mm 0,0 UV-I 0 W/m -3,0 C -2,6 C 0,0 km/h (0 Bft) 94,00 %
01.12.2017 21:56 -2,5 C 4,4 C 97 % 1018,4 hPa 0,0 l/m 0,0 km/h (0 Bft) S-SO 168 0 min 0,000 mm 0,0 UV-I 0 W/m -2,9 C -2,5 C 0,0 km/h (0 Bft) 95,74 %
01.12.2017 21:58 -2,4 C 4,4 C 97 % 1018,3 hPa 0,0 l/m 0,0 km/h (0 Bft) S-SO 168 0 min 0,000 mm 0,0 UV-I 0 W/m -2,8 C -2,4 C 0,0 km/h (0 Bft) 92,00 %
01.12.2017 22:00 -2,4 C 4,4 C 97 % 1018,4 hPa 0,0 l/m 0,9 km/h (0 Bft) S-SO 168 0 min 0,000 mm 0,0 UV-I 0 W/m -2,8 C -2,4 C 3,2 km/h (1 Bft) 92,00 %
01.12.2017 22:02 -2,4 C 4,4 C 97 % 1018,4 hPa 0,0 l/m 0,4 km/h (0 Bft) S-SO 168 0 min 0,000 mm 0,0 UV-I 0 W/m -2,8 C -2,4 C 1,6 km/h (1 Bft) 94,74 %
01.12.2017 22:04 -2,3 C 4,4 C 97 % 1018,4 hPa 0,0 l/m 0,0 km/h (0 Bft) S-SO 168 0 min 0,000 mm 0,0 UV-I 0 W/m -2,7 C -2,3 C 0,0 km/h (0 Bft) 94,34 %
01.12.2017 22:06 -2,3 C 4,4 C 97 % 1018,4 hPa 0,0 l/m 0,1 km/h (0 Bft) S-SO 168 0 min 0,000 mm 0,0 UV-I 0 W/m -2,7 C -2,3 C 1,6 km/h (1 Bft) 94,74 %
01.12.2017 22:08 -2,3 C 4,4 C 97 % 1018,4 hPa 0,0 l/m 1,5 km/h (1 Bft) S-SO 168 0 min 0,000 mm 0,0 UV-I 0 W/m -2,7 C -2,3 C 3,2 km/h (1 Bft) 94,00 %
01.12.2017 22:10 -2,2 C 4,4 C 97 % 1018,4 hPa 0,0 l/m 0,4 km/h (0 Bft) S-SO 168 0 min 0,000 mm 0,0 UV-I 0 W/m -2,6 C -2,2 C 1,6 km/h (1 Bft) 92,00 %
01.12.2017 22:12 -2,2 C 4,4 C 97 % 1018,4 hPa 0,0 l/m 0,2 km/h (0 Bft) S-SO 168 0 min 0,000 mm 0,0 UV-I 0 W/m -2,6 C -2,2 C 1,6 km/h (1 Bft) 96,15 %
01.12.2017 22:15 -2,2 C 4,4 C 97 % 1018,4 hPa 0,0 l/m 0,7 km/h (0 Bft) S-SO 168 0 min 0,000 mm 0,0 UV-I 0 W/m -2,6 C -2,2 C 3,2 km/h (1 Bft) 95,95 %
01.12.2017 22:16 -2,2 C 4,4 C 97 % 1018,4 hPa 0,0 l/m 2,3 km/h (1 Bft) SO 127 0 min 0,000 mm 0,0 UV-I 0 W/m -2,6 C -2,2 C 4,8 km/h (1 Bft) 100,00 %
01.12.2017 22:20 -2,2 C 4,4 C 97 % 1018,5 hPa 0,0 l/m 0,4 km/h (0 Bft) SO 127 0 min 0,000 mm 0,0 UV-I 0 W/m -2,6 C -2,2 C 3,2 km/h (1 Bft) 93,20 %
01.12.2017 22:22 -2,2 C 4,4 C 97 % 1018,5 hPa 0,0 l/m 0,8 km/h (0 Bft) SO 127 0 min 0,000 mm 0,0 UV-I 0 W/m -2,6 C -2,2 C 3,2 km/h (1 Bft) 97,14 %
01.12.2017 22:24 -2,2 C 4,4 C 97 % 1018,6 hPa 0,0 l/m 0,5 km/h (0 Bft) SO 127 0 min 0,000 mm 0,0 UV-I 0 W/m -2,6 C -2,2 C 1,6 km/h (1 Bft) 97,87 %
01.12.2017 22:26 -2,2 C 4,4 C 97 % 1018,6 hPa 0,0 l/m 0,1 km/h (0 Bft) SO 127 0 min 0,000 mm 0,0 UV-I 0 W/m -2,6 C -2,2 C 1,6 km/h (1 Bft) 98,00 %
01.12.2017 22:28 -2,3 C 4,4 C 97 % 1018,6 hPa 0,0 l/m 0,0 km/h (0 Bft) SO 127 0 min 0,000 mm 0,0 UV-I 0 W/m -2,7 C -2,3 C 0,0 km/h (0 Bft) 97,87 %
01.12.2017 22:30 -2,2 C 4,4 C 97 % 1018,6 hPa 0,0 l/m 0,0 km/h (0 Bft) SO 127 0 min 0,000 mm 0,0 UV-I 0 W/m -2,6 C -2,2 C 0,0 km/h (0 Bft) 98,11 %
01.12.2017 22:32 -2,2 C 4,4 C 97 % 1018,7 hPa 0,0 l/m 0,4 km/h (0 Bft) SO 127 0 min 0,000 mm 0,0 UV-I 0 W/m -2,6 C -2,2 C 1,6 km/h (1 Bft) 97,37 %
01.12.2017 22:34 -2,1 C 4,4 C 97 % 1018,7 hPa 0,0 l/m 0,3 km/h (0 Bft) SO 127 0 min 0,000 mm 0,0 UV-I 0 W/m -2,5 C -2,1 C 1,6 km/h (1 Bft) 98,11 %
01.12.2017 22:35 -2,1 C 4,4 C 97 % 1018,7 hPa 0,0 l/m 0,0 km/h (0 Bft) SO 135 0 min 0,000 mm 0,0 UV-I 0 W/m -2,5 C -2,1 C 1,6 km/h (1 Bft) 98,25 %
01.12.2017 22:40 -2,1 C 4,4 C 97 % 1018,8 hPa 0,0 l/m 1,6 km/h (1 Bft) SO 135 0 min 0,000 mm 0,0 UV-I 0 W/m -2,5 C -2,1 C 3,2 km/h (1 Bft) 97,37 %
01.12.2017 22:45 -2,1 C 4,4 C 97 % 1018,8 hPa 0,0 l/m 3,2 km/h (1 Bft) SO 135 0 min 0,000 mm 0,0 UV-I 0 W/m -2,5 C -2,1 C 9,7 km/h (2 Bft) 98,25 %
01.12.2017 22:50 -2,0 C 4,4 C 97 % 1018,8 hPa 0,0 l/m 4,8 km/h (1 Bft) O-SO 112 0 min 0,000 mm 0,0 UV-I 0 W/m -2,4 C -2,0 C 9,7 km/h (2 Bft) 98,25 %
01.12.2017 22:54 -2,0 C 4,4 C 97 % 1018,8 hPa 0,0 l/m 3,4 km/h (1 Bft) O 98 0 min 0,000 mm 0,0 UV-I 0 W/m -2,4 C -2,0 C 4,8 km/h (1 Bft) 98,03 %
01.12.2017 22:56 -2,0 C 4,4 C 97 % 1018,8 hPa 0,0 l/m 4,4 km/h (1 Bft) O 81 0 min 0,000 mm 0,0 UV-I 0 W/m -2,4 C -2,0 C 6,4 km/h (2 Bft) 100,00 %
01.12.2017 22:59 -1,9 C 4,4 C 97 % 1018,8 hPa 0,0 l/m 5,6 km/h (1 Bft) O 92 0 min 0,000 mm 0,0 UV-I 0 W/m -2,3 C -1,9 C 8,0 km/h (2 Bft) 100,00 %
01.12.2017 23:00 -1,9 C 4,4 C 97 % 1018,8 hPa 0,0 l/m 4,7 km/h (1 Bft) O-SO 106 0 min 0,000 mm 0,0 UV-I 0 W/m -2,3 C -1,9 C 6,4 km/h (2 Bft) 100,00 %
01.12.2017 23:02 -1,9 C 4,4 C 97 % 1018,8 hPa 0,0 l/m 4,0 km/h (1 Bft) O-NO 78 0 min 0,000 mm 0,0 UV-I 0 W/m -2,3 C -1,9 C 6,4 km/h (2 Bft) 100,00 %
01.12.2017 23:04 -1,9 C 4,4 C 97 % 1018,8 hPa 0,0 l/m 3,4 km/h (1 Bft) O-NO 78 0 min 0,000 mm 0,0 UV-I 0 W/m -2,3 C -1,9 C 6,4 km/h (2 Bft) 97,87 %
01.12.2017 23:06 -1,9 C 4,4 C 97 % 1018,9 hPa 0,0 l/m 5,8 km/h (2 Bft) O 82 0 min 0,000 mm 0,0 UV-I 0 W/m -2,3 C -1,9 C 11,3 km/h (2 Bft) 100,00 %
01.12.2017 23:08 -1,8 C 4,4 C 97 % 1018,9 hPa 0,0 l/m 3,9 km/h (1 Bft) O-NO 71 0 min 0,000 mm 0,0 UV-I 0 W/m -2,2 C -1,8 C 8,0 km/h (2 Bft) 100,00 %
01.12.2017 23:10 -1,8 C 4,4 C 97 % 1018,9 hPa 0,0 l/m 3,5 km/h (1 Bft) O-NO 67 0 min 0,000 mm 0,0 UV-I 0 W/m -2,2 C -1,8 C 6,4 km/h (2 Bft) 100,00 %
01.12.2017 23:12 -1,8 C 4,4 C 97 % 1018,9 hPa 0,0 l/m 4,8 km/h (1 Bft) O-NO 68 0 min 0,000 mm 0,0 UV-I 0 W/m -2,2 C -1,8 C 8,0 km/h (2 Bft) 100,00 %
01.12.2017 23:14 -1,9 C 4,4 C 97 % 1019,0 hPa 0,0 l/m 4,3 km/h (1 Bft) O-NO 68 0 min 0,000 mm 0,0 UV-I 0 W/m -2,3 C -1,9 C 6,4 km/h (2 Bft) 94,74 %
01.12.2017 23:16 -1,9 C 4,4 C 97 % 1018,9 hPa 0,0 l/m 4,0 km/h (1 Bft) O-NO 67 0 min 0,000 mm 0,0 UV-I 0 W/m -2,3 C -1,9 C 6,4 km/h (2 Bft) 98,00 %
01.12.2017 23:18 -1,9 C 4,4 C 97 % 1018,9 hPa 0,0 l/m 5,4 km/h (1 Bft) O-NO 57 0 min 0,000 mm 0,0 UV-I 0 W/m -2,3 C -1,9 C 8,0 km/h (2 Bft) 100,00 %
01.12.2017 23:20 -1,9 C 4,4 C 97 % 1019,0 hPa 0,0 l/m 4,7 km/h (1 Bft) O-NO 61 0 min 0,000 mm 0,0 UV-I 0 W/m -2,3 C -1,9 C 6,4 km/h (2 Bft) 100,00 %
01.12.2017 23:22 -1,8 C 4,4 C 97 % 1019,0 hPa 0,0 l/m 5,9 km/h (2 Bft) O-NO 69 0 min 0,000 mm 0,0 UV-I 0 W/m -2,2 C -1,8 C 8,0 km/h (2 Bft) 97,87 %
01.12.2017 23:24 -1,8 C 4,4 C 97 % 1019,0 hPa 0,0 l/m 5,8 km/h (2 Bft) NO 54 0 min 0,000 mm 0,0 UV-I 0 W/m -2,2 C -1,8 C 8,0 km/h (2 Bft) 100,00 %
01.12.2017 23:26 -1,8 C 4,4 C 97 % 1018,9 hPa 0,0 l/m 5,9 km/h (2 Bft) NO 51 0 min 0,000 mm 0,0 UV-I 0 W/m -2,2 C -1,8 C 8,0 km/h (2 Bft) 100,00 %
01.12.2017 23:28 -1,8 C 4,4 C 97 % 1019,0 hPa 0,0 l/m 6,3 km/h (2 Bft) O-NO 59 0 min 0,000 mm 0,0 UV-I 0 W/m -2,2 C -1,8 C 8,0 km/h (2 Bft) 100,00 %
01.12.2017 23:30 -1,8 C 4,4 C 97 % 1019,0 hPa 0,0 l/m 4,7 km/h (1 Bft) NO 35 0 min 0,000 mm 0,0 UV-I 0 W/m -2,2 C -1,8 C 8,0 km/h (2 Bft) 98,00 %
01.12.2017 23:32 -1,8 C 4,4 C 97 % 1019,0 hPa 0,0 l/m 4,6 km/h (1 Bft) NO 42 0 min 0,000 mm 0,0 UV-I 0 W/m -2,2 C -1,8 C 8,0 km/h (2 Bft) 97,37 %
01.12.2017 23:34 -1,7 C 4,4 C 97 % 1019,0 hPa 0,0 l/m 6,2 km/h (2 Bft) O-NO 68 0 min 0,000 mm 0,0 UV-I 0 W/m -2,1 C -1,7 C 8,0 km/h (2 Bft) 97,87 %
01.12.2017 23:36 -1,7 C 4,4 C 97 % 1019,1 hPa 0,0 l/m 6,9 km/h (2 Bft) N-NO 33 0 min 0,000 mm 0,0 UV-I 0 W/m -2,1 C -2,2 C 9,7 km/h (2 Bft) 100,00 %
01.12.2017 23:39 -1,7 C 4,4 C 97 % 1019,1 hPa 0,0 l/m 5,5 km/h (1 Bft) NO 48 0 min 0,000 mm 0,0 UV-I 0 W/m -2,1 C -1,7 C 9,7 km/h (2 Bft) 100,00 %
01.12.2017 23:40 -1,7 C 4,4 C 97 % 1019,1 hPa 0,0 l/m 5,0 km/h (1 Bft) NO 51 0 min 0,000 mm 0,0 UV-I 0 W/m -2,1 C -1,7 C 6,4 km/h (2 Bft) 100,00 %
01.12.2017 23:42 -1,7 C 4,4 C 97 % 1019,2 hPa 0,0 l/m 4,8 km/h (1 Bft) NO 48 0 min 0,000 mm 0,0 UV-I 0 W/m -2,1 C -1,7 C 6,4 km/h (2 Bft) 98,11 %
01.12.2017 23:45 -1,6 C 4,4 C 97 % 1019,2 hPa 0,0 l/m 4,5 km/h (1 Bft) O-NO 66 0 min 0,000 mm 0,0 UV-I 0 W/m -2,0 C -1,6 C 8,0 km/h (2 Bft) 98,59 %
01.12.2017 23:46 -1,6 C 4,4 C 97 % 1019,2 hPa 0,0 l/m 5,2 km/h (1 Bft) NO 45 0 min 0,000 mm 0,0 UV-I 0 W/m -2,0 C -1,6 C 6,4 km/h (2 Bft) 100,00 %
01.12.2017 23:50 -1,6 C 4,4 C 97 % 1019,2 hPa 0,0 l/m 6,4 km/h (2 Bft) O-NO 67 0 min 0,000 mm 0,0 UV-I 0 W/m -2,0 C -1,6 C 9,7 km/h (2 Bft) 88,60 %
01.12.2017 23:52 -1,6 C 4,4 C 97 % 1019,2 hPa 0,0 l/m 5,1 km/h (1 Bft) NO 46 0 min 0,000 mm 0,0 UV-I 0 W/m -2,0 C -1,6 C 6,4 km/h (2 Bft) 86,96 %
01.12.2017 23:54 -1,5 C 4,4 C 97 % 1019,3 hPa 0,0 l/m 5,3 km/h (1 Bft) O-NO 60 0 min 0,000 mm 0,0 UV-I 0 W/m -1,9 C -1,5 C 8,0 km/h (2 Bft) 97,87 %
01.12.2017 23:56 -1,5 C 4,4 C 97 % 1019,2 hPa 0,0 l/m 6,1 km/h (2 Bft) NO 35 0 min 0,000 mm 0,0 UV-I 0 W/m -1,9 C -1,5 C 9,7 km/h (2 Bft) 98,00 %
01.12.2017 23:59 -1,4 C 4,4 C 97 % 1019,2 hPa 0,0 l/m 7,3 km/h (2 Bft) NO 55 0 min 0,000 mm 0,0 UV-I 0 W/m -1,8 C -2,4 C 11,3 km/h (2 Bft) 97,18 %
_ Min-Zeit 19:34 00:00 11:28 00:10 - 02:58 - - - - - - 19:34 12:10 03:08 23:52
Minimum _ -3,8 C 4,4 C 92 % 1008,6 hPa - 0,0 km/h (0 Bft) - - - - - - -4,3 C -5,2 C 0,0 km/h (0 Bft) 86,96 %
_ Max-Zeit 00:00 00:00 01:42 23:54 11:16 12:10 - - 11:12 12:00 11:20 11:46 14:18 14:24 00:18 00:34
Maximum _ 0,2 C 4,4 C 97 % 1019,3 hPa 0,2 l/m 11,3 km/h
N-NO (2 Bft)
- - 7 min 0,076 mm 0,7 UV-I 366 W/m -0,7 C 0,2 C 16,1 km/h
W-SW (3 Bft)
100,00 %
Durchschnitt _ -1,8 C 4,4 C 96 % 1013,4 hPa #0,8 l/m 2,4 km/h (1 Bft) S - #3:29 h #0,330 mm 0,5 UV-I 116 W/m -2,4 C -1,8 C 4,4 km/h (1 Bft) 97,64 %